<gpx creator="Cyclotour.ca" version="1.1" xmlns:gpsies="http://www.gpsies.com/GPX/1/0" xmlns:xsi="http://www.w3.org/2001/XMLSchema-instance" xmlns="http://www.topografix.com/GPX/1/1" xsi:schemaLocation="http://www.topografix.com/GPX/1/1 http://www.topografix.com/GPX/1/1/gpx.xsd http://www.gpsies.com/GPX/1/0 http://www.gpsies.com/gpsies.xsd">
<trk>
<name>Parc de la Mauricie</name>
<trkseg>
<trkpt lat="46.725080000" lon="-72.767260000">
<ele>0</ele>
<time>2026-09-04T06:30:53Z</time>
</trkpt>
<trkpt lat="46.725080000" lon="-72.767260000">
<ele>0</ele>
<time>2026-09-04T06:30:54Z</time>
</trkpt>
<trkpt lat="46.725080000" lon="-72.767260000">
<ele>0</ele>
<time>2026-09-04T06:30:55Z</time>
</trkpt>
<trkpt lat="46.725080000" lon="-72.767260000">
<ele>0</ele>
<time>2026-09-04T06:30:56Z</time>
</trkpt>
<trkpt lat="46.725360000" lon="-72.767230000">
<ele>0</ele>
<time>2026-09-04T06:30:57Z</time>
</trkpt>
<trkpt lat="46.725770000" lon="-72.767240000">
<ele>0</ele>
<time>2026-09-04T06:30:58Z</time>
</trkpt>
<trkpt lat="46.726090000" lon="-72.767260000">
<ele>0</ele>
<time>2026-09-04T06:30:59Z</time>
</trkpt>
<trkpt lat="46.726440000" lon="-72.767370000">
<ele>0</ele>
<time>2026-09-04T06:31:00Z</time>
</trkpt>
<trkpt lat="46.726660000" lon="-72.767480000">
<ele>0</ele>
<time>2026-09-04T06:31:01Z</time>
</trkpt>
<trkpt lat="46.727000000" lon="-72.767640000">
<ele>0</ele>
<time>2026-09-04T06:31:02Z</time>
</trkpt>
<trkpt lat="46.727060000" lon="-72.767680000">
<ele>0</ele>
<time>2026-09-04T06:31:03Z</time>
</trkpt>
<trkpt lat="46.727170000" lon="-72.767710000">
<ele>0</ele>
<time>2026-09-04T06:31:04Z</time>
</trkpt>
<trkpt lat="46.727520000" lon="-72.767780000">
<ele>0</ele>
<time>2026-09-04T06:31:05Z</time>
</trkpt>
<trkpt lat="46.727700000" lon="-72.767810000">
<ele>0</ele>
<time>2026-09-04T06:31:06Z</time>
</trkpt>
<trkpt lat="46.727930000" lon="-72.767790000">
<ele>0</ele>
<time>2026-09-04T06:31:07Z</time>
</trkpt>
<trkpt lat="46.728230000" lon="-72.767730000">
<ele>0</ele>
<time>2026-09-04T06:31:08Z</time>
</trkpt>
<trkpt lat="46.728410000" lon="-72.767670000">
<ele>0</ele>
<time>2026-09-04T06:31:09Z</time>
</trkpt>
<trkpt lat="46.728770000" lon="-72.767580000">
<ele>0</ele>
<time>2026-09-04T06:31:10Z</time>
</trkpt>
<trkpt lat="46.729480000" lon="-72.767510000">
<ele>0</ele>
<time>2026-09-04T06:31:11Z</time>
</trkpt>
<trkpt lat="46.729840000" lon="-72.767490000">
<ele>0</ele>
<time>2026-09-04T06:31:12Z</time>
</trkpt>
<trkpt lat="46.730020000" lon="-72.767490000">
<ele>0</ele>
<time>2026-09-04T06:31:13Z</time>
</trkpt>
<trkpt lat="46.730340000" lon="-72.767540000">
<ele>0</ele>
<time>2026-09-04T06:31:14Z</time>
</trkpt>
<trkpt lat="46.730670000" lon="-72.767630000">
<ele>0</ele>
<time>2026-09-04T06:31:15Z</time>
</trkpt>
<trkpt lat="46.730940000" lon="-72.767740000">
<ele>0</ele>
<time>2026-09-04T06:31:16Z</time>
</trkpt>
<trkpt lat="46.732620000" lon="-72.768530000">
<ele>0</ele>
<time>2026-09-04T06:31:17Z</time>
</trkpt>
<trkpt lat="46.733140000" lon="-72.768740000">
<ele>0</ele>
<time>2026-09-04T06:31:18Z</time>
</trkpt>
<trkpt lat="46.733860000" lon="-72.769050000">
<ele>0</ele>
<time>2026-09-04T06:31:19Z</time>
</trkpt>
<trkpt lat="46.734200000" lon="-72.769230000">
<ele>0</ele>
<time>2026-09-04T06:31:20Z</time>
</trkpt>
<trkpt lat="46.734910000" lon="-72.769710000">
<ele>0</ele>
<time>2026-09-04T06:31:21Z</time>
</trkpt>
<trkpt lat="46.735190000" lon="-72.769960000">
<ele>0</ele>
<time>2026-09-04T06:31:22Z</time>
</trkpt>
<trkpt lat="46.735490000" lon="-72.770350000">
<ele>0</ele>
<time>2026-09-04T06:31:23Z</time>
</trkpt>
<trkpt lat="46.735620000" lon="-72.770540000">
<ele>0</ele>
<time>2026-09-04T06:31:24Z</time>
</trkpt>
<trkpt lat="46.735750000" lon="-72.770800000">
<ele>0</ele>
<time>2026-09-04T06:31:25Z</time>
</trkpt>
<trkpt lat="46.736090000" lon="-72.771660000">
<ele>0</ele>
<time>2026-09-04T06:31:26Z</time>
</trkpt>
<trkpt lat="46.736300000" lon="-72.772090000">
<ele>0</ele>
<time>2026-09-04T06:31:27Z</time>
</trkpt>
<trkpt lat="46.736460000" lon="-72.772290000">
<ele>0</ele>
<time>2026-09-04T06:31:28Z</time>
</trkpt>
<trkpt lat="46.737780000" lon="-72.773550000">
<ele>0</ele>
<time>2026-09-04T06:31:29Z</time>
</trkpt>
<trkpt lat="46.738160000" lon="-72.773910000">
<ele>0</ele>
<time>2026-09-04T06:31:30Z</time>
</trkpt>
<trkpt lat="46.738410000" lon="-72.774180000">
<ele>0</ele>
<time>2026-09-04T06:31:31Z</time>
</trkpt>
<trkpt lat="46.738580000" lon="-72.774600000">
<ele>0</ele>
<time>2026-09-04T06:31:32Z</time>
</trkpt>
<trkpt lat="46.738690000" lon="-72.775070000">
<ele>0</ele>
<time>2026-09-04T06:31:33Z</time>
</trkpt>
<trkpt lat="46.738690000" lon="-72.775100000">
<ele>0</ele>
<time>2026-09-04T06:31:34Z</time>
</trkpt>
<trkpt lat="46.738780000" lon="-72.775860000">
<ele>0</ele>
<time>2026-09-04T06:31:35Z</time>
</trkpt>
<trkpt lat="46.738830000" lon="-72.776360000">
<ele>0</ele>
<time>2026-09-04T06:31:36Z</time>
</trkpt>
<trkpt lat="46.738940000" lon="-72.776850000">
<ele>0</ele>
<time>2026-09-04T06:31:37Z</time>
</trkpt>
<trkpt lat="46.739080000" lon="-72.777370000">
<ele>0</ele>
<time>2026-09-04T06:31:38Z</time>
</trkpt>
<trkpt lat="46.739160000" lon="-72.777600000">
<ele>0</ele>
<time>2026-09-04T06:31:39Z</time>
</trkpt>
<trkpt lat="46.739290000" lon="-72.777860000">
<ele>0</ele>
<time>2026-09-04T06:31:40Z</time>
</trkpt>
<trkpt lat="46.739440000" lon="-72.778070000">
<ele>0</ele>
<time>2026-09-04T06:31:41Z</time>
</trkpt>
<trkpt lat="46.739670000" lon="-72.778300000">
<ele>0</ele>
<time>2026-09-04T06:31:42Z</time>
</trkpt>
<trkpt lat="46.739750000" lon="-72.778360000">
<ele>0</ele>
<time>2026-09-04T06:31:43Z</time>
</trkpt>
<trkpt lat="46.740200000" lon="-72.778780000">
<ele>0</ele>
<time>2026-09-04T06:31:44Z</time>
</trkpt>
<trkpt lat="46.740520000" lon="-72.779120000">
<ele>0</ele>
<time>2026-09-04T06:31:45Z</time>
</trkpt>
<trkpt lat="46.740760000" lon="-72.779370000">
<ele>0</ele>
<time>2026-09-04T06:31:46Z</time>
</trkpt>
<trkpt lat="46.741010000" lon="-72.779510000">
<ele>0</ele>
<time>2026-09-04T06:31:47Z</time>
</trkpt>
<trkpt lat="46.741230000" lon="-72.779560000">
<ele>0</ele>
<time>2026-09-04T06:31:48Z</time>
</trkpt>
<trkpt lat="46.741470000" lon="-72.779580000">
<ele>0</ele>
<time>2026-09-04T06:31:49Z</time>
</trkpt>
<trkpt lat="46.741590000" lon="-72.779630000">
<ele>0</ele>
<time>2026-09-04T06:31:50Z</time>
</trkpt>
<trkpt lat="46.741920000" lon="-72.779790000">
<ele>0</ele>
<time>2026-09-04T06:31:51Z</time>
</trkpt>
<trkpt lat="46.742600000" lon="-72.780140000">
<ele>0</ele>
<time>2026-09-04T06:31:52Z</time>
</trkpt>
<trkpt lat="46.743120000" lon="-72.780410000">
<ele>0</ele>
<time>2026-09-04T06:31:53Z</time>
</trkpt>
<trkpt lat="46.743440000" lon="-72.780600000">
<ele>0</ele>
<time>2026-09-04T06:31:54Z</time>
</trkpt>
<trkpt lat="46.743600000" lon="-72.780710000">
<ele>0</ele>
<time>2026-09-04T06:31:55Z</time>
</trkpt>
<trkpt lat="46.743850000" lon="-72.780880000">
<ele>0</ele>
<time>2026-09-04T06:31:56Z</time>
</trkpt>
<trkpt lat="46.744390000" lon="-72.781340000">
<ele>0</ele>
<time>2026-09-04T06:31:57Z</time>
</trkpt>
<trkpt lat="46.744770000" lon="-72.781680000">
<ele>0</ele>
<time>2026-09-04T06:31:58Z</time>
</trkpt>
<trkpt lat="46.745000000" lon="-72.781930000">
<ele>0</ele>
<time>2026-09-04T06:31:59Z</time>
</trkpt>
<trkpt lat="46.745250000" lon="-72.782200000">
<ele>0</ele>
<time>2026-09-04T06:32:00Z</time>
</trkpt>
<trkpt lat="46.745250000" lon="-72.782200000">
<ele>0</ele>
<time>2026-09-04T06:32:01Z</time>
</trkpt>
<trkpt lat="46.746560000" lon="-72.783700000">
<ele>0</ele>
<time>2026-09-04T06:32:02Z</time>
</trkpt>
<trkpt lat="46.747350000" lon="-72.784550000">
<ele>0</ele>
<time>2026-09-04T06:32:03Z</time>
</trkpt>
<trkpt lat="46.747990000" lon="-72.785290000">
<ele>0</ele>
<time>2026-09-04T06:32:04Z</time>
</trkpt>
<trkpt lat="46.749040000" lon="-72.786310000">
<ele>0</ele>
<time>2026-09-04T06:32:05Z</time>
</trkpt>
<trkpt lat="46.749320000" lon="-72.786640000">
<ele>0</ele>
<time>2026-09-04T06:32:06Z</time>
</trkpt>
<trkpt lat="46.749950000" lon="-72.787570000">
<ele>0</ele>
<time>2026-09-04T06:32:07Z</time>
</trkpt>
<trkpt lat="46.750240000" lon="-72.787960000">
<ele>0</ele>
<time>2026-09-04T06:32:08Z</time>
</trkpt>
<trkpt lat="46.750440000" lon="-72.788290000">
<ele>0</ele>
<time>2026-09-04T06:32:09Z</time>
</trkpt>
<trkpt lat="46.750550000" lon="-72.788570000">
<ele>0</ele>
<time>2026-09-04T06:32:10Z</time>
</trkpt>
<trkpt lat="46.750600000" lon="-72.788800000">
<ele>0</ele>
<time>2026-09-04T06:32:11Z</time>
</trkpt>
<trkpt lat="46.750630000" lon="-72.789060000">
<ele>0</ele>
<time>2026-09-04T06:32:12Z</time>
</trkpt>
<trkpt lat="46.750630000" lon="-72.789500000">
<ele>0</ele>
<time>2026-09-04T06:32:13Z</time>
</trkpt>
<trkpt lat="46.750580000" lon="-72.789850000">
<ele>0</ele>
<time>2026-09-04T06:32:14Z</time>
</trkpt>
<trkpt lat="46.750530000" lon="-72.790070000">
<ele>0</ele>
<time>2026-09-04T06:32:15Z</time>
</trkpt>
<trkpt lat="46.750410000" lon="-72.790490000">
<ele>0</ele>
<time>2026-09-04T06:32:16Z</time>
</trkpt>
<trkpt lat="46.750330000" lon="-72.790940000">
<ele>0</ele>
<time>2026-09-04T06:32:17Z</time>
</trkpt>
<trkpt lat="46.750290000" lon="-72.791260000">
<ele>0</ele>
<time>2026-09-04T06:32:18Z</time>
</trkpt>
<trkpt lat="46.750180000" lon="-72.792560000">
<ele>0</ele>
<time>2026-09-04T06:32:19Z</time>
</trkpt>
<trkpt lat="46.750160000" lon="-72.792880000">
<ele>0</ele>
<time>2026-09-04T06:32:20Z</time>
</trkpt>
<trkpt lat="46.750170000" lon="-72.793310000">
<ele>0</ele>
<time>2026-09-04T06:32:21Z</time>
</trkpt>
<trkpt lat="46.750260000" lon="-72.793810000">
<ele>0</ele>
<time>2026-09-04T06:32:22Z</time>
</trkpt>
<trkpt lat="46.750350000" lon="-72.794090000">
<ele>0</ele>
<time>2026-09-04T06:32:23Z</time>
</trkpt>
<trkpt lat="46.750570000" lon="-72.794450000">
<ele>0</ele>
<time>2026-09-04T06:32:24Z</time>
</trkpt>
<trkpt lat="46.750730000" lon="-72.794660000">
<ele>0</ele>
<time>2026-09-04T06:32:25Z</time>
</trkpt>
<trkpt lat="46.750880000" lon="-72.794790000">
<ele>0</ele>
<time>2026-09-04T06:32:26Z</time>
</trkpt>
<trkpt lat="46.751220000" lon="-72.794970000">
<ele>0</ele>
<time>2026-09-04T06:32:27Z</time>
</trkpt>
<trkpt lat="46.751400000" lon="-72.795010000">
<ele>0</ele>
<time>2026-09-04T06:32:28Z</time>
</trkpt>
<trkpt lat="46.751580000" lon="-72.795020000">
<ele>0</ele>
<time>2026-09-04T06:32:29Z</time>
</trkpt>
<trkpt lat="46.752070000" lon="-72.795010000">
<ele>0</ele>
<time>2026-09-04T06:32:30Z</time>
</trkpt>
<trkpt lat="46.752570000" lon="-72.794960000">
<ele>0</ele>
<time>2026-09-04T06:32:31Z</time>
</trkpt>
<trkpt lat="46.752990000" lon="-72.795000000">
<ele>0</ele>
<time>2026-09-04T06:32:32Z</time>
</trkpt>
<trkpt lat="46.753190000" lon="-72.795070000">
<ele>0</ele>
<time>2026-09-04T06:32:33Z</time>
</trkpt>
<trkpt lat="46.753350000" lon="-72.795180000">
<ele>0</ele>
<time>2026-09-04T06:32:34Z</time>
</trkpt>
<trkpt lat="46.753500000" lon="-72.795320000">
<ele>0</ele>
<time>2026-09-04T06:32:35Z</time>
</trkpt>
<trkpt lat="46.753750000" lon="-72.795630000">
<ele>0</ele>
<time>2026-09-04T06:32:36Z</time>
</trkpt>
<trkpt lat="46.753980000" lon="-72.796150000">
<ele>0</ele>
<time>2026-09-04T06:32:37Z</time>
</trkpt>
<trkpt lat="46.754020000" lon="-72.796540000">
<ele>0</ele>
<time>2026-09-04T06:32:38Z</time>
</trkpt>
<trkpt lat="46.754030000" lon="-72.796870000">
<ele>0</ele>
<time>2026-09-04T06:32:39Z</time>
</trkpt>
<trkpt lat="46.753980000" lon="-72.797510000">
<ele>0</ele>
<time>2026-09-04T06:32:40Z</time>
</trkpt>
<trkpt lat="46.753970000" lon="-72.797850000">
<ele>0</ele>
<time>2026-09-04T06:32:41Z</time>
</trkpt>
<trkpt lat="46.753980000" lon="-72.798110000">
<ele>0</ele>
<time>2026-09-04T06:32:42Z</time>
</trkpt>
<trkpt lat="46.754010000" lon="-72.798370000">
<ele>0</ele>
<time>2026-09-04T06:32:43Z</time>
</trkpt>
<trkpt lat="46.754060000" lon="-72.798620000">
<ele>0</ele>
<time>2026-09-04T06:32:44Z</time>
</trkpt>
<trkpt lat="46.754190000" lon="-72.798970000">
<ele>0</ele>
<time>2026-09-04T06:32:45Z</time>
</trkpt>
<trkpt lat="46.754360000" lon="-72.799270000">
<ele>0</ele>
<time>2026-09-04T06:32:46Z</time>
</trkpt>
<trkpt lat="46.754610000" lon="-72.799790000">
<ele>0</ele>
<time>2026-09-04T06:32:47Z</time>
</trkpt>
<trkpt lat="46.754700000" lon="-72.800040000">
<ele>0</ele>
<time>2026-09-04T06:32:48Z</time>
</trkpt>
<trkpt lat="46.754740000" lon="-72.800210000">
<ele>0</ele>
<time>2026-09-04T06:32:49Z</time>
</trkpt>
<trkpt lat="46.754750000" lon="-72.800420000">
<ele>0</ele>
<time>2026-09-04T06:32:50Z</time>
</trkpt>
<trkpt lat="46.754750000" lon="-72.800690000">
<ele>0</ele>
<time>2026-09-04T06:32:51Z</time>
</trkpt>
<trkpt lat="46.754730000" lon="-72.800950000">
<ele>0</ele>
<time>2026-09-04T06:32:52Z</time>
</trkpt>
<trkpt lat="46.754690000" lon="-72.801200000">
<ele>0</ele>
<time>2026-09-04T06:32:53Z</time>
</trkpt>
<trkpt lat="46.754620000" lon="-72.801440000">
<ele>0</ele>
<time>2026-09-04T06:32:54Z</time>
</trkpt>
<trkpt lat="46.754530000" lon="-72.801670000">
<ele>0</ele>
<time>2026-09-04T06:32:55Z</time>
</trkpt>
<trkpt lat="46.754330000" lon="-72.802110000">
<ele>0</ele>
<time>2026-09-04T06:32:56Z</time>
</trkpt>
<trkpt lat="46.754240000" lon="-72.802340000">
<ele>0</ele>
<time>2026-09-04T06:32:57Z</time>
</trkpt>
<trkpt lat="46.754180000" lon="-72.802510000">
<ele>0</ele>
<time>2026-09-04T06:32:58Z</time>
</trkpt>
<trkpt lat="46.754130000" lon="-72.802830000">
<ele>0</ele>
<time>2026-09-04T06:32:59Z</time>
</trkpt>
<trkpt lat="46.754090000" lon="-72.803140000">
<ele>0</ele>
<time>2026-09-04T06:33:00Z</time>
</trkpt>
<trkpt lat="46.754110000" lon="-72.803430000">
<ele>0</ele>
<time>2026-09-04T06:33:01Z</time>
</trkpt>
<trkpt lat="46.754180000" lon="-72.803730000">
<ele>0</ele>
<time>2026-09-04T06:33:02Z</time>
</trkpt>
<trkpt lat="46.754280000" lon="-72.803960000">
<ele>0</ele>
<time>2026-09-04T06:33:03Z</time>
</trkpt>
<trkpt lat="46.754450000" lon="-72.804250000">
<ele>0</ele>
<time>2026-09-04T06:33:04Z</time>
</trkpt>
<trkpt lat="46.754650000" lon="-72.804530000">
<ele>0</ele>
<time>2026-09-04T06:33:05Z</time>
</trkpt>
<trkpt lat="46.754810000" lon="-72.804670000">
<ele>0</ele>
<time>2026-09-04T06:33:06Z</time>
</trkpt>
<trkpt lat="46.754960000" lon="-72.804790000">
<ele>0</ele>
<time>2026-09-04T06:33:07Z</time>
</trkpt>
<trkpt lat="46.755120000" lon="-72.804870000">
<ele>0</ele>
<time>2026-09-04T06:33:08Z</time>
</trkpt>
<trkpt lat="46.755490000" lon="-72.804920000">
<ele>0</ele>
<time>2026-09-04T06:33:09Z</time>
</trkpt>
<trkpt lat="46.755670000" lon="-72.804930000">
<ele>0</ele>
<time>2026-09-04T06:33:10Z</time>
</trkpt>
<trkpt lat="46.756030000" lon="-72.804950000">
<ele>0</ele>
<time>2026-09-04T06:33:11Z</time>
</trkpt>
<trkpt lat="46.756210000" lon="-72.804980000">
<ele>0</ele>
<time>2026-09-04T06:33:12Z</time>
</trkpt>
<trkpt lat="46.756420000" lon="-72.805020000">
<ele>0</ele>
<time>2026-09-04T06:33:13Z</time>
</trkpt>
<trkpt lat="46.756730000" lon="-72.805160000">
<ele>0</ele>
<time>2026-09-04T06:33:14Z</time>
</trkpt>
<trkpt lat="46.756850000" lon="-72.805220000">
<ele>0</ele>
<time>2026-09-04T06:33:15Z</time>
</trkpt>
<trkpt lat="46.757050000" lon="-72.805400000">
<ele>0</ele>
<time>2026-09-04T06:33:16Z</time>
</trkpt>
<trkpt lat="46.757180000" lon="-72.805580000">
<ele>0</ele>
<time>2026-09-04T06:33:17Z</time>
</trkpt>
<trkpt lat="46.757390000" lon="-72.805990000">
<ele>0</ele>
<time>2026-09-04T06:33:18Z</time>
</trkpt>
<trkpt lat="46.757460000" lon="-72.806240000">
<ele>0</ele>
<time>2026-09-04T06:33:19Z</time>
</trkpt>
<trkpt lat="46.757530000" lon="-72.806640000">
<ele>0</ele>
<time>2026-09-04T06:33:20Z</time>
</trkpt>
<trkpt lat="46.757530000" lon="-72.807020000">
<ele>0</ele>
<time>2026-09-04T06:33:21Z</time>
</trkpt>
<trkpt lat="46.757520000" lon="-72.807300000">
<ele>0</ele>
<time>2026-09-04T06:33:22Z</time>
</trkpt>
<trkpt lat="46.757450000" lon="-72.807630000">
<ele>0</ele>
<time>2026-09-04T06:33:23Z</time>
</trkpt>
<trkpt lat="46.757310000" lon="-72.808000000">
<ele>0</ele>
<time>2026-09-04T06:33:24Z</time>
</trkpt>
<trkpt lat="46.757140000" lon="-72.808460000">
<ele>0</ele>
<time>2026-09-04T06:33:25Z</time>
</trkpt>
<trkpt lat="46.757010000" lon="-72.808840000">
<ele>0</ele>
<time>2026-09-04T06:33:26Z</time>
</trkpt>
<trkpt lat="46.756960000" lon="-72.809190000">
<ele>0</ele>
<time>2026-09-04T06:33:27Z</time>
</trkpt>
<trkpt lat="46.756970000" lon="-72.809750000">
<ele>0</ele>
<time>2026-09-04T06:33:28Z</time>
</trkpt>
<trkpt lat="46.756970000" lon="-72.809750000">
<ele>0</ele>
<time>2026-09-04T06:33:29Z</time>
</trkpt>
<trkpt lat="46.756980000" lon="-72.809980000">
<ele>0</ele>
<time>2026-09-04T06:33:30Z</time>
</trkpt>
<trkpt lat="46.757060000" lon="-72.810200000">
<ele>0</ele>
<time>2026-09-04T06:33:31Z</time>
</trkpt>
<trkpt lat="46.757220000" lon="-72.810590000">
<ele>0</ele>
<time>2026-09-04T06:33:32Z</time>
</trkpt>
<trkpt lat="46.757390000" lon="-72.810900000">
<ele>0</ele>
<time>2026-09-04T06:33:33Z</time>
</trkpt>
<trkpt lat="46.757620000" lon="-72.811240000">
<ele>0</ele>
<time>2026-09-04T06:33:34Z</time>
</trkpt>
<trkpt lat="46.757860000" lon="-72.811690000">
<ele>0</ele>
<time>2026-09-04T06:33:35Z</time>
</trkpt>
<trkpt lat="46.758010000" lon="-72.812110000">
<ele>0</ele>
<time>2026-09-04T06:33:36Z</time>
</trkpt>
<trkpt lat="46.758060000" lon="-72.812360000">
<ele>0</ele>
<time>2026-09-04T06:33:37Z</time>
</trkpt>
<trkpt lat="46.758140000" lon="-72.812760000">
<ele>0</ele>
<time>2026-09-04T06:33:38Z</time>
</trkpt>
<trkpt lat="46.758320000" lon="-72.813490000">
<ele>0</ele>
<time>2026-09-04T06:33:39Z</time>
</trkpt>
<trkpt lat="46.758380000" lon="-72.813670000">
<ele>0</ele>
<time>2026-09-04T06:33:40Z</time>
</trkpt>
<trkpt lat="46.758380000" lon="-72.813670000">
<ele>0</ele>
<time>2026-09-04T06:33:41Z</time>
</trkpt>
<trkpt lat="46.758480000" lon="-72.813890000">
<ele>0</ele>
<time>2026-09-04T06:33:42Z</time>
</trkpt>
<trkpt lat="46.758640000" lon="-72.814080000">
<ele>0</ele>
<time>2026-09-04T06:33:43Z</time>
</trkpt>
<trkpt lat="46.758960000" lon="-72.814360000">
<ele>0</ele>
<time>2026-09-04T06:33:44Z</time>
</trkpt>
<trkpt lat="46.759250000" lon="-72.814600000">
<ele>0</ele>
<time>2026-09-04T06:33:45Z</time>
</trkpt>
<trkpt lat="46.759410000" lon="-72.814790000">
<ele>0</ele>
<time>2026-09-04T06:33:46Z</time>
</trkpt>
<trkpt lat="46.759790000" lon="-72.815250000">
<ele>0</ele>
<time>2026-09-04T06:33:47Z</time>
</trkpt>
<trkpt lat="46.759950000" lon="-72.815490000">
<ele>0</ele>
<time>2026-09-04T06:33:48Z</time>
</trkpt>
<trkpt lat="46.760330000" lon="-72.816040000">
<ele>0</ele>
<time>2026-09-04T06:33:49Z</time>
</trkpt>
<trkpt lat="46.760550000" lon="-72.816460000">
<ele>0</ele>
<time>2026-09-04T06:33:50Z</time>
</trkpt>
<trkpt lat="46.760640000" lon="-72.816750000">
<ele>0</ele>
<time>2026-09-04T06:33:51Z</time>
</trkpt>
<trkpt lat="46.760700000" lon="-72.817050000">
<ele>0</ele>
<time>2026-09-04T06:33:52Z</time>
</trkpt>
<trkpt lat="46.760720000" lon="-72.817400000">
<ele>0</ele>
<time>2026-09-04T06:33:53Z</time>
</trkpt>
<trkpt lat="46.760710000" lon="-72.817760000">
<ele>0</ele>
<time>2026-09-04T06:33:54Z</time>
</trkpt>
<trkpt lat="46.760650000" lon="-72.818140000">
<ele>0</ele>
<time>2026-09-04T06:33:55Z</time>
</trkpt>
<trkpt lat="46.760530000" lon="-72.818710000">
<ele>0</ele>
<time>2026-09-04T06:33:56Z</time>
</trkpt>
<trkpt lat="46.760480000" lon="-72.819140000">
<ele>0</ele>
<time>2026-09-04T06:33:57Z</time>
</trkpt>
<trkpt lat="46.760470000" lon="-72.819380000">
<ele>0</ele>
<time>2026-09-04T06:33:58Z</time>
</trkpt>
<trkpt lat="46.760470000" lon="-72.819380000">
<ele>0</ele>
<time>2026-09-04T06:33:59Z</time>
</trkpt>
<trkpt lat="46.760480000" lon="-72.819520000">
<ele>0</ele>
<time>2026-09-04T06:34:00Z</time>
</trkpt>
<trkpt lat="46.760530000" lon="-72.819770000">
<ele>0</ele>
<time>2026-09-04T06:34:01Z</time>
</trkpt>
<trkpt lat="46.760760000" lon="-72.820490000">
<ele>0</ele>
<time>2026-09-04T06:34:02Z</time>
</trkpt>
<trkpt lat="46.760930000" lon="-72.821000000">
<ele>0</ele>
<time>2026-09-04T06:34:03Z</time>
</trkpt>
<trkpt lat="46.761020000" lon="-72.821470000">
<ele>0</ele>
<time>2026-09-04T06:34:04Z</time>
</trkpt>
<trkpt lat="46.761140000" lon="-72.822230000">
<ele>0</ele>
<time>2026-09-04T06:34:05Z</time>
</trkpt>
<trkpt lat="46.761220000" lon="-72.822930000">
<ele>0</ele>
<time>2026-09-04T06:34:06Z</time>
</trkpt>
<trkpt lat="46.761190000" lon="-72.823440000">
<ele>0</ele>
<time>2026-09-04T06:34:07Z</time>
</trkpt>
<trkpt lat="46.761140000" lon="-72.823700000">
<ele>0</ele>
<time>2026-09-04T06:34:08Z</time>
</trkpt>
<trkpt lat="46.761040000" lon="-72.823960000">
<ele>0</ele>
<time>2026-09-04T06:34:09Z</time>
</trkpt>
<trkpt lat="46.760920000" lon="-72.824220000">
<ele>0</ele>
<time>2026-09-04T06:34:10Z</time>
</trkpt>
<trkpt lat="46.760790000" lon="-72.824400000">
<ele>0</ele>
<time>2026-09-04T06:34:11Z</time>
</trkpt>
<trkpt lat="46.760500000" lon="-72.824750000">
<ele>0</ele>
<time>2026-09-04T06:34:12Z</time>
</trkpt>
<trkpt lat="46.760500000" lon="-72.824750000">
<ele>0</ele>
<time>2026-09-04T06:34:13Z</time>
</trkpt>
<trkpt lat="46.759440000" lon="-72.826050000">
<ele>0</ele>
<time>2026-09-04T06:34:14Z</time>
</trkpt>
<trkpt lat="46.758870000" lon="-72.826740000">
<ele>0</ele>
<time>2026-09-04T06:34:15Z</time>
</trkpt>
<trkpt lat="46.758540000" lon="-72.827190000">
<ele>0</ele>
<time>2026-09-04T06:34:16Z</time>
</trkpt>
<trkpt lat="46.758410000" lon="-72.827480000">
<ele>0</ele>
<time>2026-09-04T06:34:17Z</time>
</trkpt>
<trkpt lat="46.758330000" lon="-72.827790000">
<ele>0</ele>
<time>2026-09-04T06:34:18Z</time>
</trkpt>
<trkpt lat="46.758320000" lon="-72.828050000">
<ele>0</ele>
<time>2026-09-04T06:34:19Z</time>
</trkpt>
<trkpt lat="46.758330000" lon="-72.828310000">
<ele>0</ele>
<time>2026-09-04T06:34:20Z</time>
</trkpt>
<trkpt lat="46.758420000" lon="-72.828820000">
<ele>0</ele>
<time>2026-09-04T06:34:21Z</time>
</trkpt>
<trkpt lat="46.758460000" lon="-72.829070000">
<ele>0</ele>
<time>2026-09-04T06:34:22Z</time>
</trkpt>
<trkpt lat="46.758480000" lon="-72.829330000">
<ele>0</ele>
<time>2026-09-04T06:34:23Z</time>
</trkpt>
<trkpt lat="46.758420000" lon="-72.829960000">
<ele>0</ele>
<time>2026-09-04T06:34:24Z</time>
</trkpt>
<trkpt lat="46.758280000" lon="-72.830880000">
<ele>0</ele>
<time>2026-09-04T06:34:25Z</time>
</trkpt>
<trkpt lat="46.758160000" lon="-72.831650000">
<ele>0</ele>
<time>2026-09-04T06:34:26Z</time>
</trkpt>
<trkpt lat="46.758050000" lon="-72.832190000">
<ele>0</ele>
<time>2026-09-04T06:34:27Z</time>
</trkpt>
<trkpt lat="46.757890000" lon="-72.832620000">
<ele>0</ele>
<time>2026-09-04T06:34:28Z</time>
</trkpt>
<trkpt lat="46.757720000" lon="-72.833100000">
<ele>0</ele>
<time>2026-09-04T06:34:29Z</time>
</trkpt>
<trkpt lat="46.757620000" lon="-72.833580000">
<ele>0</ele>
<time>2026-09-04T06:34:30Z</time>
</trkpt>
<trkpt lat="46.757610000" lon="-72.833840000">
<ele>0</ele>
<time>2026-09-04T06:34:31Z</time>
</trkpt>
<trkpt lat="46.757610000" lon="-72.834110000">
<ele>0</ele>
<time>2026-09-04T06:34:32Z</time>
</trkpt>
<trkpt lat="46.757650000" lon="-72.834360000">
<ele>0</ele>
<time>2026-09-04T06:34:33Z</time>
</trkpt>
<trkpt lat="46.757720000" lon="-72.834600000">
<ele>0</ele>
<time>2026-09-04T06:34:34Z</time>
</trkpt>
<trkpt lat="46.757820000" lon="-72.834820000">
<ele>0</ele>
<time>2026-09-04T06:34:35Z</time>
</trkpt>
<trkpt lat="46.758080000" lon="-72.835190000">
<ele>0</ele>
<time>2026-09-04T06:34:36Z</time>
</trkpt>
<trkpt lat="46.758230000" lon="-72.835320000">
<ele>0</ele>
<time>2026-09-04T06:34:37Z</time>
</trkpt>
<trkpt lat="46.758400000" lon="-72.835410000">
<ele>0</ele>
<time>2026-09-04T06:34:38Z</time>
</trkpt>
<trkpt lat="46.758570000" lon="-72.835460000">
<ele>0</ele>
<time>2026-09-04T06:34:39Z</time>
</trkpt>
<trkpt lat="46.758750000" lon="-72.835470000">
<ele>0</ele>
<time>2026-09-04T06:34:40Z</time>
</trkpt>
<trkpt lat="46.759020000" lon="-72.835400000">
<ele>0</ele>
<time>2026-09-04T06:34:41Z</time>
</trkpt>
<trkpt lat="46.759020000" lon="-72.835400000">
<ele>0</ele>
<time>2026-09-04T06:34:42Z</time>
</trkpt>
<trkpt lat="46.759350000" lon="-72.835290000">
<ele>0</ele>
<time>2026-09-04T06:34:43Z</time>
</trkpt>
<trkpt lat="46.759870000" lon="-72.835070000">
<ele>0</ele>
<time>2026-09-04T06:34:44Z</time>
</trkpt>
<trkpt lat="46.760410000" lon="-72.834910000">
<ele>0</ele>
<time>2026-09-04T06:34:45Z</time>
</trkpt>
<trkpt lat="46.760410000" lon="-72.834910000">
<ele>0</ele>
<time>2026-09-04T06:34:46Z</time>
</trkpt>
<trkpt lat="46.760920000" lon="-72.834870000">
<ele>0</ele>
<time>2026-09-04T06:34:47Z</time>
</trkpt>
<trkpt lat="46.761110000" lon="-72.834920000">
<ele>0</ele>
<time>2026-09-04T06:34:48Z</time>
</trkpt>
<trkpt lat="46.761440000" lon="-72.834990000">
<ele>0</ele>
<time>2026-09-04T06:34:49Z</time>
</trkpt>
<trkpt lat="46.761650000" lon="-72.835010000">
<ele>0</ele>
<time>2026-09-04T06:34:50Z</time>
</trkpt>
<trkpt lat="46.762010000" lon="-72.835030000">
<ele>0</ele>
<time>2026-09-04T06:34:51Z</time>
</trkpt>
<trkpt lat="46.762190000" lon="-72.835010000">
<ele>0</ele>
<time>2026-09-04T06:34:52Z</time>
</trkpt>
<trkpt lat="46.762540000" lon="-72.834960000">
<ele>0</ele>
<time>2026-09-04T06:34:53Z</time>
</trkpt>
<trkpt lat="46.762720000" lon="-72.834970000">
<ele>0</ele>
<time>2026-09-04T06:34:54Z</time>
</trkpt>
<trkpt lat="46.762950000" lon="-72.834990000">
<ele>0</ele>
<time>2026-09-04T06:34:55Z</time>
</trkpt>
<trkpt lat="46.763200000" lon="-72.835080000">
<ele>0</ele>
<time>2026-09-04T06:34:56Z</time>
</trkpt>
<trkpt lat="46.763570000" lon="-72.835340000">
<ele>0</ele>
<time>2026-09-04T06:34:57Z</time>
</trkpt>
<trkpt lat="46.763910000" lon="-72.835540000">
<ele>0</ele>
<time>2026-09-04T06:34:58Z</time>
</trkpt>
<trkpt lat="46.764170000" lon="-72.835690000">
<ele>0</ele>
<time>2026-09-04T06:34:59Z</time>
</trkpt>
<trkpt lat="46.764420000" lon="-72.835780000">
<ele>0</ele>
<time>2026-09-04T06:35:00Z</time>
</trkpt>
<trkpt lat="46.764950000" lon="-72.835930000">
<ele>0</ele>
<time>2026-09-04T06:35:01Z</time>
</trkpt>
<trkpt lat="46.765300000" lon="-72.836050000">
<ele>0</ele>
<time>2026-09-04T06:35:02Z</time>
</trkpt>
<trkpt lat="46.765620000" lon="-72.836270000">
<ele>0</ele>
<time>2026-09-04T06:35:03Z</time>
</trkpt>
<trkpt lat="46.765830000" lon="-72.836450000">
<ele>0</ele>
<time>2026-09-04T06:35:04Z</time>
</trkpt>
<trkpt lat="46.766100000" lon="-72.836630000">
<ele>0</ele>
<time>2026-09-04T06:35:05Z</time>
</trkpt>
<trkpt lat="46.766160000" lon="-72.836680000">
<ele>0</ele>
<time>2026-09-04T06:35:06Z</time>
</trkpt>
<trkpt lat="46.766270000" lon="-72.836700000">
<ele>0</ele>
<time>2026-09-04T06:35:07Z</time>
</trkpt>
<trkpt lat="46.766450000" lon="-72.836750000">
<ele>0</ele>
<time>2026-09-04T06:35:08Z</time>
</trkpt>
<trkpt lat="46.766750000" lon="-72.836750000">
<ele>0</ele>
<time>2026-09-04T06:35:09Z</time>
</trkpt>
<trkpt lat="46.766980000" lon="-72.836660000">
<ele>0</ele>
<time>2026-09-04T06:35:10Z</time>
</trkpt>
<trkpt lat="46.767400000" lon="-72.836490000">
<ele>0</ele>
<time>2026-09-04T06:35:11Z</time>
</trkpt>
<trkpt lat="46.767740000" lon="-72.836410000">
<ele>0</ele>
<time>2026-09-04T06:35:12Z</time>
</trkpt>
<trkpt lat="46.767860000" lon="-72.836420000">
<ele>0</ele>
<time>2026-09-04T06:35:13Z</time>
</trkpt>
<trkpt lat="46.768060000" lon="-72.836430000">
<ele>0</ele>
<time>2026-09-04T06:35:14Z</time>
</trkpt>
<trkpt lat="46.768380000" lon="-72.836380000">
<ele>0</ele>
<time>2026-09-04T06:35:15Z</time>
</trkpt>
<trkpt lat="46.768680000" lon="-72.836230000">
<ele>0</ele>
<time>2026-09-04T06:35:16Z</time>
</trkpt>
<trkpt lat="46.769030000" lon="-72.835890000">
<ele>0</ele>
<time>2026-09-04T06:35:17Z</time>
</trkpt>
<trkpt lat="46.769240000" lon="-72.835680000">
<ele>0</ele>
<time>2026-09-04T06:35:18Z</time>
</trkpt>
<trkpt lat="46.769510000" lon="-72.835560000">
<ele>0</ele>
<time>2026-09-04T06:35:19Z</time>
</trkpt>
<trkpt lat="46.769920000" lon="-72.835510000">
<ele>0</ele>
<time>2026-09-04T06:35:20Z</time>
</trkpt>
<trkpt lat="46.770140000" lon="-72.835560000">
<ele>0</ele>
<time>2026-09-04T06:35:21Z</time>
</trkpt>
<trkpt lat="46.770400000" lon="-72.835670000">
<ele>0</ele>
<time>2026-09-04T06:35:22Z</time>
</trkpt>
<trkpt lat="46.770790000" lon="-72.835850000">
<ele>0</ele>
<time>2026-09-04T06:35:23Z</time>
</trkpt>
<trkpt lat="46.771070000" lon="-72.835970000">
<ele>0</ele>
<time>2026-09-04T06:35:24Z</time>
</trkpt>
<trkpt lat="46.771320000" lon="-72.836000000">
<ele>0</ele>
<time>2026-09-04T06:35:25Z</time>
</trkpt>
<trkpt lat="46.771670000" lon="-72.836040000">
<ele>0</ele>
<time>2026-09-04T06:35:26Z</time>
</trkpt>
<trkpt lat="46.772040000" lon="-72.836020000">
<ele>0</ele>
<time>2026-09-04T06:35:27Z</time>
</trkpt>
<trkpt lat="46.772320000" lon="-72.836010000">
<ele>0</ele>
<time>2026-09-04T06:35:28Z</time>
</trkpt>
<trkpt lat="46.772530000" lon="-72.836050000">
<ele>0</ele>
<time>2026-09-04T06:35:29Z</time>
</trkpt>
<trkpt lat="46.772740000" lon="-72.836170000">
<ele>0</ele>
<time>2026-09-04T06:35:30Z</time>
</trkpt>
<trkpt lat="46.772890000" lon="-72.836300000">
<ele>0</ele>
<time>2026-09-04T06:35:31Z</time>
</trkpt>
<trkpt lat="46.772980000" lon="-72.836400000">
<ele>0</ele>
<time>2026-09-04T06:35:32Z</time>
</trkpt>
<trkpt lat="46.772980000" lon="-72.836400000">
<ele>0</ele>
<time>2026-09-04T06:35:33Z</time>
</trkpt>
<trkpt lat="46.773110000" lon="-72.836550000">
<ele>0</ele>
<time>2026-09-04T06:35:34Z</time>
</trkpt>
<trkpt lat="46.773240000" lon="-72.836800000">
<ele>0</ele>
<time>2026-09-04T06:35:35Z</time>
</trkpt>
<trkpt lat="46.773350000" lon="-72.837020000">
<ele>0</ele>
<time>2026-09-04T06:35:36Z</time>
</trkpt>
<trkpt lat="46.773440000" lon="-72.837310000">
<ele>0</ele>
<time>2026-09-04T06:35:37Z</time>
</trkpt>
<trkpt lat="46.773530000" lon="-72.837820000">
<ele>0</ele>
<time>2026-09-04T06:35:38Z</time>
</trkpt>
<trkpt lat="46.773630000" lon="-72.838520000">
<ele>0</ele>
<time>2026-09-04T06:35:39Z</time>
</trkpt>
<trkpt lat="46.773850000" lon="-72.839870000">
<ele>0</ele>
<time>2026-09-04T06:35:40Z</time>
</trkpt>
<trkpt lat="46.774080000" lon="-72.841410000">
<ele>0</ele>
<time>2026-09-04T06:35:41Z</time>
</trkpt>
<trkpt lat="46.774190000" lon="-72.842180000">
<ele>0</ele>
<time>2026-09-04T06:35:42Z</time>
</trkpt>
<trkpt lat="46.774280000" lon="-72.842960000">
<ele>0</ele>
<time>2026-09-04T06:35:43Z</time>
</trkpt>
<trkpt lat="46.774280000" lon="-72.843480000">
<ele>0</ele>
<time>2026-09-04T06:35:44Z</time>
</trkpt>
<trkpt lat="46.774250000" lon="-72.844130000">
<ele>0</ele>
<time>2026-09-04T06:35:45Z</time>
</trkpt>
<trkpt lat="46.774130000" lon="-72.844770000">
<ele>0</ele>
<time>2026-09-04T06:35:46Z</time>
</trkpt>
<trkpt lat="46.774000000" lon="-72.845260000">
<ele>0</ele>
<time>2026-09-04T06:35:47Z</time>
</trkpt>
<trkpt lat="46.773640000" lon="-72.846740000">
<ele>0</ele>
<time>2026-09-04T06:35:48Z</time>
</trkpt>
<trkpt lat="46.773510000" lon="-72.847270000">
<ele>0</ele>
<time>2026-09-04T06:35:49Z</time>
</trkpt>
<trkpt lat="46.773370000" lon="-72.847720000">
<ele>0</ele>
<time>2026-09-04T06:35:50Z</time>
</trkpt>
<trkpt lat="46.773250000" lon="-72.848020000">
<ele>0</ele>
<time>2026-09-04T06:35:51Z</time>
</trkpt>
<trkpt lat="46.773060000" lon="-72.848260000">
<ele>0</ele>
<time>2026-09-04T06:35:52Z</time>
</trkpt>
<trkpt lat="46.772880000" lon="-72.848450000">
<ele>0</ele>
<time>2026-09-04T06:35:53Z</time>
</trkpt>
<trkpt lat="46.772440000" lon="-72.848930000">
<ele>0</ele>
<time>2026-09-04T06:35:54Z</time>
</trkpt>
<trkpt lat="46.772250000" lon="-72.849200000">
<ele>0</ele>
<time>2026-09-04T06:35:55Z</time>
</trkpt>
<trkpt lat="46.772200000" lon="-72.849310000">
<ele>0</ele>
<time>2026-09-04T06:35:56Z</time>
</trkpt>
<trkpt lat="46.772120000" lon="-72.849540000">
<ele>0</ele>
<time>2026-09-04T06:35:57Z</time>
</trkpt>
<trkpt lat="46.772050000" lon="-72.849790000">
<ele>0</ele>
<time>2026-09-04T06:35:58Z</time>
</trkpt>
<trkpt lat="46.772010000" lon="-72.850050000">
<ele>0</ele>
<time>2026-09-04T06:35:59Z</time>
</trkpt>
<trkpt lat="46.772000000" lon="-72.850400000">
<ele>0</ele>
<time>2026-09-04T06:36:00Z</time>
</trkpt>
<trkpt lat="46.772030000" lon="-72.850830000">
<ele>0</ele>
<time>2026-09-04T06:36:01Z</time>
</trkpt>
<trkpt lat="46.772070000" lon="-72.851090000">
<ele>0</ele>
<time>2026-09-04T06:36:02Z</time>
</trkpt>
<trkpt lat="46.772140000" lon="-72.851270000">
<ele>0</ele>
<time>2026-09-04T06:36:03Z</time>
</trkpt>
<trkpt lat="46.772140000" lon="-72.851270000">
<ele>0</ele>
<time>2026-09-04T06:36:04Z</time>
</trkpt>
<trkpt lat="46.772370000" lon="-72.851730000">
<ele>0</ele>
<time>2026-09-04T06:36:05Z</time>
</trkpt>
<trkpt lat="46.772650000" lon="-72.852050000">
<ele>0</ele>
<time>2026-09-04T06:36:06Z</time>
</trkpt>
<trkpt lat="46.772930000" lon="-72.852300000">
<ele>0</ele>
<time>2026-09-04T06:36:07Z</time>
</trkpt>
<trkpt lat="46.773440000" lon="-72.852690000">
<ele>0</ele>
<time>2026-09-04T06:36:08Z</time>
</trkpt>
<trkpt lat="46.773760000" lon="-72.853030000">
<ele>0</ele>
<time>2026-09-04T06:36:09Z</time>
</trkpt>
<trkpt lat="46.773950000" lon="-72.853410000">
<ele>0</ele>
<time>2026-09-04T06:36:10Z</time>
</trkpt>
<trkpt lat="46.774040000" lon="-72.853660000">
<ele>0</ele>
<time>2026-09-04T06:36:11Z</time>
</trkpt>
<trkpt lat="46.774190000" lon="-72.854400000">
<ele>0</ele>
<time>2026-09-04T06:36:12Z</time>
</trkpt>
<trkpt lat="46.774350000" lon="-72.855500000">
<ele>0</ele>
<time>2026-09-04T06:36:13Z</time>
</trkpt>
<trkpt lat="46.774530000" lon="-72.856160000">
<ele>0</ele>
<time>2026-09-04T06:36:14Z</time>
</trkpt>
<trkpt lat="46.774610000" lon="-72.856420000">
<ele>0</ele>
<time>2026-09-04T06:36:15Z</time>
</trkpt>
<trkpt lat="46.774830000" lon="-72.856950000">
<ele>0</ele>
<time>2026-09-04T06:36:16Z</time>
</trkpt>
<trkpt lat="46.775220000" lon="-72.857690000">
<ele>0</ele>
<time>2026-09-04T06:36:17Z</time>
</trkpt>
<trkpt lat="46.775390000" lon="-72.858040000">
<ele>0</ele>
<time>2026-09-04T06:36:18Z</time>
</trkpt>
<trkpt lat="46.775490000" lon="-72.858360000">
<ele>0</ele>
<time>2026-09-04T06:36:19Z</time>
</trkpt>
<trkpt lat="46.775550000" lon="-72.858610000">
<ele>0</ele>
<time>2026-09-04T06:36:20Z</time>
</trkpt>
<trkpt lat="46.775580000" lon="-72.858870000">
<ele>0</ele>
<time>2026-09-04T06:36:21Z</time>
</trkpt>
<trkpt lat="46.775580000" lon="-72.859150000">
<ele>0</ele>
<time>2026-09-04T06:36:22Z</time>
</trkpt>
<trkpt lat="46.775560000" lon="-72.859390000">
<ele>0</ele>
<time>2026-09-04T06:36:23Z</time>
</trkpt>
<trkpt lat="46.775500000" lon="-72.859640000">
<ele>0</ele>
<time>2026-09-04T06:36:24Z</time>
</trkpt>
<trkpt lat="46.775390000" lon="-72.859990000">
<ele>0</ele>
<time>2026-09-04T06:36:25Z</time>
</trkpt>
<trkpt lat="46.775270000" lon="-72.860350000">
<ele>0</ele>
<time>2026-09-04T06:36:26Z</time>
</trkpt>
<trkpt lat="46.775210000" lon="-72.860600000">
<ele>0</ele>
<time>2026-09-04T06:36:27Z</time>
</trkpt>
<trkpt lat="46.775170000" lon="-72.860900000">
<ele>0</ele>
<time>2026-09-04T06:36:28Z</time>
</trkpt>
<trkpt lat="46.775170000" lon="-72.861310000">
<ele>0</ele>
<time>2026-09-04T06:36:29Z</time>
</trkpt>
<trkpt lat="46.775220000" lon="-72.861650000">
<ele>0</ele>
<time>2026-09-04T06:36:30Z</time>
</trkpt>
<trkpt lat="46.775350000" lon="-72.862130000">
<ele>0</ele>
<time>2026-09-04T06:36:31Z</time>
</trkpt>
<trkpt lat="46.775460000" lon="-72.862510000">
<ele>0</ele>
<time>2026-09-04T06:36:32Z</time>
</trkpt>
<trkpt lat="46.775500000" lon="-72.862880000">
<ele>0</ele>
<time>2026-09-04T06:36:33Z</time>
</trkpt>
<trkpt lat="46.775490000" lon="-72.863220000">
<ele>0</ele>
<time>2026-09-04T06:36:34Z</time>
</trkpt>
<trkpt lat="46.775420000" lon="-72.863630000">
<ele>0</ele>
<time>2026-09-04T06:36:35Z</time>
</trkpt>
<trkpt lat="46.775370000" lon="-72.863750000">
<ele>0</ele>
<time>2026-09-04T06:36:36Z</time>
</trkpt>
<trkpt lat="46.775370000" lon="-72.863750000">
<ele>0</ele>
<time>2026-09-04T06:36:37Z</time>
</trkpt>
<trkpt lat="46.775250000" lon="-72.864060000">
<ele>0</ele>
<time>2026-09-04T06:36:38Z</time>
</trkpt>
<trkpt lat="46.775100000" lon="-72.864290000">
<ele>0</ele>
<time>2026-09-04T06:36:39Z</time>
</trkpt>
<trkpt lat="46.774960000" lon="-72.864440000">
<ele>0</ele>
<time>2026-09-04T06:36:40Z</time>
</trkpt>
<trkpt lat="46.774780000" lon="-72.864600000">
<ele>0</ele>
<time>2026-09-04T06:36:41Z</time>
</trkpt>
<trkpt lat="46.774530000" lon="-72.864730000">
<ele>0</ele>
<time>2026-09-04T06:36:42Z</time>
</trkpt>
<trkpt lat="46.774350000" lon="-72.864760000">
<ele>0</ele>
<time>2026-09-04T06:36:43Z</time>
</trkpt>
<trkpt lat="46.773750000" lon="-72.864730000">
<ele>0</ele>
<time>2026-09-04T06:36:44Z</time>
</trkpt>
<trkpt lat="46.773570000" lon="-72.864740000">
<ele>0</ele>
<time>2026-09-04T06:36:45Z</time>
</trkpt>
<trkpt lat="46.773300000" lon="-72.864850000">
<ele>0</ele>
<time>2026-09-04T06:36:46Z</time>
</trkpt>
<trkpt lat="46.773070000" lon="-72.865030000">
<ele>0</ele>
<time>2026-09-04T06:36:47Z</time>
</trkpt>
<trkpt lat="46.772920000" lon="-72.865180000">
<ele>0</ele>
<time>2026-09-04T06:36:48Z</time>
</trkpt>
<trkpt lat="46.772800000" lon="-72.865370000">
<ele>0</ele>
<time>2026-09-04T06:36:49Z</time>
</trkpt>
<trkpt lat="46.772690000" lon="-72.865580000">
<ele>0</ele>
<time>2026-09-04T06:36:50Z</time>
</trkpt>
<trkpt lat="46.772590000" lon="-72.865800000">
<ele>0</ele>
<time>2026-09-04T06:36:51Z</time>
</trkpt>
<trkpt lat="46.772530000" lon="-72.866020000">
<ele>0</ele>
<time>2026-09-04T06:36:52Z</time>
</trkpt>
<trkpt lat="46.772500000" lon="-72.866570000">
<ele>0</ele>
<time>2026-09-04T06:36:53Z</time>
</trkpt>
<trkpt lat="46.772500000" lon="-72.866830000">
<ele>0</ele>
<time>2026-09-04T06:36:54Z</time>
</trkpt>
<trkpt lat="46.772550000" lon="-72.867340000">
<ele>0</ele>
<time>2026-09-04T06:36:55Z</time>
</trkpt>
<trkpt lat="46.772560000" lon="-72.867610000">
<ele>0</ele>
<time>2026-09-04T06:36:56Z</time>
</trkpt>
<trkpt lat="46.772560000" lon="-72.867870000">
<ele>0</ele>
<time>2026-09-04T06:36:57Z</time>
</trkpt>
<trkpt lat="46.772520000" lon="-72.868170000">
<ele>0</ele>
<time>2026-09-04T06:36:58Z</time>
</trkpt>
<trkpt lat="46.772400000" lon="-72.868580000">
<ele>0</ele>
<time>2026-09-04T06:36:59Z</time>
</trkpt>
<trkpt lat="46.772280000" lon="-72.868830000">
<ele>0</ele>
<time>2026-09-04T06:37:00Z</time>
</trkpt>
<trkpt lat="46.772160000" lon="-72.869020000">
<ele>0</ele>
<time>2026-09-04T06:37:01Z</time>
</trkpt>
<trkpt lat="46.772050000" lon="-72.869180000">
<ele>0</ele>
<time>2026-09-04T06:37:02Z</time>
</trkpt>
<trkpt lat="46.771870000" lon="-72.869330000">
<ele>0</ele>
<time>2026-09-04T06:37:03Z</time>
</trkpt>
<trkpt lat="46.771710000" lon="-72.869450000">
<ele>0</ele>
<time>2026-09-04T06:37:04Z</time>
</trkpt>
<trkpt lat="46.771310000" lon="-72.869700000">
<ele>0</ele>
<time>2026-09-04T06:37:05Z</time>
</trkpt>
<trkpt lat="46.771000000" lon="-72.869880000">
<ele>0</ele>
<time>2026-09-04T06:37:06Z</time>
</trkpt>
<trkpt lat="46.770740000" lon="-72.870080000">
<ele>0</ele>
<time>2026-09-04T06:37:07Z</time>
</trkpt>
<trkpt lat="46.770520000" lon="-72.870400000">
<ele>0</ele>
<time>2026-09-04T06:37:08Z</time>
</trkpt>
<trkpt lat="46.770350000" lon="-72.870730000">
<ele>0</ele>
<time>2026-09-04T06:37:09Z</time>
</trkpt>
<trkpt lat="46.770180000" lon="-72.871260000">
<ele>0</ele>
<time>2026-09-04T06:37:10Z</time>
</trkpt>
<trkpt lat="46.770040000" lon="-72.871780000">
<ele>0</ele>
<time>2026-09-04T06:37:11Z</time>
</trkpt>
<trkpt lat="46.769790000" lon="-72.872210000">
<ele>0</ele>
<time>2026-09-04T06:37:12Z</time>
</trkpt>
<trkpt lat="46.769520000" lon="-72.872560000">
<ele>0</ele>
<time>2026-09-04T06:37:13Z</time>
</trkpt>
<trkpt lat="46.769520000" lon="-72.872560000">
<ele>0</ele>
<time>2026-09-04T06:37:14Z</time>
</trkpt>
<trkpt lat="46.769230000" lon="-72.872860000">
<ele>0</ele>
<time>2026-09-04T06:37:15Z</time>
</trkpt>
<trkpt lat="46.768870000" lon="-72.873270000">
<ele>0</ele>
<time>2026-09-04T06:37:16Z</time>
</trkpt>
<trkpt lat="46.768710000" lon="-72.873520000">
<ele>0</ele>
<time>2026-09-04T06:37:17Z</time>
</trkpt>
<trkpt lat="46.768600000" lon="-72.873770000">
<ele>0</ele>
<time>2026-09-04T06:37:18Z</time>
</trkpt>
<trkpt lat="46.768440000" lon="-72.874240000">
<ele>0</ele>
<time>2026-09-04T06:37:19Z</time>
</trkpt>
<trkpt lat="46.768390000" lon="-72.874500000">
<ele>0</ele>
<time>2026-09-04T06:37:20Z</time>
</trkpt>
<trkpt lat="46.768340000" lon="-72.874880000">
<ele>0</ele>
<time>2026-09-04T06:37:21Z</time>
</trkpt>
<trkpt lat="46.768360000" lon="-72.875280000">
<ele>0</ele>
<time>2026-09-04T06:37:22Z</time>
</trkpt>
<trkpt lat="46.768400000" lon="-72.875530000">
<ele>0</ele>
<time>2026-09-04T06:37:23Z</time>
</trkpt>
<trkpt lat="46.768460000" lon="-72.875770000">
<ele>0</ele>
<time>2026-09-04T06:37:24Z</time>
</trkpt>
<trkpt lat="46.768540000" lon="-72.876010000">
<ele>0</ele>
<time>2026-09-04T06:37:25Z</time>
</trkpt>
<trkpt lat="46.768640000" lon="-72.876230000">
<ele>0</ele>
<time>2026-09-04T06:37:26Z</time>
</trkpt>
<trkpt lat="46.768760000" lon="-72.876470000">
<ele>0</ele>
<time>2026-09-04T06:37:27Z</time>
</trkpt>
<trkpt lat="46.769060000" lon="-72.876840000">
<ele>0</ele>
<time>2026-09-04T06:37:28Z</time>
</trkpt>
<trkpt lat="46.769590000" lon="-72.877260000">
<ele>0</ele>
<time>2026-09-04T06:37:29Z</time>
</trkpt>
<trkpt lat="46.769950000" lon="-72.877520000">
<ele>0</ele>
<time>2026-09-04T06:37:30Z</time>
</trkpt>
<trkpt lat="46.770120000" lon="-72.877660000">
<ele>0</ele>
<time>2026-09-04T06:37:31Z</time>
</trkpt>
<trkpt lat="46.770460000" lon="-72.878020000">
<ele>0</ele>
<time>2026-09-04T06:37:32Z</time>
</trkpt>
<trkpt lat="46.770750000" lon="-72.878580000">
<ele>0</ele>
<time>2026-09-04T06:37:33Z</time>
</trkpt>
<trkpt lat="46.771070000" lon="-72.879870000">
<ele>0</ele>
<time>2026-09-04T06:37:34Z</time>
</trkpt>
<trkpt lat="46.771250000" lon="-72.880290000">
<ele>0</ele>
<time>2026-09-04T06:37:35Z</time>
</trkpt>
<trkpt lat="46.771410000" lon="-72.880510000">
<ele>0</ele>
<time>2026-09-04T06:37:36Z</time>
</trkpt>
<trkpt lat="46.771510000" lon="-72.880600000">
<ele>0</ele>
<time>2026-09-04T06:37:37Z</time>
</trkpt>
<trkpt lat="46.771640000" lon="-72.880730000">
<ele>0</ele>
<time>2026-09-04T06:37:38Z</time>
</trkpt>
<trkpt lat="46.771880000" lon="-72.880860000">
<ele>0</ele>
<time>2026-09-04T06:37:39Z</time>
</trkpt>
<trkpt lat="46.772130000" lon="-72.880920000">
<ele>0</ele>
<time>2026-09-04T06:37:40Z</time>
</trkpt>
<trkpt lat="46.772540000" lon="-72.880890000">
<ele>0</ele>
<time>2026-09-04T06:37:41Z</time>
</trkpt>
<trkpt lat="46.772800000" lon="-72.880840000">
<ele>0</ele>
<time>2026-09-04T06:37:42Z</time>
</trkpt>
<trkpt lat="46.773080000" lon="-72.880850000">
<ele>0</ele>
<time>2026-09-04T06:37:43Z</time>
</trkpt>
<trkpt lat="46.773260000" lon="-72.880880000">
<ele>0</ele>
<time>2026-09-04T06:37:44Z</time>
</trkpt>
<trkpt lat="46.773430000" lon="-72.880950000">
<ele>0</ele>
<time>2026-09-04T06:37:45Z</time>
</trkpt>
<trkpt lat="46.773650000" lon="-72.881110000">
<ele>0</ele>
<time>2026-09-04T06:37:46Z</time>
</trkpt>
<trkpt lat="46.773900000" lon="-72.881390000">
<ele>0</ele>
<time>2026-09-04T06:37:47Z</time>
</trkpt>
<trkpt lat="46.774090000" lon="-72.881760000">
<ele>0</ele>
<time>2026-09-04T06:37:48Z</time>
</trkpt>
<trkpt lat="46.774190000" lon="-72.882010000">
<ele>0</ele>
<time>2026-09-04T06:37:49Z</time>
</trkpt>
<trkpt lat="46.774230000" lon="-72.882270000">
<ele>0</ele>
<time>2026-09-04T06:37:50Z</time>
</trkpt>
<trkpt lat="46.774260000" lon="-72.882820000">
<ele>0</ele>
<time>2026-09-04T06:37:51Z</time>
</trkpt>
<trkpt lat="46.774220000" lon="-72.883840000">
<ele>0</ele>
<time>2026-09-04T06:37:52Z</time>
</trkpt>
<trkpt lat="46.774200000" lon="-72.884630000">
<ele>0</ele>
<time>2026-09-04T06:37:53Z</time>
</trkpt>
<trkpt lat="46.774190000" lon="-72.885410000">
<ele>0</ele>
<time>2026-09-04T06:37:54Z</time>
</trkpt>
<trkpt lat="46.774190000" lon="-72.885940000">
<ele>0</ele>
<time>2026-09-04T06:37:55Z</time>
</trkpt>
<trkpt lat="46.774200000" lon="-72.886200000">
<ele>0</ele>
<time>2026-09-04T06:37:56Z</time>
</trkpt>
<trkpt lat="46.774270000" lon="-72.886600000">
<ele>0</ele>
<time>2026-09-04T06:37:57Z</time>
</trkpt>
<trkpt lat="46.774380000" lon="-72.886940000">
<ele>0</ele>
<time>2026-09-04T06:37:58Z</time>
</trkpt>
<trkpt lat="46.774510000" lon="-72.887240000">
<ele>0</ele>
<time>2026-09-04T06:37:59Z</time>
</trkpt>
<trkpt lat="46.774650000" lon="-72.887420000">
<ele>0</ele>
<time>2026-09-04T06:38:00Z</time>
</trkpt>
<trkpt lat="46.774650000" lon="-72.887420000">
<ele>0</ele>
<time>2026-09-04T06:38:01Z</time>
</trkpt>
<trkpt lat="46.775130000" lon="-72.888030000">
<ele>0</ele>
<time>2026-09-04T06:38:02Z</time>
</trkpt>
<trkpt lat="46.775510000" lon="-72.888660000">
<ele>0</ele>
<time>2026-09-04T06:38:03Z</time>
</trkpt>
<trkpt lat="46.775680000" lon="-72.889110000">
<ele>0</ele>
<time>2026-09-04T06:38:04Z</time>
</trkpt>
<trkpt lat="46.775730000" lon="-72.889380000">
<ele>0</ele>
<time>2026-09-04T06:38:05Z</time>
</trkpt>
<trkpt lat="46.775760000" lon="-72.889630000">
<ele>0</ele>
<time>2026-09-04T06:38:06Z</time>
</trkpt>
<trkpt lat="46.775780000" lon="-72.889890000">
<ele>0</ele>
<time>2026-09-04T06:38:07Z</time>
</trkpt>
<trkpt lat="46.775780000" lon="-72.890310000">
<ele>0</ele>
<time>2026-09-04T06:38:08Z</time>
</trkpt>
<trkpt lat="46.775730000" lon="-72.890680000">
<ele>0</ele>
<time>2026-09-04T06:38:09Z</time>
</trkpt>
<trkpt lat="46.775680000" lon="-72.890930000">
<ele>0</ele>
<time>2026-09-04T06:38:10Z</time>
</trkpt>
<trkpt lat="46.775590000" lon="-72.891280000">
<ele>0</ele>
<time>2026-09-04T06:38:11Z</time>
</trkpt>
<trkpt lat="46.775370000" lon="-72.891870000">
<ele>0</ele>
<time>2026-09-04T06:38:12Z</time>
</trkpt>
<trkpt lat="46.775220000" lon="-72.892350000">
<ele>0</ele>
<time>2026-09-04T06:38:13Z</time>
</trkpt>
<trkpt lat="46.775120000" lon="-72.892850000">
<ele>0</ele>
<time>2026-09-04T06:38:14Z</time>
</trkpt>
<trkpt lat="46.774970000" lon="-72.893640000">
<ele>0</ele>
<time>2026-09-04T06:38:15Z</time>
</trkpt>
<trkpt lat="46.774790000" lon="-72.894630000">
<ele>0</ele>
<time>2026-09-04T06:38:16Z</time>
</trkpt>
<trkpt lat="46.774610000" lon="-72.895370000">
<ele>0</ele>
<time>2026-09-04T06:38:17Z</time>
</trkpt>
<trkpt lat="46.774350000" lon="-72.896000000">
<ele>0</ele>
<time>2026-09-04T06:38:18Z</time>
</trkpt>
<trkpt lat="46.774070000" lon="-72.896450000">
<ele>0</ele>
<time>2026-09-04T06:38:19Z</time>
</trkpt>
<trkpt lat="46.773830000" lon="-72.896790000">
<ele>0</ele>
<time>2026-09-04T06:38:20Z</time>
</trkpt>
<trkpt lat="46.773300000" lon="-72.897510000">
<ele>0</ele>
<time>2026-09-04T06:38:21Z</time>
</trkpt>
<trkpt lat="46.773040000" lon="-72.897870000">
<ele>0</ele>
<time>2026-09-04T06:38:22Z</time>
</trkpt>
<trkpt lat="46.772680000" lon="-72.898410000">
<ele>0</ele>
<time>2026-09-04T06:38:23Z</time>
</trkpt>
<trkpt lat="46.772400000" lon="-72.899130000">
<ele>0</ele>
<time>2026-09-04T06:38:24Z</time>
</trkpt>
<trkpt lat="46.772310000" lon="-72.899420000">
<ele>0</ele>
<time>2026-09-04T06:38:25Z</time>
</trkpt>
<trkpt lat="46.772200000" lon="-72.900030000">
<ele>0</ele>
<time>2026-09-04T06:38:26Z</time>
</trkpt>
<trkpt lat="46.772180000" lon="-72.900390000">
<ele>0</ele>
<time>2026-09-04T06:38:27Z</time>
</trkpt>
<trkpt lat="46.772180000" lon="-72.900910000">
<ele>0</ele>
<time>2026-09-04T06:38:28Z</time>
</trkpt>
<trkpt lat="46.772230000" lon="-72.901430000">
<ele>0</ele>
<time>2026-09-04T06:38:29Z</time>
</trkpt>
<trkpt lat="46.772260000" lon="-72.901690000">
<ele>0</ele>
<time>2026-09-04T06:38:30Z</time>
</trkpt>
<trkpt lat="46.772370000" lon="-72.902190000">
<ele>0</ele>
<time>2026-09-04T06:38:31Z</time>
</trkpt>
<trkpt lat="46.772460000" lon="-72.902590000">
<ele>0</ele>
<time>2026-09-04T06:38:32Z</time>
</trkpt>
<trkpt lat="46.772510000" lon="-72.902950000">
<ele>0</ele>
<time>2026-09-04T06:38:33Z</time>
</trkpt>
<trkpt lat="46.772600000" lon="-72.903730000">
<ele>0</ele>
<time>2026-09-04T06:38:34Z</time>
</trkpt>
<trkpt lat="46.772680000" lon="-72.904410000">
<ele>0</ele>
<time>2026-09-04T06:38:35Z</time>
</trkpt>
<trkpt lat="46.772840000" lon="-72.904980000">
<ele>0</ele>
<time>2026-09-04T06:38:36Z</time>
</trkpt>
<trkpt lat="46.773150000" lon="-72.905940000">
<ele>0</ele>
<time>2026-09-04T06:38:37Z</time>
</trkpt>
<trkpt lat="46.773330000" lon="-72.906710000">
<ele>0</ele>
<time>2026-09-04T06:38:38Z</time>
</trkpt>
<trkpt lat="46.773350000" lon="-72.906970000">
<ele>0</ele>
<time>2026-09-04T06:38:39Z</time>
</trkpt>
<trkpt lat="46.773340000" lon="-72.907300000">
<ele>0</ele>
<time>2026-09-04T06:38:40Z</time>
</trkpt>
<trkpt lat="46.773300000" lon="-72.907620000">
<ele>0</ele>
<time>2026-09-04T06:38:41Z</time>
</trkpt>
<trkpt lat="46.773160000" lon="-72.908010000">
<ele>0</ele>
<time>2026-09-04T06:38:42Z</time>
</trkpt>
<trkpt lat="46.772850000" lon="-72.908540000">
<ele>0</ele>
<time>2026-09-04T06:38:43Z</time>
</trkpt>
<trkpt lat="46.772600000" lon="-72.908940000">
<ele>0</ele>
<time>2026-09-04T06:38:44Z</time>
</trkpt>
<trkpt lat="46.772500000" lon="-72.909150000">
<ele>0</ele>
<time>2026-09-04T06:38:45Z</time>
</trkpt>
<trkpt lat="46.772370000" lon="-72.909420000">
<ele>0</ele>
<time>2026-09-04T06:38:46Z</time>
</trkpt>
<trkpt lat="46.772240000" lon="-72.909830000">
<ele>0</ele>
<time>2026-09-04T06:38:47Z</time>
</trkpt>
<trkpt lat="46.772100000" lon="-72.910330000">
<ele>0</ele>
<time>2026-09-04T06:38:49Z</time>
</trkpt>
<trkpt lat="46.771870000" lon="-72.911030000">
<ele>0</ele>
<time>2026-09-04T06:38:50Z</time>
</trkpt>
<trkpt lat="46.771700000" lon="-72.911460000">
<ele>0</ele>
<time>2026-09-04T06:38:51Z</time>
</trkpt>
<trkpt lat="46.771570000" lon="-72.911690000">
<ele>0</ele>
<time>2026-09-04T06:38:52Z</time>
</trkpt>
<trkpt lat="46.771250000" lon="-72.912320000">
<ele>0</ele>
<time>2026-09-04T06:38:53Z</time>
</trkpt>
<trkpt lat="46.771130000" lon="-72.912560000">
<ele>0</ele>
<time>2026-09-04T06:38:54Z</time>
</trkpt>
<trkpt lat="46.770980000" lon="-72.913010000">
<ele>0</ele>
<time>2026-09-04T06:38:55Z</time>
</trkpt>
<trkpt lat="46.770940000" lon="-72.913260000">
<ele>0</ele>
<time>2026-09-04T06:38:56Z</time>
</trkpt>
<trkpt lat="46.770930000" lon="-72.913730000">
<ele>0</ele>
<time>2026-09-04T06:38:57Z</time>
</trkpt>
<trkpt lat="46.770950000" lon="-72.914310000">
<ele>0</ele>
<time>2026-09-04T06:38:58Z</time>
</trkpt>
<trkpt lat="46.770980000" lon="-72.914570000">
<ele>0</ele>
<time>2026-09-04T06:38:59Z</time>
</trkpt>
<trkpt lat="46.771070000" lon="-72.914890000">
<ele>0</ele>
<time>2026-09-04T06:39:00Z</time>
</trkpt>
<trkpt lat="46.771120000" lon="-72.915100000">
<ele>0</ele>
<time>2026-09-04T06:39:01Z</time>
</trkpt>
<trkpt lat="46.771190000" lon="-72.915290000">
<ele>0</ele>
<time>2026-09-04T06:39:02Z</time>
</trkpt>
<trkpt lat="46.771550000" lon="-72.915870000">
<ele>0</ele>
<time>2026-09-04T06:39:03Z</time>
</trkpt>
<trkpt lat="46.771690000" lon="-72.916040000">
<ele>0</ele>
<time>2026-09-04T06:39:04Z</time>
</trkpt>
<trkpt lat="46.771930000" lon="-72.916310000">
<ele>0</ele>
<time>2026-09-04T06:39:05Z</time>
</trkpt>
<trkpt lat="46.772280000" lon="-72.916680000">
<ele>0</ele>
<time>2026-09-04T06:39:06Z</time>
</trkpt>
<trkpt lat="46.772550000" lon="-72.917170000">
<ele>0</ele>
<time>2026-09-04T06:39:07Z</time>
</trkpt>
<trkpt lat="46.772660000" lon="-72.917680000">
<ele>0</ele>
<time>2026-09-04T06:39:08Z</time>
</trkpt>
<trkpt lat="46.772660000" lon="-72.918330000">
<ele>0</ele>
<time>2026-09-04T06:39:09Z</time>
</trkpt>
<trkpt lat="46.772640000" lon="-72.918490000">
<ele>0</ele>
<time>2026-09-04T06:39:10Z</time>
</trkpt>
<trkpt lat="46.772640000" lon="-72.918490000">
<ele>0</ele>
<time>2026-09-04T06:39:11Z</time>
</trkpt>
<trkpt lat="46.772370000" lon="-72.920270000">
<ele>0</ele>
<time>2026-09-04T06:39:12Z</time>
</trkpt>
<trkpt lat="46.772400000" lon="-72.921210000">
<ele>0</ele>
<time>2026-09-04T06:39:13Z</time>
</trkpt>
<trkpt lat="46.772510000" lon="-72.921620000">
<ele>0</ele>
<time>2026-09-04T06:39:14Z</time>
</trkpt>
<trkpt lat="46.772590000" lon="-72.921860000">
<ele>0</ele>
<time>2026-09-04T06:39:15Z</time>
</trkpt>
<trkpt lat="46.772910000" lon="-72.922500000">
<ele>0</ele>
<time>2026-09-04T06:39:16Z</time>
</trkpt>
<trkpt lat="46.773110000" lon="-72.922880000">
<ele>0</ele>
<time>2026-09-04T06:39:17Z</time>
</trkpt>
<trkpt lat="46.773270000" lon="-72.923240000">
<ele>0</ele>
<time>2026-09-04T06:39:18Z</time>
</trkpt>
<trkpt lat="46.773430000" lon="-72.923820000">
<ele>0</ele>
<time>2026-09-04T06:39:19Z</time>
</trkpt>
<trkpt lat="46.773490000" lon="-72.924130000">
<ele>0</ele>
<time>2026-09-04T06:39:20Z</time>
</trkpt>
<trkpt lat="46.773500000" lon="-72.924590000">
<ele>0</ele>
<time>2026-09-04T06:39:21Z</time>
</trkpt>
<trkpt lat="46.773500000" lon="-72.925380000">
<ele>0</ele>
<time>2026-09-04T06:39:22Z</time>
</trkpt>
<trkpt lat="46.773470000" lon="-72.926170000">
<ele>0</ele>
<time>2026-09-04T06:39:23Z</time>
</trkpt>
<trkpt lat="46.773430000" lon="-72.926950000">
<ele>0</ele>
<time>2026-09-04T06:39:24Z</time>
</trkpt>
<trkpt lat="46.773400000" lon="-72.927210000">
<ele>0</ele>
<time>2026-09-04T06:39:25Z</time>
</trkpt>
<trkpt lat="46.773330000" lon="-72.927450000">
<ele>0</ele>
<time>2026-09-04T06:39:26Z</time>
</trkpt>
<trkpt lat="46.773120000" lon="-72.927880000">
<ele>0</ele>
<time>2026-09-04T06:39:27Z</time>
</trkpt>
<trkpt lat="46.772990000" lon="-72.928060000">
<ele>0</ele>
<time>2026-09-04T06:39:28Z</time>
</trkpt>
<trkpt lat="46.772850000" lon="-72.928210000">
<ele>0</ele>
<time>2026-09-04T06:39:29Z</time>
</trkpt>
<trkpt lat="46.772640000" lon="-72.928370000">
<ele>0</ele>
<time>2026-09-04T06:39:30Z</time>
</trkpt>
<trkpt lat="46.772350000" lon="-72.928500000">
<ele>0</ele>
<time>2026-09-04T06:39:31Z</time>
</trkpt>
<trkpt lat="46.771830000" lon="-72.928740000">
<ele>0</ele>
<time>2026-09-04T06:39:32Z</time>
</trkpt>
<trkpt lat="46.771680000" lon="-72.928860000">
<ele>0</ele>
<time>2026-09-04T06:39:33Z</time>
</trkpt>
<trkpt lat="46.771520000" lon="-72.929000000">
<ele>0</ele>
<time>2026-09-04T06:39:34Z</time>
</trkpt>
<trkpt lat="46.771280000" lon="-72.929380000">
<ele>0</ele>
<time>2026-09-04T06:39:35Z</time>
</trkpt>
<trkpt lat="46.771170000" lon="-72.929590000">
<ele>0</ele>
<time>2026-09-04T06:39:36Z</time>
</trkpt>
<trkpt lat="46.770760000" lon="-72.930460000">
<ele>0</ele>
<time>2026-09-04T06:39:37Z</time>
</trkpt>
<trkpt lat="46.770470000" lon="-72.931120000">
<ele>0</ele>
<time>2026-09-04T06:39:38Z</time>
</trkpt>
<trkpt lat="46.770390000" lon="-72.931350000">
<ele>0</ele>
<time>2026-09-04T06:39:39Z</time>
</trkpt>
<trkpt lat="46.770270000" lon="-72.931840000">
<ele>0</ele>
<time>2026-09-04T06:39:40Z</time>
</trkpt>
<trkpt lat="46.770210000" lon="-72.932370000">
<ele>0</ele>
<time>2026-09-04T06:39:41Z</time>
</trkpt>
<trkpt lat="46.770220000" lon="-72.933340000">
<ele>0</ele>
<time>2026-09-04T06:39:42Z</time>
</trkpt>
<trkpt lat="46.770220000" lon="-72.933340000">
<ele>0</ele>
<time>2026-09-04T06:39:43Z</time>
</trkpt>
<trkpt lat="46.770220000" lon="-72.933940000">
<ele>0</ele>
<time>2026-09-04T06:39:44Z</time>
</trkpt>
<trkpt lat="46.770200000" lon="-72.934300000">
<ele>0</ele>
<time>2026-09-04T06:39:45Z</time>
</trkpt>
<trkpt lat="46.770140000" lon="-72.934720000">
<ele>0</ele>
<time>2026-09-04T06:39:46Z</time>
</trkpt>
<trkpt lat="46.770000000" lon="-72.935750000">
<ele>0</ele>
<time>2026-09-04T06:39:47Z</time>
</trkpt>
<trkpt lat="46.769900000" lon="-72.936520000">
<ele>0</ele>
<time>2026-09-04T06:39:48Z</time>
</trkpt>
<trkpt lat="46.769870000" lon="-72.937010000">
<ele>0</ele>
<time>2026-09-04T06:39:49Z</time>
</trkpt>
<trkpt lat="46.769900000" lon="-72.937300000">
<ele>0</ele>
<time>2026-09-04T06:39:50Z</time>
</trkpt>
<trkpt lat="46.770000000" lon="-72.937880000">
<ele>0</ele>
<time>2026-09-04T06:39:51Z</time>
</trkpt>
<trkpt lat="46.770280000" lon="-72.939120000">
<ele>0</ele>
<time>2026-09-04T06:39:52Z</time>
</trkpt>
<trkpt lat="46.770470000" lon="-72.940070000">
<ele>0</ele>
<time>2026-09-04T06:39:53Z</time>
</trkpt>
<trkpt lat="46.770650000" lon="-72.940630000">
<ele>0</ele>
<time>2026-09-04T06:39:54Z</time>
</trkpt>
<trkpt lat="46.770790000" lon="-72.941000000">
<ele>0</ele>
<time>2026-09-04T06:39:55Z</time>
</trkpt>
<trkpt lat="46.771020000" lon="-72.941410000">
<ele>0</ele>
<time>2026-09-04T06:39:56Z</time>
</trkpt>
<trkpt lat="46.771370000" lon="-72.942010000">
<ele>0</ele>
<time>2026-09-04T06:39:57Z</time>
</trkpt>
<trkpt lat="46.771890000" lon="-72.943080000">
<ele>0</ele>
<time>2026-09-04T06:39:58Z</time>
</trkpt>
<trkpt lat="46.772200000" lon="-72.943720000">
<ele>0</ele>
<time>2026-09-04T06:39:59Z</time>
</trkpt>
<trkpt lat="46.772550000" lon="-72.944320000">
<ele>0</ele>
<time>2026-09-04T06:40:00Z</time>
</trkpt>
<trkpt lat="46.773080000" lon="-72.945030000">
<ele>0</ele>
<time>2026-09-04T06:40:01Z</time>
</trkpt>
<trkpt lat="46.773220000" lon="-72.945200000">
<ele>0</ele>
<time>2026-09-04T06:40:02Z</time>
</trkpt>
<trkpt lat="46.773340000" lon="-72.945400000">
<ele>0</ele>
<time>2026-09-04T06:40:03Z</time>
</trkpt>
<trkpt lat="46.773390000" lon="-72.945550000">
<ele>0</ele>
<time>2026-09-04T06:40:04Z</time>
</trkpt>
<trkpt lat="46.773400000" lon="-72.945670000">
<ele>0</ele>
<time>2026-09-04T06:40:05Z</time>
</trkpt>
<trkpt lat="46.773420000" lon="-72.945920000">
<ele>0</ele>
<time>2026-09-04T06:40:06Z</time>
</trkpt>
<trkpt lat="46.773400000" lon="-72.946160000">
<ele>0</ele>
<time>2026-09-04T06:40:07Z</time>
</trkpt>
<trkpt lat="46.773350000" lon="-72.946370000">
<ele>0</ele>
<time>2026-09-04T06:40:08Z</time>
</trkpt>
<trkpt lat="46.773270000" lon="-72.946580000">
<ele>0</ele>
<time>2026-09-04T06:40:09Z</time>
</trkpt>
<trkpt lat="46.773170000" lon="-72.946740000">
<ele>0</ele>
<time>2026-09-04T06:40:10Z</time>
</trkpt>
<trkpt lat="46.773030000" lon="-72.946900000">
<ele>0</ele>
<time>2026-09-04T06:40:11Z</time>
</trkpt>
<trkpt lat="46.772800000" lon="-72.947060000">
<ele>0</ele>
<time>2026-09-04T06:40:12Z</time>
</trkpt>
<trkpt lat="46.772590000" lon="-72.947210000">
<ele>0</ele>
<time>2026-09-04T06:40:13Z</time>
</trkpt>
<trkpt lat="46.772320000" lon="-72.947440000">
<ele>0</ele>
<time>2026-09-04T06:40:14Z</time>
</trkpt>
<trkpt lat="46.771870000" lon="-72.947840000">
<ele>0</ele>
<time>2026-09-04T06:40:15Z</time>
</trkpt>
<trkpt lat="46.771590000" lon="-72.948180000">
<ele>0</ele>
<time>2026-09-04T06:40:16Z</time>
</trkpt>
<trkpt lat="46.771040000" lon="-72.948860000">
<ele>0</ele>
<time>2026-09-04T06:40:17Z</time>
</trkpt>
<trkpt lat="46.770630000" lon="-72.949370000">
<ele>0</ele>
<time>2026-09-04T06:40:18Z</time>
</trkpt>
<trkpt lat="46.769680000" lon="-72.950580000">
<ele>0</ele>
<time>2026-09-04T06:40:19Z</time>
</trkpt>
<trkpt lat="46.769140000" lon="-72.951280000">
<ele>0</ele>
<time>2026-09-04T06:40:20Z</time>
</trkpt>
<trkpt lat="46.768380000" lon="-72.952390000">
<ele>0</ele>
<time>2026-09-04T06:40:21Z</time>
</trkpt>
<trkpt lat="46.767880000" lon="-72.953150000">
<ele>0</ele>
<time>2026-09-04T06:40:22Z</time>
</trkpt>
<trkpt lat="46.767760000" lon="-72.953340000">
<ele>0</ele>
<time>2026-09-04T06:40:23Z</time>
</trkpt>
<trkpt lat="46.767320000" lon="-72.953970000">
<ele>0</ele>
<time>2026-09-04T06:40:24Z</time>
</trkpt>
<trkpt lat="46.767080000" lon="-72.954200000">
<ele>0</ele>
<time>2026-09-04T06:40:25Z</time>
</trkpt>
<trkpt lat="46.766690000" lon="-72.954570000">
<ele>0</ele>
<time>2026-09-04T06:40:26Z</time>
</trkpt>
<trkpt lat="46.766470000" lon="-72.954740000">
<ele>0</ele>
<time>2026-09-04T06:40:27Z</time>
</trkpt>
<trkpt lat="46.766190000" lon="-72.954950000">
<ele>0</ele>
<time>2026-09-04T06:40:28Z</time>
</trkpt>
<trkpt lat="46.765970000" lon="-72.955050000">
<ele>0</ele>
<time>2026-09-04T06:40:29Z</time>
</trkpt>
<trkpt lat="46.765610000" lon="-72.955230000">
<ele>0</ele>
<time>2026-09-04T06:40:30Z</time>
</trkpt>
<trkpt lat="46.765610000" lon="-72.955230000">
<ele>0</ele>
<time>2026-09-04T06:40:31Z</time>
</trkpt>
<trkpt lat="46.765110000" lon="-72.955440000">
<ele>0</ele>
<time>2026-09-04T06:40:32Z</time>
</trkpt>
<trkpt lat="46.764660000" lon="-72.955710000">
<ele>0</ele>
<time>2026-09-04T06:40:33Z</time>
</trkpt>
<trkpt lat="46.764210000" lon="-72.956110000">
<ele>0</ele>
<time>2026-09-04T06:40:34Z</time>
</trkpt>
<trkpt lat="46.763980000" lon="-72.956330000">
<ele>0</ele>
<time>2026-09-04T06:40:35Z</time>
</trkpt>
<trkpt lat="46.763670000" lon="-72.956870000">
<ele>0</ele>
<time>2026-09-04T06:40:36Z</time>
</trkpt>
<trkpt lat="46.763430000" lon="-72.957260000">
<ele>0</ele>
<time>2026-09-04T06:40:37Z</time>
</trkpt>
<trkpt lat="46.763330000" lon="-72.957470000">
<ele>0</ele>
<time>2026-09-04T06:40:38Z</time>
</trkpt>
<trkpt lat="46.763050000" lon="-72.958170000">
<ele>0</ele>
<time>2026-09-04T06:40:39Z</time>
</trkpt>
<trkpt lat="46.762770000" lon="-72.958710000">
<ele>0</ele>
<time>2026-09-04T06:40:40Z</time>
</trkpt>
<trkpt lat="46.762600000" lon="-72.958970000">
<ele>0</ele>
<time>2026-09-04T06:40:41Z</time>
</trkpt>
<trkpt lat="46.762480000" lon="-72.959160000">
<ele>0</ele>
<time>2026-09-04T06:40:42Z</time>
</trkpt>
<trkpt lat="46.762250000" lon="-72.959570000">
<ele>0</ele>
<time>2026-09-04T06:40:43Z</time>
</trkpt>
<trkpt lat="46.762010000" lon="-72.960210000">
<ele>0</ele>
<time>2026-09-04T06:40:44Z</time>
</trkpt>
<trkpt lat="46.761860000" lon="-72.960900000">
<ele>0</ele>
<time>2026-09-04T06:40:45Z</time>
</trkpt>
<trkpt lat="46.761750000" lon="-72.961520000">
<ele>0</ele>
<time>2026-09-04T06:40:46Z</time>
</trkpt>
<trkpt lat="46.761570000" lon="-72.962260000">
<ele>0</ele>
<time>2026-09-04T06:40:47Z</time>
</trkpt>
<trkpt lat="46.761490000" lon="-72.962500000">
<ele>0</ele>
<time>2026-09-04T06:40:48Z</time>
</trkpt>
<trkpt lat="46.761310000" lon="-72.962950000">
<ele>0</ele>
<time>2026-09-04T06:40:49Z</time>
</trkpt>
<trkpt lat="46.761090000" lon="-72.963390000">
<ele>0</ele>
<time>2026-09-04T06:40:50Z</time>
</trkpt>
<trkpt lat="46.760740000" lon="-72.963900000">
<ele>0</ele>
<time>2026-09-04T06:40:51Z</time>
</trkpt>
<trkpt lat="46.760570000" lon="-72.964080000">
<ele>0</ele>
<time>2026-09-04T06:40:52Z</time>
</trkpt>
<trkpt lat="46.760260000" lon="-72.964350000">
<ele>0</ele>
<time>2026-09-04T06:40:53Z</time>
</trkpt>
<trkpt lat="46.759950000" lon="-72.964600000">
<ele>0</ele>
<time>2026-09-04T06:40:54Z</time>
</trkpt>
<trkpt lat="46.759780000" lon="-72.964690000">
<ele>0</ele>
<time>2026-09-04T06:40:55Z</time>
</trkpt>
<trkpt lat="46.759510000" lon="-72.964800000">
<ele>0</ele>
<time>2026-09-04T06:40:56Z</time>
</trkpt>
<trkpt lat="46.759250000" lon="-72.964850000">
<ele>0</ele>
<time>2026-09-04T06:40:57Z</time>
</trkpt>
<trkpt lat="46.758710000" lon="-72.964940000">
<ele>0</ele>
<time>2026-09-04T06:40:58Z</time>
</trkpt>
<trkpt lat="46.758190000" lon="-72.965050000">
<ele>0</ele>
<time>2026-09-04T06:40:59Z</time>
</trkpt>
<trkpt lat="46.757780000" lon="-72.965270000">
<ele>0</ele>
<time>2026-09-04T06:41:00Z</time>
</trkpt>
<trkpt lat="46.757390000" lon="-72.965660000">
<ele>0</ele>
<time>2026-09-04T06:41:01Z</time>
</trkpt>
<trkpt lat="46.757140000" lon="-72.966040000">
<ele>0</ele>
<time>2026-09-04T06:41:02Z</time>
</trkpt>
<trkpt lat="46.757040000" lon="-72.966250000">
<ele>0</ele>
<time>2026-09-04T06:41:03Z</time>
</trkpt>
<trkpt lat="46.756870000" lon="-72.966710000">
<ele>0</ele>
<time>2026-09-04T06:41:04Z</time>
</trkpt>
<trkpt lat="46.756790000" lon="-72.967100000">
<ele>0</ele>
<time>2026-09-04T06:41:05Z</time>
</trkpt>
<trkpt lat="46.756710000" lon="-72.967730000">
<ele>0</ele>
<time>2026-09-04T06:41:06Z</time>
</trkpt>
<trkpt lat="46.756610000" lon="-72.968510000">
<ele>0</ele>
<time>2026-09-04T06:41:07Z</time>
</trkpt>
<trkpt lat="46.756550000" lon="-72.969030000">
<ele>0</ele>
<time>2026-09-04T06:41:08Z</time>
</trkpt>
<trkpt lat="46.756390000" lon="-72.969900000">
<ele>0</ele>
<time>2026-09-04T06:41:09Z</time>
</trkpt>
<trkpt lat="46.756290000" lon="-72.970280000">
<ele>0</ele>
<time>2026-09-04T06:41:10Z</time>
</trkpt>
<trkpt lat="46.756080000" lon="-72.970690000">
<ele>0</ele>
<time>2026-09-04T06:41:11Z</time>
</trkpt>
<trkpt lat="46.755830000" lon="-72.971040000">
<ele>0</ele>
<time>2026-09-04T06:41:12Z</time>
</trkpt>
<trkpt lat="46.755580000" lon="-72.971300000">
<ele>0</ele>
<time>2026-09-04T06:41:13Z</time>
</trkpt>
<trkpt lat="46.755430000" lon="-72.971370000">
<ele>0</ele>
<time>2026-09-04T06:41:14Z</time>
</trkpt>
<trkpt lat="46.755430000" lon="-72.971370000">
<ele>0</ele>
<time>2026-09-04T06:41:15Z</time>
</trkpt>
<trkpt lat="46.755300000" lon="-72.971430000">
<ele>0</ele>
<time>2026-09-04T06:41:16Z</time>
</trkpt>
<trkpt lat="46.754810000" lon="-72.971610000">
<ele>0</ele>
<time>2026-09-04T06:41:17Z</time>
</trkpt>
<trkpt lat="46.754490000" lon="-72.971700000">
<ele>0</ele>
<time>2026-09-04T06:41:18Z</time>
</trkpt>
<trkpt lat="46.754290000" lon="-72.971800000">
<ele>0</ele>
<time>2026-09-04T06:41:19Z</time>
</trkpt>
<trkpt lat="46.753970000" lon="-72.972020000">
<ele>0</ele>
<time>2026-09-04T06:41:20Z</time>
</trkpt>
<trkpt lat="46.753810000" lon="-72.972160000">
<ele>0</ele>
<time>2026-09-04T06:41:21Z</time>
</trkpt>
<trkpt lat="46.753660000" lon="-72.972390000">
<ele>0</ele>
<time>2026-09-04T06:41:22Z</time>
</trkpt>
<trkpt lat="46.753470000" lon="-72.972830000">
<ele>0</ele>
<time>2026-09-04T06:41:23Z</time>
</trkpt>
<trkpt lat="46.753370000" lon="-72.973100000">
<ele>0</ele>
<time>2026-09-04T06:41:24Z</time>
</trkpt>
<trkpt lat="46.753340000" lon="-72.973260000">
<ele>0</ele>
<time>2026-09-04T06:41:25Z</time>
</trkpt>
<trkpt lat="46.753320000" lon="-72.973520000">
<ele>0</ele>
<time>2026-09-04T06:41:26Z</time>
</trkpt>
<trkpt lat="46.753310000" lon="-72.973780000">
<ele>0</ele>
<time>2026-09-04T06:41:27Z</time>
</trkpt>
<trkpt lat="46.753310000" lon="-72.974050000">
<ele>0</ele>
<time>2026-09-04T06:41:28Z</time>
</trkpt>
<trkpt lat="46.753270000" lon="-72.974340000">
<ele>0</ele>
<time>2026-09-04T06:41:29Z</time>
</trkpt>
<trkpt lat="46.753140000" lon="-72.975020000">
<ele>0</ele>
<time>2026-09-04T06:41:30Z</time>
</trkpt>
<trkpt lat="46.753060000" lon="-72.975300000">
<ele>0</ele>
<time>2026-09-04T06:41:31Z</time>
</trkpt>
<trkpt lat="46.753000000" lon="-72.975550000">
<ele>0</ele>
<time>2026-09-04T06:41:32Z</time>
</trkpt>
<trkpt lat="46.752950000" lon="-72.976000000">
<ele>0</ele>
<time>2026-09-04T06:41:33Z</time>
</trkpt>
<trkpt lat="46.752980000" lon="-72.976590000">
<ele>0</ele>
<time>2026-09-04T06:41:34Z</time>
</trkpt>
<trkpt lat="46.753030000" lon="-72.976840000">
<ele>0</ele>
<time>2026-09-04T06:41:35Z</time>
</trkpt>
<trkpt lat="46.753100000" lon="-72.977080000">
<ele>0</ele>
<time>2026-09-04T06:41:36Z</time>
</trkpt>
<trkpt lat="46.753300000" lon="-72.977520000">
<ele>0</ele>
<time>2026-09-04T06:41:37Z</time>
</trkpt>
<trkpt lat="46.753420000" lon="-72.977710000">
<ele>0</ele>
<time>2026-09-04T06:41:38Z</time>
</trkpt>
<trkpt lat="46.753570000" lon="-72.977860000">
<ele>0</ele>
<time>2026-09-04T06:41:39Z</time>
</trkpt>
<trkpt lat="46.754150000" lon="-72.978200000">
<ele>0</ele>
<time>2026-09-04T06:41:40Z</time>
</trkpt>
<trkpt lat="46.754540000" lon="-72.978530000">
<ele>0</ele>
<time>2026-09-04T06:41:41Z</time>
</trkpt>
<trkpt lat="46.754840000" lon="-72.978820000">
<ele>0</ele>
<time>2026-09-04T06:41:42Z</time>
</trkpt>
<trkpt lat="46.755050000" lon="-72.979090000">
<ele>0</ele>
<time>2026-09-04T06:41:43Z</time>
</trkpt>
<trkpt lat="46.755230000" lon="-72.979370000">
<ele>0</ele>
<time>2026-09-04T06:41:44Z</time>
</trkpt>
<trkpt lat="46.755360000" lon="-72.979590000">
<ele>0</ele>
<time>2026-09-04T06:41:45Z</time>
</trkpt>
<trkpt lat="46.755550000" lon="-72.980000000">
<ele>0</ele>
<time>2026-09-04T06:41:46Z</time>
</trkpt>
<trkpt lat="46.755640000" lon="-72.980230000">
<ele>0</ele>
<time>2026-09-04T06:41:47Z</time>
</trkpt>
<trkpt lat="46.755750000" lon="-72.980650000">
<ele>0</ele>
<time>2026-09-04T06:41:48Z</time>
</trkpt>
<trkpt lat="46.755880000" lon="-72.981220000">
<ele>0</ele>
<time>2026-09-04T06:41:49Z</time>
</trkpt>
<trkpt lat="46.755970000" lon="-72.981990000">
<ele>0</ele>
<time>2026-09-04T06:41:50Z</time>
</trkpt>
<trkpt lat="46.756120000" lon="-72.983060000">
<ele>0</ele>
<time>2026-09-04T06:41:51Z</time>
</trkpt>
<trkpt lat="46.756220000" lon="-72.983510000">
<ele>0</ele>
<time>2026-09-04T06:41:52Z</time>
</trkpt>
<trkpt lat="46.756290000" lon="-72.983750000">
<ele>0</ele>
<time>2026-09-04T06:41:53Z</time>
</trkpt>
<trkpt lat="46.756380000" lon="-72.983970000">
<ele>0</ele>
<time>2026-09-04T06:41:54Z</time>
</trkpt>
<trkpt lat="46.756520000" lon="-72.984200000">
<ele>0</ele>
<time>2026-09-04T06:41:55Z</time>
</trkpt>
<trkpt lat="46.756780000" lon="-72.984510000">
<ele>0</ele>
<time>2026-09-04T06:41:56Z</time>
</trkpt>
<trkpt lat="46.756980000" lon="-72.984660000">
<ele>0</ele>
<time>2026-09-04T06:41:57Z</time>
</trkpt>
<trkpt lat="46.757150000" lon="-72.984750000">
<ele>0</ele>
<time>2026-09-04T06:41:58Z</time>
</trkpt>
<trkpt lat="46.757280000" lon="-72.984790000">
<ele>0</ele>
<time>2026-09-04T06:41:59Z</time>
</trkpt>
<trkpt lat="46.757420000" lon="-72.984840000">
<ele>0</ele>
<time>2026-09-04T06:42:00Z</time>
</trkpt>
<trkpt lat="46.757670000" lon="-72.984850000">
<ele>0</ele>
<time>2026-09-04T06:42:01Z</time>
</trkpt>
<trkpt lat="46.757900000" lon="-72.984840000">
<ele>0</ele>
<time>2026-09-04T06:42:02Z</time>
</trkpt>
<trkpt lat="46.758040000" lon="-72.984800000">
<ele>0</ele>
<time>2026-09-04T06:42:03Z</time>
</trkpt>
<trkpt lat="46.758150000" lon="-72.984760000">
<ele>0</ele>
<time>2026-09-04T06:42:04Z</time>
</trkpt>
<trkpt lat="46.758330000" lon="-72.984630000">
<ele>0</ele>
<time>2026-09-04T06:42:05Z</time>
</trkpt>
<trkpt lat="46.758460000" lon="-72.984530000">
<ele>0</ele>
<time>2026-09-04T06:42:06Z</time>
</trkpt>
<trkpt lat="46.758800000" lon="-72.984080000">
<ele>0</ele>
<time>2026-09-04T06:42:07Z</time>
</trkpt>
<trkpt lat="46.758880000" lon="-72.983880000">
<ele>0</ele>
<time>2026-09-04T06:42:08Z</time>
</trkpt>
<trkpt lat="46.759130000" lon="-72.983260000">
<ele>0</ele>
<time>2026-09-04T06:42:09Z</time>
</trkpt>
<trkpt lat="46.759240000" lon="-72.982970000">
<ele>0</ele>
<time>2026-09-04T06:42:10Z</time>
</trkpt>
<trkpt lat="46.759400000" lon="-72.982580000">
<ele>0</ele>
<time>2026-09-04T06:42:11Z</time>
</trkpt>
<trkpt lat="46.759530000" lon="-72.982400000">
<ele>0</ele>
<time>2026-09-04T06:42:12Z</time>
</trkpt>
<trkpt lat="46.759820000" lon="-72.982090000">
<ele>0</ele>
<time>2026-09-04T06:42:13Z</time>
</trkpt>
<trkpt lat="46.759980000" lon="-72.981990000">
<ele>0</ele>
<time>2026-09-04T06:42:14Z</time>
</trkpt>
<trkpt lat="46.760160000" lon="-72.981920000">
<ele>0</ele>
<time>2026-09-04T06:42:15Z</time>
</trkpt>
<trkpt lat="46.760380000" lon="-72.981870000">
<ele>0</ele>
<time>2026-09-04T06:42:16Z</time>
</trkpt>
<trkpt lat="46.760680000" lon="-72.981870000">
<ele>0</ele>
<time>2026-09-04T06:42:17Z</time>
</trkpt>
<trkpt lat="46.760740000" lon="-72.981890000">
<ele>0</ele>
<time>2026-09-04T06:42:18Z</time>
</trkpt>
<trkpt lat="46.760890000" lon="-72.981950000">
<ele>0</ele>
<time>2026-09-04T06:42:19Z</time>
</trkpt>
<trkpt lat="46.761030000" lon="-72.982060000">
<ele>0</ele>
<time>2026-09-04T06:42:20Z</time>
</trkpt>
<trkpt lat="46.761200000" lon="-72.982210000">
<ele>0</ele>
<time>2026-09-04T06:42:21Z</time>
</trkpt>
<trkpt lat="46.761420000" lon="-72.982530000">
<ele>0</ele>
<time>2026-09-04T06:42:22Z</time>
</trkpt>
<trkpt lat="46.761550000" lon="-72.982850000">
<ele>0</ele>
<time>2026-09-04T06:42:23Z</time>
</trkpt>
<trkpt lat="46.761690000" lon="-72.983330000">
<ele>0</ele>
<time>2026-09-04T06:42:24Z</time>
</trkpt>
<trkpt lat="46.761730000" lon="-72.983610000">
<ele>0</ele>
<time>2026-09-04T06:42:25Z</time>
</trkpt>
<trkpt lat="46.761720000" lon="-72.984000000">
<ele>0</ele>
<time>2026-09-04T06:42:26Z</time>
</trkpt>
<trkpt lat="46.761670000" lon="-72.984360000">
<ele>0</ele>
<time>2026-09-04T06:42:27Z</time>
</trkpt>
<trkpt lat="46.761580000" lon="-72.984870000">
<ele>0</ele>
<time>2026-09-04T06:42:28Z</time>
</trkpt>
<trkpt lat="46.761490000" lon="-72.985320000">
<ele>0</ele>
<time>2026-09-04T06:42:29Z</time>
</trkpt>
<trkpt lat="46.761470000" lon="-72.985830000">
<ele>0</ele>
<time>2026-09-04T06:42:30Z</time>
</trkpt>
<trkpt lat="46.761470000" lon="-72.985900000">
<ele>0</ele>
<time>2026-09-04T06:42:31Z</time>
</trkpt>
<trkpt lat="46.761510000" lon="-72.986690000">
<ele>0</ele>
<time>2026-09-04T06:42:32Z</time>
</trkpt>
<trkpt lat="46.761560000" lon="-72.987140000">
<ele>0</ele>
<time>2026-09-04T06:42:33Z</time>
</trkpt>
<trkpt lat="46.761610000" lon="-72.987480000">
<ele>0</ele>
<time>2026-09-04T06:42:34Z</time>
</trkpt>
<trkpt lat="46.761700000" lon="-72.987890000">
<ele>0</ele>
<time>2026-09-04T06:42:35Z</time>
</trkpt>
<trkpt lat="46.761950000" lon="-72.988670000">
<ele>0</ele>
<time>2026-09-04T06:42:36Z</time>
</trkpt>
<trkpt lat="46.762530000" lon="-72.990000000">
<ele>0</ele>
<time>2026-09-04T06:42:37Z</time>
</trkpt>
<trkpt lat="46.763110000" lon="-72.991330000">
<ele>0</ele>
<time>2026-09-04T06:42:38Z</time>
</trkpt>
<trkpt lat="46.763620000" lon="-72.992820000">
<ele>0</ele>
<time>2026-09-04T06:42:39Z</time>
</trkpt>
<trkpt lat="46.763710000" lon="-72.993160000">
<ele>0</ele>
<time>2026-09-04T06:42:40Z</time>
</trkpt>
<trkpt lat="46.763890000" lon="-72.993900000">
<ele>0</ele>
<time>2026-09-04T06:42:41Z</time>
</trkpt>
<trkpt lat="46.764130000" lon="-72.995180000">
<ele>0</ele>
<time>2026-09-04T06:42:42Z</time>
</trkpt>
<trkpt lat="46.764510000" lon="-72.997190000">
<ele>0</ele>
<time>2026-09-04T06:42:43Z</time>
</trkpt>
<trkpt lat="46.764560000" lon="-72.997520000">
<ele>0</ele>
<time>2026-09-04T06:42:44Z</time>
</trkpt>
<trkpt lat="46.764570000" lon="-72.997970000">
<ele>0</ele>
<time>2026-09-04T06:42:45Z</time>
</trkpt>
<trkpt lat="46.764560000" lon="-72.998230000">
<ele>0</ele>
<time>2026-09-04T06:42:46Z</time>
</trkpt>
<trkpt lat="46.764450000" lon="-72.998850000">
<ele>0</ele>
<time>2026-09-04T06:42:47Z</time>
</trkpt>
<trkpt lat="46.764190000" lon="-72.999640000">
<ele>0</ele>
<time>2026-09-04T06:42:48Z</time>
</trkpt>
<trkpt lat="46.763920000" lon="-73.000080000">
<ele>0</ele>
<time>2026-09-04T06:42:49Z</time>
</trkpt>
<trkpt lat="46.763780000" lon="-73.000240000">
<ele>0</ele>
<time>2026-09-04T06:42:50Z</time>
</trkpt>
<trkpt lat="46.763490000" lon="-73.000550000">
<ele>0</ele>
<time>2026-09-04T06:42:51Z</time>
</trkpt>
<trkpt lat="46.763090000" lon="-73.000930000">
<ele>0</ele>
<time>2026-09-04T06:42:52Z</time>
</trkpt>
<trkpt lat="46.763090000" lon="-73.000930000">
<ele>0</ele>
<time>2026-09-04T06:42:53Z</time>
</trkpt>
<trkpt lat="46.762750000" lon="-73.001280000">
<ele>0</ele>
<time>2026-09-04T06:42:54Z</time>
</trkpt>
<trkpt lat="46.762510000" lon="-73.001620000">
<ele>0</ele>
<time>2026-09-04T06:42:55Z</time>
</trkpt>
<trkpt lat="46.762430000" lon="-73.001820000">
<ele>0</ele>
<time>2026-09-04T06:42:56Z</time>
</trkpt>
<trkpt lat="46.762260000" lon="-73.002360000">
<ele>0</ele>
<time>2026-09-04T06:42:57Z</time>
</trkpt>
<trkpt lat="46.762150000" lon="-73.002860000">
<ele>0</ele>
<time>2026-09-04T06:42:58Z</time>
</trkpt>
<trkpt lat="46.762140000" lon="-73.003120000">
<ele>0</ele>
<time>2026-09-04T06:42:59Z</time>
</trkpt>
<trkpt lat="46.762130000" lon="-73.004130000">
<ele>0</ele>
<time>2026-09-04T06:43:00Z</time>
</trkpt>
<trkpt lat="46.762160000" lon="-73.004960000">
<ele>0</ele>
<time>2026-09-04T06:43:01Z</time>
</trkpt>
<trkpt lat="46.762180000" lon="-73.006010000">
<ele>0</ele>
<time>2026-09-04T06:43:02Z</time>
</trkpt>
<trkpt lat="46.762190000" lon="-73.007060000">
<ele>0</ele>
<time>2026-09-04T06:43:03Z</time>
</trkpt>
<trkpt lat="46.762160000" lon="-73.007460000">
<ele>0</ele>
<time>2026-09-04T06:43:04Z</time>
</trkpt>
<trkpt lat="46.762110000" lon="-73.007830000">
<ele>0</ele>
<time>2026-09-04T06:43:05Z</time>
</trkpt>
<trkpt lat="46.762020000" lon="-73.008430000">
<ele>0</ele>
<time>2026-09-04T06:43:06Z</time>
</trkpt>
<trkpt lat="46.761800000" lon="-73.009050000">
<ele>0</ele>
<time>2026-09-04T06:43:07Z</time>
</trkpt>
<trkpt lat="46.761700000" lon="-73.009270000">
<ele>0</ele>
<time>2026-09-04T06:43:08Z</time>
</trkpt>
<trkpt lat="46.760800000" lon="-73.011000000">
<ele>0</ele>
<time>2026-09-04T06:43:09Z</time>
</trkpt>
<trkpt lat="46.760480000" lon="-73.011870000">
<ele>0</ele>
<time>2026-09-04T06:43:10Z</time>
</trkpt>
<trkpt lat="46.759990000" lon="-73.013080000">
<ele>0</ele>
<time>2026-09-04T06:43:11Z</time>
</trkpt>
<trkpt lat="46.759770000" lon="-73.013720000">
<ele>0</ele>
<time>2026-09-04T06:43:12Z</time>
</trkpt>
<trkpt lat="46.759720000" lon="-73.013970000">
<ele>0</ele>
<time>2026-09-04T06:43:13Z</time>
</trkpt>
<trkpt lat="46.759690000" lon="-73.014260000">
<ele>0</ele>
<time>2026-09-04T06:43:14Z</time>
</trkpt>
<trkpt lat="46.759670000" lon="-73.014570000">
<ele>0</ele>
<time>2026-09-04T06:43:15Z</time>
</trkpt>
<trkpt lat="46.759700000" lon="-73.014960000">
<ele>0</ele>
<time>2026-09-04T06:43:16Z</time>
</trkpt>
<trkpt lat="46.759750000" lon="-73.015240000">
<ele>0</ele>
<time>2026-09-04T06:43:17Z</time>
</trkpt>
<trkpt lat="46.759810000" lon="-73.015480000">
<ele>0</ele>
<time>2026-09-04T06:43:18Z</time>
</trkpt>
<trkpt lat="46.759890000" lon="-73.015720000">
<ele>0</ele>
<time>2026-09-04T06:43:19Z</time>
</trkpt>
<trkpt lat="46.760060000" lon="-73.016080000">
<ele>0</ele>
<time>2026-09-04T06:43:20Z</time>
</trkpt>
<trkpt lat="46.760240000" lon="-73.016310000">
<ele>0</ele>
<time>2026-09-04T06:43:21Z</time>
</trkpt>
<trkpt lat="46.760380000" lon="-73.016460000">
<ele>0</ele>
<time>2026-09-04T06:43:22Z</time>
</trkpt>
<trkpt lat="46.760570000" lon="-73.016590000">
<ele>0</ele>
<time>2026-09-04T06:43:23Z</time>
</trkpt>
<trkpt lat="46.761220000" lon="-73.016940000">
<ele>0</ele>
<time>2026-09-04T06:43:24Z</time>
</trkpt>
<trkpt lat="46.761460000" lon="-73.017060000">
<ele>0</ele>
<time>2026-09-04T06:43:25Z</time>
</trkpt>
<trkpt lat="46.761540000" lon="-73.017150000">
<ele>0</ele>
<time>2026-09-04T06:43:26Z</time>
</trkpt>
<trkpt lat="46.761970000" lon="-73.017620000">
<ele>0</ele>
<time>2026-09-04T06:43:27Z</time>
</trkpt>
<trkpt lat="46.762230000" lon="-73.018080000">
<ele>0</ele>
<time>2026-09-04T06:43:28Z</time>
</trkpt>
<trkpt lat="46.762460000" lon="-73.018720000">
<ele>0</ele>
<time>2026-09-04T06:43:29Z</time>
</trkpt>
<trkpt lat="46.762530000" lon="-73.018970000">
<ele>0</ele>
<time>2026-09-04T06:43:30Z</time>
</trkpt>
<trkpt lat="46.762570000" lon="-73.019220000">
<ele>0</ele>
<time>2026-09-04T06:43:31Z</time>
</trkpt>
<trkpt lat="46.762620000" lon="-73.019740000">
<ele>0</ele>
<time>2026-09-04T06:43:32Z</time>
</trkpt>
<trkpt lat="46.762620000" lon="-73.020000000">
<ele>0</ele>
<time>2026-09-04T06:43:33Z</time>
</trkpt>
<trkpt lat="46.762610000" lon="-73.020330000">
<ele>0</ele>
<time>2026-09-04T06:43:34Z</time>
</trkpt>
<trkpt lat="46.762570000" lon="-73.020700000">
<ele>0</ele>
<time>2026-09-04T06:43:35Z</time>
</trkpt>
<trkpt lat="46.762440000" lon="-73.021280000">
<ele>0</ele>
<time>2026-09-04T06:43:36Z</time>
</trkpt>
<trkpt lat="46.762380000" lon="-73.021530000">
<ele>0</ele>
<time>2026-09-04T06:43:37Z</time>
</trkpt>
<trkpt lat="46.762270000" lon="-73.021740000">
<ele>0</ele>
<time>2026-09-04T06:43:38Z</time>
</trkpt>
<trkpt lat="46.762140000" lon="-73.022010000">
<ele>0</ele>
<time>2026-09-04T06:43:39Z</time>
</trkpt>
<trkpt lat="46.761810000" lon="-73.022540000">
<ele>0</ele>
<time>2026-09-04T06:43:40Z</time>
</trkpt>
<trkpt lat="46.761710000" lon="-73.022710000">
<ele>0</ele>
<time>2026-09-04T06:43:41Z</time>
</trkpt>
<trkpt lat="46.761590000" lon="-73.023020000">
<ele>0</ele>
<time>2026-09-04T06:43:42Z</time>
</trkpt>
<trkpt lat="46.761520000" lon="-73.023270000">
<ele>0</ele>
<time>2026-09-04T06:43:43Z</time>
</trkpt>
<trkpt lat="46.761410000" lon="-73.023900000">
<ele>0</ele>
<time>2026-09-04T06:43:44Z</time>
</trkpt>
<trkpt lat="46.761410000" lon="-73.024270000">
<ele>0</ele>
<time>2026-09-04T06:43:45Z</time>
</trkpt>
<trkpt lat="46.761450000" lon="-73.024550000">
<ele>0</ele>
<time>2026-09-04T06:43:46Z</time>
</trkpt>
<trkpt lat="46.761490000" lon="-73.024830000">
<ele>0</ele>
<time>2026-09-04T06:43:47Z</time>
</trkpt>
<trkpt lat="46.761580000" lon="-73.025160000">
<ele>0</ele>
<time>2026-09-04T06:43:48Z</time>
</trkpt>
<trkpt lat="46.761720000" lon="-73.025440000">
<ele>0</ele>
<time>2026-09-04T06:43:49Z</time>
</trkpt>
<trkpt lat="46.761960000" lon="-73.025830000">
<ele>0</ele>
<time>2026-09-04T06:43:50Z</time>
</trkpt>
<trkpt lat="46.762080000" lon="-73.025950000">
<ele>0</ele>
<time>2026-09-04T06:43:51Z</time>
</trkpt>
<trkpt lat="46.762080000" lon="-73.025950000">
<ele>0</ele>
<time>2026-09-04T06:43:52Z</time>
</trkpt>
<trkpt lat="46.762230000" lon="-73.026100000">
<ele>0</ele>
<time>2026-09-04T06:43:53Z</time>
</trkpt>
<trkpt lat="46.762430000" lon="-73.026230000">
<ele>0</ele>
<time>2026-09-04T06:43:54Z</time>
</trkpt>
<trkpt lat="46.762600000" lon="-73.026300000">
<ele>0</ele>
<time>2026-09-04T06:43:55Z</time>
</trkpt>
<trkpt lat="46.762780000" lon="-73.026350000">
<ele>0</ele>
<time>2026-09-04T06:43:56Z</time>
</trkpt>
<trkpt lat="46.763070000" lon="-73.026380000">
<ele>0</ele>
<time>2026-09-04T06:43:57Z</time>
</trkpt>
<trkpt lat="46.763310000" lon="-73.026320000">
<ele>0</ele>
<time>2026-09-04T06:43:58Z</time>
</trkpt>
<trkpt lat="46.763480000" lon="-73.026240000">
<ele>0</ele>
<time>2026-09-04T06:43:59Z</time>
</trkpt>
<trkpt lat="46.763820000" lon="-73.026040000">
<ele>0</ele>
<time>2026-09-04T06:44:00Z</time>
</trkpt>
<trkpt lat="46.764140000" lon="-73.025810000">
<ele>0</ele>
<time>2026-09-04T06:44:01Z</time>
</trkpt>
<trkpt lat="46.764550000" lon="-73.025480000">
<ele>0</ele>
<time>2026-09-04T06:44:02Z</time>
</trkpt>
<trkpt lat="46.764790000" lon="-73.025370000">
<ele>0</ele>
<time>2026-09-04T06:44:03Z</time>
</trkpt>
<trkpt lat="46.765070000" lon="-73.025250000">
<ele>0</ele>
<time>2026-09-04T06:44:04Z</time>
</trkpt>
<trkpt lat="46.765280000" lon="-73.025220000">
<ele>0</ele>
<time>2026-09-04T06:44:05Z</time>
</trkpt>
<trkpt lat="46.765500000" lon="-73.025230000">
<ele>0</ele>
<time>2026-09-04T06:44:06Z</time>
</trkpt>
<trkpt lat="46.765650000" lon="-73.025260000">
<ele>0</ele>
<time>2026-09-04T06:44:07Z</time>
</trkpt>
<trkpt lat="46.765770000" lon="-73.025280000">
<ele>0</ele>
<time>2026-09-04T06:44:08Z</time>
</trkpt>
<trkpt lat="46.765850000" lon="-73.025320000">
<ele>0</ele>
<time>2026-09-04T06:44:09Z</time>
</trkpt>
<trkpt lat="46.766000000" lon="-73.025450000">
<ele>0</ele>
<time>2026-09-04T06:44:10Z</time>
</trkpt>
<trkpt lat="46.766320000" lon="-73.025760000">
<ele>0</ele>
<time>2026-09-04T06:44:11Z</time>
</trkpt>
<trkpt lat="46.766590000" lon="-73.026070000">
<ele>0</ele>
<time>2026-09-04T06:44:12Z</time>
</trkpt>
<trkpt lat="46.766730000" lon="-73.026210000">
<ele>0</ele>
<time>2026-09-04T06:44:13Z</time>
</trkpt>
<trkpt lat="46.767110000" lon="-73.026520000">
<ele>0</ele>
<time>2026-09-04T06:44:14Z</time>
</trkpt>
<trkpt lat="46.767390000" lon="-73.026620000">
<ele>0</ele>
<time>2026-09-04T06:44:15Z</time>
</trkpt>
<trkpt lat="46.767540000" lon="-73.026610000">
<ele>0</ele>
<time>2026-09-04T06:44:16Z</time>
</trkpt>
<trkpt lat="46.767750000" lon="-73.026560000">
<ele>0</ele>
<time>2026-09-04T06:44:17Z</time>
</trkpt>
<trkpt lat="46.768100000" lon="-73.026470000">
<ele>0</ele>
<time>2026-09-04T06:44:18Z</time>
</trkpt>
<trkpt lat="46.768350000" lon="-73.026450000">
<ele>0</ele>
<time>2026-09-04T06:44:19Z</time>
</trkpt>
<trkpt lat="46.768520000" lon="-73.026460000">
<ele>0</ele>
<time>2026-09-04T06:44:20Z</time>
</trkpt>
<trkpt lat="46.768810000" lon="-73.026640000">
<ele>0</ele>
<time>2026-09-04T06:44:21Z</time>
</trkpt>
<trkpt lat="46.768950000" lon="-73.026770000">
<ele>0</ele>
<time>2026-09-04T06:44:22Z</time>
</trkpt>
<trkpt lat="46.769040000" lon="-73.026990000">
<ele>0</ele>
<time>2026-09-04T06:44:23Z</time>
</trkpt>
<trkpt lat="46.769140000" lon="-73.027300000">
<ele>0</ele>
<time>2026-09-04T06:44:24Z</time>
</trkpt>
<trkpt lat="46.769160000" lon="-73.027660000">
<ele>0</ele>
<time>2026-09-04T06:44:25Z</time>
</trkpt>
<trkpt lat="46.769140000" lon="-73.027890000">
<ele>0</ele>
<time>2026-09-04T06:44:26Z</time>
</trkpt>
<trkpt lat="46.769050000" lon="-73.028180000">
<ele>0</ele>
<time>2026-09-04T06:44:27Z</time>
</trkpt>
<trkpt lat="46.768810000" lon="-73.028640000">
<ele>0</ele>
<time>2026-09-04T06:44:28Z</time>
</trkpt>
<trkpt lat="46.768580000" lon="-73.029040000">
<ele>0</ele>
<time>2026-09-04T06:44:29Z</time>
</trkpt>
<trkpt lat="46.768480000" lon="-73.029270000">
<ele>0</ele>
<time>2026-09-04T06:44:30Z</time>
</trkpt>
<trkpt lat="46.768400000" lon="-73.029500000">
<ele>0</ele>
<time>2026-09-04T06:44:31Z</time>
</trkpt>
<trkpt lat="46.768390000" lon="-73.029760000">
<ele>0</ele>
<time>2026-09-04T06:44:32Z</time>
</trkpt>
<trkpt lat="46.768460000" lon="-73.030280000">
<ele>0</ele>
<time>2026-09-04T06:44:33Z</time>
</trkpt>
<trkpt lat="46.768520000" lon="-73.030520000">
<ele>0</ele>
<time>2026-09-04T06:44:34Z</time>
</trkpt>
<trkpt lat="46.768600000" lon="-73.030770000">
<ele>0</ele>
<time>2026-09-04T06:44:35Z</time>
</trkpt>
<trkpt lat="46.768690000" lon="-73.031010000">
<ele>0</ele>
<time>2026-09-04T06:44:36Z</time>
</trkpt>
<trkpt lat="46.768720000" lon="-73.031250000">
<ele>0</ele>
<time>2026-09-04T06:44:37Z</time>
</trkpt>
<trkpt lat="46.768720000" lon="-73.031770000">
<ele>0</ele>
<time>2026-09-04T06:44:38Z</time>
</trkpt>
<trkpt lat="46.768700000" lon="-73.032030000">
<ele>0</ele>
<time>2026-09-04T06:44:39Z</time>
</trkpt>
<trkpt lat="46.768620000" lon="-73.032320000">
<ele>0</ele>
<time>2026-09-04T06:44:40Z</time>
</trkpt>
<trkpt lat="46.768540000" lon="-73.032540000">
<ele>0</ele>
<time>2026-09-04T06:44:41Z</time>
</trkpt>
<trkpt lat="46.768320000" lon="-73.032920000">
<ele>0</ele>
<time>2026-09-04T06:44:42Z</time>
</trkpt>
<trkpt lat="46.768190000" lon="-73.033090000">
<ele>0</ele>
<time>2026-09-04T06:44:43Z</time>
</trkpt>
<trkpt lat="46.768030000" lon="-73.033220000">
<ele>0</ele>
<time>2026-09-04T06:44:44Z</time>
</trkpt>
<trkpt lat="46.767860000" lon="-73.033330000">
<ele>0</ele>
<time>2026-09-04T06:44:45Z</time>
</trkpt>
<trkpt lat="46.767160000" lon="-73.033500000">
<ele>0</ele>
<time>2026-09-04T06:44:46Z</time>
</trkpt>
<trkpt lat="46.766630000" lon="-73.033630000">
<ele>0</ele>
<time>2026-09-04T06:44:47Z</time>
</trkpt>
<trkpt lat="46.766380000" lon="-73.033690000">
<ele>0</ele>
<time>2026-09-04T06:44:48Z</time>
</trkpt>
<trkpt lat="46.765920000" lon="-73.033840000">
<ele>0</ele>
<time>2026-09-04T06:44:49Z</time>
</trkpt>
<trkpt lat="46.765050000" lon="-73.034180000">
<ele>0</ele>
<time>2026-09-04T06:44:50Z</time>
</trkpt>
<trkpt lat="46.764530000" lon="-73.034390000">
<ele>0</ele>
<time>2026-09-04T06:44:51Z</time>
</trkpt>
<trkpt lat="46.764360000" lon="-73.034440000">
<ele>0</ele>
<time>2026-09-04T06:44:52Z</time>
</trkpt>
<trkpt lat="46.764000000" lon="-73.034460000">
<ele>0</ele>
<time>2026-09-04T06:44:53Z</time>
</trkpt>
<trkpt lat="46.763650000" lon="-73.034330000">
<ele>0</ele>
<time>2026-09-04T06:44:54Z</time>
</trkpt>
<trkpt lat="46.763490000" lon="-73.034210000">
<ele>0</ele>
<time>2026-09-04T06:44:55Z</time>
</trkpt>
<trkpt lat="46.763200000" lon="-73.033900000">
<ele>0</ele>
<time>2026-09-04T06:44:56Z</time>
</trkpt>
<trkpt lat="46.763100000" lon="-73.033690000">
<ele>0</ele>
<time>2026-09-04T06:44:57Z</time>
</trkpt>
<trkpt lat="46.762990000" lon="-73.033350000">
<ele>0</ele>
<time>2026-09-04T06:44:58Z</time>
</trkpt>
<trkpt lat="46.762790000" lon="-73.032730000">
<ele>0</ele>
<time>2026-09-04T06:44:59Z</time>
</trkpt>
<trkpt lat="46.762600000" lon="-73.032300000">
<ele>0</ele>
<time>2026-09-04T06:45:00Z</time>
</trkpt>
<trkpt lat="46.762410000" lon="-73.032010000">
<ele>0</ele>
<time>2026-09-04T06:45:01Z</time>
</trkpt>
<trkpt lat="46.762200000" lon="-73.031770000">
<ele>0</ele>
<time>2026-09-04T06:45:02Z</time>
</trkpt>
<trkpt lat="46.762030000" lon="-73.031670000">
<ele>0</ele>
<time>2026-09-04T06:45:03Z</time>
</trkpt>
<trkpt lat="46.761870000" lon="-73.031560000">
<ele>0</ele>
<time>2026-09-04T06:45:04Z</time>
</trkpt>
<trkpt lat="46.761790000" lon="-73.031520000">
<ele>0</ele>
<time>2026-09-04T06:45:05Z</time>
</trkpt>
<trkpt lat="46.761690000" lon="-73.031510000">
<ele>0</ele>
<time>2026-09-04T06:45:06Z</time>
</trkpt>
<trkpt lat="46.761440000" lon="-73.031490000">
<ele>0</ele>
<time>2026-09-04T06:45:07Z</time>
</trkpt>
<trkpt lat="46.761160000" lon="-73.031540000">
<ele>0</ele>
<time>2026-09-04T06:45:08Z</time>
</trkpt>
<trkpt lat="46.760480000" lon="-73.031660000">
<ele>0</ele>
<time>2026-09-04T06:45:09Z</time>
</trkpt>
<trkpt lat="46.759370000" lon="-73.031830000">
<ele>0</ele>
<time>2026-09-04T06:45:10Z</time>
</trkpt>
<trkpt lat="46.758480000" lon="-73.032010000">
<ele>0</ele>
<time>2026-09-04T06:45:11Z</time>
</trkpt>
<trkpt lat="46.757610000" lon="-73.032180000">
<ele>0</ele>
<time>2026-09-04T06:45:12Z</time>
</trkpt>
<trkpt lat="46.757290000" lon="-73.032320000">
<ele>0</ele>
<time>2026-09-04T06:45:13Z</time>
</trkpt>
<trkpt lat="46.756960000" lon="-73.032680000">
<ele>0</ele>
<time>2026-09-04T06:45:14Z</time>
</trkpt>
<trkpt lat="46.756780000" lon="-73.033000000">
<ele>0</ele>
<time>2026-09-04T06:45:15Z</time>
</trkpt>
<trkpt lat="46.756680000" lon="-73.033340000">
<ele>0</ele>
<time>2026-09-04T06:45:16Z</time>
</trkpt>
<trkpt lat="46.756580000" lon="-73.033840000">
<ele>0</ele>
<time>2026-09-04T06:45:17Z</time>
</trkpt>
<trkpt lat="46.756550000" lon="-73.034100000">
<ele>0</ele>
<time>2026-09-04T06:45:18Z</time>
</trkpt>
<trkpt lat="46.756460000" lon="-73.034610000">
<ele>0</ele>
<time>2026-09-04T06:45:19Z</time>
</trkpt>
<trkpt lat="46.756280000" lon="-73.035340000">
<ele>0</ele>
<time>2026-09-04T06:45:20Z</time>
</trkpt>
<trkpt lat="46.756050000" lon="-73.036060000">
<ele>0</ele>
<time>2026-09-04T06:45:21Z</time>
</trkpt>
<trkpt lat="46.755900000" lon="-73.036500000">
<ele>0</ele>
<time>2026-09-04T06:45:22Z</time>
</trkpt>
<trkpt lat="46.755860000" lon="-73.036790000">
<ele>0</ele>
<time>2026-09-04T06:45:23Z</time>
</trkpt>
<trkpt lat="46.755800000" lon="-73.037180000">
<ele>0</ele>
<time>2026-09-04T06:45:24Z</time>
</trkpt>
<trkpt lat="46.755820000" lon="-73.037610000">
<ele>0</ele>
<time>2026-09-04T06:45:25Z</time>
</trkpt>
<trkpt lat="46.755930000" lon="-73.038020000">
<ele>0</ele>
<time>2026-09-04T06:45:26Z</time>
</trkpt>
<trkpt lat="46.756040000" lon="-73.038270000">
<ele>0</ele>
<time>2026-09-04T06:45:27Z</time>
</trkpt>
<trkpt lat="46.756160000" lon="-73.038480000">
<ele>0</ele>
<time>2026-09-04T06:45:28Z</time>
</trkpt>
<trkpt lat="46.756290000" lon="-73.038670000">
<ele>0</ele>
<time>2026-09-04T06:45:29Z</time>
</trkpt>
<trkpt lat="46.756470000" lon="-73.038860000">
<ele>0</ele>
<time>2026-09-04T06:45:30Z</time>
</trkpt>
<trkpt lat="46.756730000" lon="-73.039010000">
<ele>0</ele>
<time>2026-09-04T06:45:31Z</time>
</trkpt>
<trkpt lat="46.757280000" lon="-73.039240000">
<ele>0</ele>
<time>2026-09-04T06:45:32Z</time>
</trkpt>
<trkpt lat="46.757780000" lon="-73.039440000">
<ele>0</ele>
<time>2026-09-04T06:45:33Z</time>
</trkpt>
<trkpt lat="46.758160000" lon="-73.039490000">
<ele>0</ele>
<time>2026-09-04T06:45:34Z</time>
</trkpt>
<trkpt lat="46.758420000" lon="-73.039460000">
<ele>0</ele>
<time>2026-09-04T06:45:35Z</time>
</trkpt>
<trkpt lat="46.758660000" lon="-73.039400000">
<ele>0</ele>
<time>2026-09-04T06:45:36Z</time>
</trkpt>
<trkpt lat="46.759040000" lon="-73.039250000">
<ele>0</ele>
<time>2026-09-04T06:45:37Z</time>
</trkpt>
<trkpt lat="46.759560000" lon="-73.039040000">
<ele>0</ele>
<time>2026-09-04T06:45:38Z</time>
</trkpt>
<trkpt lat="46.760080000" lon="-73.038830000">
<ele>0</ele>
<time>2026-09-04T06:45:39Z</time>
</trkpt>
<trkpt lat="46.760340000" lon="-73.038750000">
<ele>0</ele>
<time>2026-09-04T06:45:40Z</time>
</trkpt>
<trkpt lat="46.760610000" lon="-73.038720000">
<ele>0</ele>
<time>2026-09-04T06:45:41Z</time>
</trkpt>
<trkpt lat="46.760700000" lon="-73.038710000">
<ele>0</ele>
<time>2026-09-04T06:45:42Z</time>
</trkpt>
<trkpt lat="46.760790000" lon="-73.038740000">
<ele>0</ele>
<time>2026-09-04T06:45:43Z</time>
</trkpt>
<trkpt lat="46.761140000" lon="-73.038840000">
<ele>0</ele>
<time>2026-09-04T06:45:44Z</time>
</trkpt>
<trkpt lat="46.761330000" lon="-73.038890000">
<ele>0</ele>
<time>2026-09-04T06:45:45Z</time>
</trkpt>
<trkpt lat="46.761950000" lon="-73.039200000">
<ele>0</ele>
<time>2026-09-04T06:45:46Z</time>
</trkpt>
<trkpt lat="46.761950000" lon="-73.039200000">
<ele>0</ele>
<time>2026-09-04T06:45:47Z</time>
</trkpt>
<trkpt lat="46.762340000" lon="-73.039390000">
<ele>0</ele>
<time>2026-09-04T06:45:48Z</time>
</trkpt>
<trkpt lat="46.762730000" lon="-73.039750000">
<ele>0</ele>
<time>2026-09-04T06:45:49Z</time>
</trkpt>
<trkpt lat="46.762920000" lon="-73.040000000">
<ele>0</ele>
<time>2026-09-04T06:45:50Z</time>
</trkpt>
<trkpt lat="46.763000000" lon="-73.040180000">
<ele>0</ele>
<time>2026-09-04T06:45:51Z</time>
</trkpt>
<trkpt lat="46.763090000" lon="-73.040470000">
<ele>0</ele>
<time>2026-09-04T06:45:52Z</time>
</trkpt>
<trkpt lat="46.763170000" lon="-73.041030000">
<ele>0</ele>
<time>2026-09-04T06:45:53Z</time>
</trkpt>
<trkpt lat="46.763140000" lon="-73.041490000">
<ele>0</ele>
<time>2026-09-04T06:45:54Z</time>
</trkpt>
<trkpt lat="46.763080000" lon="-73.041750000">
<ele>0</ele>
<time>2026-09-04T06:45:55Z</time>
</trkpt>
<trkpt lat="46.763040000" lon="-73.041960000">
<ele>0</ele>
<time>2026-09-04T06:45:56Z</time>
</trkpt>
<trkpt lat="46.762950000" lon="-73.042170000">
<ele>0</ele>
<time>2026-09-04T06:45:57Z</time>
</trkpt>
<trkpt lat="46.762810000" lon="-73.042420000">
<ele>0</ele>
<time>2026-09-04T06:45:58Z</time>
</trkpt>
<trkpt lat="46.762670000" lon="-73.042580000">
<ele>0</ele>
<time>2026-09-04T06:45:59Z</time>
</trkpt>
<trkpt lat="46.762460000" lon="-73.042770000">
<ele>0</ele>
<time>2026-09-04T06:46:00Z</time>
</trkpt>
<trkpt lat="46.762300000" lon="-73.042860000">
<ele>0</ele>
<time>2026-09-04T06:46:01Z</time>
</trkpt>
<trkpt lat="46.762010000" lon="-73.042990000">
<ele>0</ele>
<time>2026-09-04T06:46:02Z</time>
</trkpt>
<trkpt lat="46.761910000" lon="-73.043020000">
<ele>0</ele>
<time>2026-09-04T06:46:03Z</time>
</trkpt>
<trkpt lat="46.761730000" lon="-73.043030000">
<ele>0</ele>
<time>2026-09-04T06:46:04Z</time>
</trkpt>
<trkpt lat="46.761470000" lon="-73.043010000">
<ele>0</ele>
<time>2026-09-04T06:46:05Z</time>
</trkpt>
<trkpt lat="46.761270000" lon="-73.042990000">
<ele>0</ele>
<time>2026-09-04T06:46:06Z</time>
</trkpt>
<trkpt lat="46.760930000" lon="-73.042950000">
<ele>0</ele>
<time>2026-09-04T06:46:07Z</time>
</trkpt>
<trkpt lat="46.760690000" lon="-73.042920000">
<ele>0</ele>
<time>2026-09-04T06:46:08Z</time>
</trkpt>
<trkpt lat="46.760220000" lon="-73.042920000">
<ele>0</ele>
<time>2026-09-04T06:46:09Z</time>
</trkpt>
<trkpt lat="46.759680000" lon="-73.042970000">
<ele>0</ele>
<time>2026-09-04T06:46:10Z</time>
</trkpt>
<trkpt lat="46.759500000" lon="-73.043000000">
<ele>0</ele>
<time>2026-09-04T06:46:11Z</time>
</trkpt>
<trkpt lat="46.758780000" lon="-73.043100000">
<ele>0</ele>
<time>2026-09-04T06:46:12Z</time>
</trkpt>
<trkpt lat="46.758410000" lon="-73.043110000">
<ele>0</ele>
<time>2026-09-04T06:46:13Z</time>
</trkpt>
<trkpt lat="46.757710000" lon="-73.043040000">
<ele>0</ele>
<time>2026-09-04T06:46:14Z</time>
</trkpt>
<trkpt lat="46.756990000" lon="-73.042920000">
<ele>0</ele>
<time>2026-09-04T06:46:15Z</time>
</trkpt>
<trkpt lat="46.756660000" lon="-73.042850000">
<ele>0</ele>
<time>2026-09-04T06:46:16Z</time>
</trkpt>
<trkpt lat="46.756280000" lon="-73.042810000">
<ele>0</ele>
<time>2026-09-04T06:46:17Z</time>
</trkpt>
<trkpt lat="46.755740000" lon="-73.042750000">
<ele>0</ele>
<time>2026-09-04T06:46:18Z</time>
</trkpt>
<trkpt lat="46.755430000" lon="-73.042790000">
<ele>0</ele>
<time>2026-09-04T06:46:19Z</time>
</trkpt>
<trkpt lat="46.755090000" lon="-73.042930000">
<ele>0</ele>
<time>2026-09-04T06:46:20Z</time>
</trkpt>
<trkpt lat="46.754740000" lon="-73.043250000">
<ele>0</ele>
<time>2026-09-04T06:46:21Z</time>
</trkpt>
<trkpt lat="46.754500000" lon="-73.043570000">
<ele>0</ele>
<time>2026-09-04T06:46:22Z</time>
</trkpt>
<trkpt lat="46.754370000" lon="-73.043820000">
<ele>0</ele>
<time>2026-09-04T06:46:23Z</time>
</trkpt>
<trkpt lat="46.754270000" lon="-73.044040000">
<ele>0</ele>
<time>2026-09-04T06:46:24Z</time>
</trkpt>
<trkpt lat="46.754090000" lon="-73.044500000">
<ele>0</ele>
<time>2026-09-04T06:46:25Z</time>
</trkpt>
<trkpt lat="46.753840000" lon="-73.045190000">
<ele>0</ele>
<time>2026-09-04T06:46:26Z</time>
</trkpt>
<trkpt lat="46.753540000" lon="-73.046020000">
<ele>0</ele>
<time>2026-09-04T06:46:27Z</time>
</trkpt>
<trkpt lat="46.753390000" lon="-73.046620000">
<ele>0</ele>
<time>2026-09-04T06:46:28Z</time>
</trkpt>
<trkpt lat="46.753350000" lon="-73.046870000">
<ele>0</ele>
<time>2026-09-04T06:46:29Z</time>
</trkpt>
<trkpt lat="46.753360000" lon="-73.047020000">
<ele>0</ele>
<time>2026-09-04T06:46:30Z</time>
</trkpt>
<trkpt lat="46.753430000" lon="-73.047600000">
<ele>0</ele>
<time>2026-09-04T06:46:31Z</time>
</trkpt>
<trkpt lat="46.753560000" lon="-73.047960000">
<ele>0</ele>
<time>2026-09-04T06:46:32Z</time>
</trkpt>
<trkpt lat="46.753560000" lon="-73.047960000">
<ele>0</ele>
<time>2026-09-04T06:46:33Z</time>
</trkpt>
<trkpt lat="46.753630000" lon="-73.048160000">
<ele>0</ele>
<time>2026-09-04T06:46:34Z</time>
</trkpt>
<trkpt lat="46.753710000" lon="-73.048270000">
<ele>0</ele>
<time>2026-09-04T06:46:35Z</time>
</trkpt>
<trkpt lat="46.753860000" lon="-73.048460000">
<ele>0</ele>
<time>2026-09-04T06:46:36Z</time>
</trkpt>
<trkpt lat="46.754210000" lon="-73.048760000">
<ele>0</ele>
<time>2026-09-04T06:46:37Z</time>
</trkpt>
<trkpt lat="46.754470000" lon="-73.048950000">
<ele>0</ele>
<time>2026-09-04T06:46:38Z</time>
</trkpt>
<trkpt lat="46.755040000" lon="-73.049300000">
<ele>0</ele>
<time>2026-09-04T06:46:39Z</time>
</trkpt>
<trkpt lat="46.755270000" lon="-73.048800000">
<ele>0</ele>
<time>2026-09-04T06:46:40Z</time>
</trkpt>
<trkpt lat="46.755270000" lon="-73.048800000">
<ele>0</ele>
<time>2026-09-04T06:46:41Z</time>
</trkpt>
<trkpt lat="46.755360000" lon="-73.048620000">
<ele>0</ele>
<time>2026-09-04T06:46:42Z</time>
</trkpt>
<trkpt lat="46.755520000" lon="-73.048460000">
<ele>0</ele>
<time>2026-09-04T06:46:43Z</time>
</trkpt>
<trkpt lat="46.755870000" lon="-73.048290000">
<ele>0</ele>
<time>2026-09-04T06:46:44Z</time>
</trkpt>
<trkpt lat="46.755960000" lon="-73.048160000">
<ele>0</ele>
<time>2026-09-04T06:46:45Z</time>
</trkpt>
<trkpt lat="46.755990000" lon="-73.047900000">
<ele>0</ele>
<time>2026-09-04T06:46:46Z</time>
</trkpt>
<trkpt lat="46.755990000" lon="-73.047740000">
<ele>0</ele>
<time>2026-09-04T06:46:47Z</time>
</trkpt>
<trkpt lat="46.755960000" lon="-73.047650000">
<ele>0</ele>
<time>2026-09-04T06:46:48Z</time>
</trkpt>
<trkpt lat="46.755870000" lon="-73.047420000">
<ele>0</ele>
<time>2026-09-04T06:46:49Z</time>
</trkpt>
<trkpt lat="46.755730000" lon="-73.047240000">
<ele>0</ele>
<time>2026-09-04T06:46:50Z</time>
</trkpt>
<trkpt lat="46.755530000" lon="-73.047170000">
<ele>0</ele>
<time>2026-09-04T06:46:51Z</time>
</trkpt>
<trkpt lat="46.755390000" lon="-73.047210000">
<ele>0</ele>
<time>2026-09-04T06:46:52Z</time>
</trkpt>
<trkpt lat="46.755120000" lon="-73.047370000">
<ele>0</ele>
<time>2026-09-04T06:46:53Z</time>
</trkpt>
<trkpt lat="46.754960000" lon="-73.047470000">
<ele>0</ele>
<time>2026-09-04T06:46:54Z</time>
</trkpt>
<trkpt lat="46.754660000" lon="-73.047690000">
<ele>0</ele>
<time>2026-09-04T06:46:55Z</time>
</trkpt>
<trkpt lat="46.754620000" lon="-73.047670000">
<ele>0</ele>
<time>2026-09-04T06:46:56Z</time>
</trkpt>
<trkpt lat="46.754570000" lon="-73.047750000">
<ele>0</ele>
<time>2026-09-04T06:46:57Z</time>
</trkpt>
<trkpt lat="46.754510000" lon="-73.047910000">
<ele>0</ele>
<time>2026-09-04T06:46:58Z</time>
</trkpt>
<trkpt lat="46.754400000" lon="-73.048030000">
<ele>0</ele>
<time>2026-09-04T06:46:59Z</time>
</trkpt>
<trkpt lat="46.754340000" lon="-73.048040000">
<ele>0</ele>
<time>2026-09-04T06:47:00Z</time>
</trkpt>
<trkpt lat="46.754260000" lon="-73.048030000">
<ele>0</ele>
<time>2026-09-04T06:47:01Z</time>
</trkpt>
<trkpt lat="46.754260000" lon="-73.048030000">
<ele>0</ele>
<time>2026-09-04T06:47:02Z</time>
</trkpt>
<trkpt lat="46.754300000" lon="-73.048050000">
<ele>0</ele>
<time>2026-09-04T06:47:03Z</time>
</trkpt>
<trkpt lat="46.754380000" lon="-73.048030000">
<ele>0</ele>
<time>2026-09-04T06:47:04Z</time>
</trkpt>
<trkpt lat="46.754470000" lon="-73.047970000">
<ele>0</ele>
<time>2026-09-04T06:47:05Z</time>
</trkpt>
<trkpt lat="46.754520000" lon="-73.047890000">
<ele>0</ele>
<time>2026-09-04T06:47:06Z</time>
</trkpt>
<trkpt lat="46.754620000" lon="-73.047670000">
<ele>0</ele>
<time>2026-09-04T06:47:07Z</time>
</trkpt>
<trkpt lat="46.754640000" lon="-73.047690000">
<ele>0</ele>
<time>2026-09-04T06:47:08Z</time>
</trkpt>
<trkpt lat="46.754680000" lon="-73.047680000">
<ele>0</ele>
<time>2026-09-04T06:47:09Z</time>
</trkpt>
<trkpt lat="46.755000000" lon="-73.047440000">
<ele>0</ele>
<time>2026-09-04T06:47:10Z</time>
</trkpt>
<trkpt lat="46.755380000" lon="-73.047220000">
<ele>0</ele>
<time>2026-09-04T06:47:11Z</time>
</trkpt>
<trkpt lat="46.755530000" lon="-73.047170000">
<ele>0</ele>
<time>2026-09-04T06:47:12Z</time>
</trkpt>
<trkpt lat="46.755730000" lon="-73.047240000">
<ele>0</ele>
<time>2026-09-04T06:47:13Z</time>
</trkpt>
<trkpt lat="46.755860000" lon="-73.047390000">
<ele>0</ele>
<time>2026-09-04T06:47:14Z</time>
</trkpt>
<trkpt lat="46.755930000" lon="-73.047570000">
<ele>0</ele>
<time>2026-09-04T06:47:15Z</time>
</trkpt>
<trkpt lat="46.755990000" lon="-73.047740000">
<ele>0</ele>
<time>2026-09-04T06:47:16Z</time>
</trkpt>
<trkpt lat="46.755990000" lon="-73.047950000">
<ele>0</ele>
<time>2026-09-04T06:47:17Z</time>
</trkpt>
<trkpt lat="46.755950000" lon="-73.048170000">
<ele>0</ele>
<time>2026-09-04T06:47:18Z</time>
</trkpt>
<trkpt lat="46.755870000" lon="-73.048290000">
<ele>0</ele>
<time>2026-09-04T06:47:19Z</time>
</trkpt>
<trkpt lat="46.755820000" lon="-73.048320000">
<ele>0</ele>
<time>2026-09-04T06:47:20Z</time>
</trkpt>
<trkpt lat="46.755650000" lon="-73.048410000">
<ele>0</ele>
<time>2026-09-04T06:47:21Z</time>
</trkpt>
<trkpt lat="46.755480000" lon="-73.048490000">
<ele>0</ele>
<time>2026-09-04T06:47:22Z</time>
</trkpt>
<trkpt lat="46.755340000" lon="-73.048660000">
<ele>0</ele>
<time>2026-09-04T06:47:23Z</time>
</trkpt>
<trkpt lat="46.755240000" lon="-73.048870000">
<ele>0</ele>
<time>2026-09-04T06:47:24Z</time>
</trkpt>
<trkpt lat="46.755040000" lon="-73.049300000">
<ele>0</ele>
<time>2026-09-04T06:47:25Z</time>
</trkpt>
<trkpt lat="46.754870000" lon="-73.049200000">
<ele>0</ele>
<time>2026-09-04T06:47:26Z</time>
</trkpt>
<trkpt lat="46.754870000" lon="-73.049200000">
<ele>0</ele>
<time>2026-09-04T06:47:27Z</time>
</trkpt>
<trkpt lat="46.754390000" lon="-73.048890000">
<ele>0</ele>
<time>2026-09-04T06:47:28Z</time>
</trkpt>
<trkpt lat="46.754050000" lon="-73.048630000">
<ele>0</ele>
<time>2026-09-04T06:47:29Z</time>
</trkpt>
<trkpt lat="46.753900000" lon="-73.048500000">
<ele>0</ele>
<time>2026-09-04T06:47:30Z</time>
</trkpt>
<trkpt lat="46.753760000" lon="-73.048340000">
<ele>0</ele>
<time>2026-09-04T06:47:31Z</time>
</trkpt>
<trkpt lat="46.753630000" lon="-73.048160000">
<ele>0</ele>
<time>2026-09-04T06:47:32Z</time>
</trkpt>
<trkpt lat="46.753450000" lon="-73.047650000">
<ele>0</ele>
<time>2026-09-04T06:47:33Z</time>
</trkpt>
<trkpt lat="46.753400000" lon="-73.047390000">
<ele>0</ele>
<time>2026-09-04T06:47:34Z</time>
</trkpt>
<trkpt lat="46.753370000" lon="-73.047140000">
<ele>0</ele>
<time>2026-09-04T06:47:35Z</time>
</trkpt>
<trkpt lat="46.753350000" lon="-73.046880000">
<ele>0</ele>
<time>2026-09-04T06:47:36Z</time>
</trkpt>
<trkpt lat="46.753370000" lon="-73.046710000">
<ele>0</ele>
<time>2026-09-04T06:47:37Z</time>
</trkpt>
<trkpt lat="46.753510000" lon="-73.046130000">
<ele>0</ele>
<time>2026-09-04T06:47:38Z</time>
</trkpt>
<trkpt lat="46.753580000" lon="-73.045890000">
<ele>0</ele>
<time>2026-09-04T06:47:39Z</time>
</trkpt>
<trkpt lat="46.753750000" lon="-73.045420000">
<ele>0</ele>
<time>2026-09-04T06:47:40Z</time>
</trkpt>
<trkpt lat="46.754020000" lon="-73.044690000">
<ele>0</ele>
<time>2026-09-04T06:47:41Z</time>
</trkpt>
<trkpt lat="46.754290000" lon="-73.043970000">
<ele>0</ele>
<time>2026-09-04T06:47:42Z</time>
</trkpt>
<trkpt lat="46.754480000" lon="-73.043610000">
<ele>0</ele>
<time>2026-09-04T06:47:43Z</time>
</trkpt>
<trkpt lat="46.754710000" lon="-73.043290000">
<ele>0</ele>
<time>2026-09-04T06:47:44Z</time>
</trkpt>
<trkpt lat="46.755040000" lon="-73.042970000">
<ele>0</ele>
<time>2026-09-04T06:47:45Z</time>
</trkpt>
<trkpt lat="46.755210000" lon="-73.042880000">
<ele>0</ele>
<time>2026-09-04T06:47:46Z</time>
</trkpt>
<trkpt lat="46.755320000" lon="-73.042830000">
<ele>0</ele>
<time>2026-09-04T06:47:47Z</time>
</trkpt>
<trkpt lat="46.755320000" lon="-73.042830000">
<ele>0</ele>
<time>2026-09-04T06:47:48Z</time>
</trkpt>
<trkpt lat="46.755430000" lon="-73.042790000">
<ele>0</ele>
<time>2026-09-04T06:47:49Z</time>
</trkpt>
<trkpt lat="46.755740000" lon="-73.042750000">
<ele>0</ele>
<time>2026-09-04T06:47:50Z</time>
</trkpt>
<trkpt lat="46.756280000" lon="-73.042810000">
<ele>0</ele>
<time>2026-09-04T06:47:51Z</time>
</trkpt>
<trkpt lat="46.756660000" lon="-73.042850000">
<ele>0</ele>
<time>2026-09-04T06:47:52Z</time>
</trkpt>
<trkpt lat="46.756990000" lon="-73.042920000">
<ele>0</ele>
<time>2026-09-04T06:47:53Z</time>
</trkpt>
<trkpt lat="46.757710000" lon="-73.043040000">
<ele>0</ele>
<time>2026-09-04T06:47:54Z</time>
</trkpt>
<trkpt lat="46.758070000" lon="-73.043080000">
<ele>0</ele>
<time>2026-09-04T06:47:55Z</time>
</trkpt>
<trkpt lat="46.758360000" lon="-73.043100000">
<ele>0</ele>
<time>2026-09-04T06:47:56Z</time>
</trkpt>
<trkpt lat="46.758360000" lon="-73.043100000">
<ele>0</ele>
<time>2026-09-04T06:47:57Z</time>
</trkpt>
<trkpt lat="46.758700000" lon="-73.043120000">
<ele>0</ele>
<time>2026-09-04T06:47:58Z</time>
</trkpt>
<trkpt lat="46.759330000" lon="-73.043030000">
<ele>0</ele>
<time>2026-09-04T06:47:59Z</time>
</trkpt>
<trkpt lat="46.760140000" lon="-73.042910000">
<ele>0</ele>
<time>2026-09-04T06:48:00Z</time>
</trkpt>
<trkpt lat="46.760690000" lon="-73.042920000">
<ele>0</ele>
<time>2026-09-04T06:48:01Z</time>
</trkpt>
<trkpt lat="46.761110000" lon="-73.042970000">
<ele>0</ele>
<time>2026-09-04T06:48:02Z</time>
</trkpt>
<trkpt lat="46.761650000" lon="-73.043020000">
<ele>0</ele>
<time>2026-09-04T06:48:03Z</time>
</trkpt>
<trkpt lat="46.761910000" lon="-73.043020000">
<ele>0</ele>
<time>2026-09-04T06:48:04Z</time>
</trkpt>
<trkpt lat="46.762080000" lon="-73.042960000">
<ele>0</ele>
<time>2026-09-04T06:48:05Z</time>
</trkpt>
<trkpt lat="46.762350000" lon="-73.042830000">
<ele>0</ele>
<time>2026-09-04T06:48:06Z</time>
</trkpt>
<trkpt lat="46.762620000" lon="-73.042640000">
<ele>0</ele>
<time>2026-09-04T06:48:07Z</time>
</trkpt>
<trkpt lat="46.762840000" lon="-73.042380000">
<ele>0</ele>
<time>2026-09-04T06:48:08Z</time>
</trkpt>
<trkpt lat="46.763040000" lon="-73.041960000">
<ele>0</ele>
<time>2026-09-04T06:48:09Z</time>
</trkpt>
<trkpt lat="46.763140000" lon="-73.041490000">
<ele>0</ele>
<time>2026-09-04T06:48:10Z</time>
</trkpt>
<trkpt lat="46.763160000" lon="-73.040980000">
<ele>0</ele>
<time>2026-09-04T06:48:11Z</time>
</trkpt>
<trkpt lat="46.763090000" lon="-73.040490000">
<ele>0</ele>
<time>2026-09-04T06:48:12Z</time>
</trkpt>
<trkpt lat="46.762980000" lon="-73.040130000">
<ele>0</ele>
<time>2026-09-04T06:48:13Z</time>
</trkpt>
<trkpt lat="46.762980000" lon="-73.040130000">
<ele>0</ele>
<time>2026-09-04T06:48:14Z</time>
</trkpt>
<trkpt lat="46.762920000" lon="-73.040000000">
<ele>0</ele>
<time>2026-09-04T06:48:15Z</time>
</trkpt>
<trkpt lat="46.762730000" lon="-73.039750000">
<ele>0</ele>
<time>2026-09-04T06:48:16Z</time>
</trkpt>
<trkpt lat="46.762340000" lon="-73.039390000">
<ele>0</ele>
<time>2026-09-04T06:48:17Z</time>
</trkpt>
<trkpt lat="46.762170000" lon="-73.039310000">
<ele>0</ele>
<time>2026-09-04T06:48:18Z</time>
</trkpt>
<trkpt lat="46.761490000" lon="-73.038970000">
<ele>0</ele>
<time>2026-09-04T06:48:19Z</time>
</trkpt>
<trkpt lat="46.761320000" lon="-73.038890000">
<ele>0</ele>
<time>2026-09-04T06:48:20Z</time>
</trkpt>
<trkpt lat="46.760960000" lon="-73.038790000">
<ele>0</ele>
<time>2026-09-04T06:48:21Z</time>
</trkpt>
<trkpt lat="46.760700000" lon="-73.038710000">
<ele>0</ele>
<time>2026-09-04T06:48:22Z</time>
</trkpt>
<trkpt lat="46.760430000" lon="-73.038740000">
<ele>0</ele>
<time>2026-09-04T06:48:23Z</time>
</trkpt>
<trkpt lat="46.760250000" lon="-73.038770000">
<ele>0</ele>
<time>2026-09-04T06:48:24Z</time>
</trkpt>
<trkpt lat="46.760010000" lon="-73.038850000">
<ele>0</ele>
<time>2026-09-04T06:48:25Z</time>
</trkpt>
<trkpt lat="46.759210000" lon="-73.039190000">
<ele>0</ele>
<time>2026-09-04T06:48:26Z</time>
</trkpt>
<trkpt lat="46.758860000" lon="-73.039320000">
<ele>0</ele>
<time>2026-09-04T06:48:27Z</time>
</trkpt>
<trkpt lat="46.758660000" lon="-73.039400000">
<ele>0</ele>
<time>2026-09-04T06:48:28Z</time>
</trkpt>
<trkpt lat="46.758420000" lon="-73.039460000">
<ele>0</ele>
<time>2026-09-04T06:48:29Z</time>
</trkpt>
<trkpt lat="46.758120000" lon="-73.039490000">
<ele>0</ele>
<time>2026-09-04T06:48:30Z</time>
</trkpt>
<trkpt lat="46.757800000" lon="-73.039440000">
<ele>0</ele>
<time>2026-09-04T06:48:31Z</time>
</trkpt>
<trkpt lat="46.757390000" lon="-73.039290000">
<ele>0</ele>
<time>2026-09-04T06:48:32Z</time>
</trkpt>
<trkpt lat="46.757390000" lon="-73.039290000">
<ele>0</ele>
<time>2026-09-04T06:48:33Z</time>
</trkpt>
<trkpt lat="46.756930000" lon="-73.039100000">
<ele>0</ele>
<time>2026-09-04T06:48:34Z</time>
</trkpt>
<trkpt lat="46.756470000" lon="-73.038860000">
<ele>0</ele>
<time>2026-09-04T06:48:35Z</time>
</trkpt>
<trkpt lat="46.756290000" lon="-73.038670000">
<ele>0</ele>
<time>2026-09-04T06:48:36Z</time>
</trkpt>
<trkpt lat="46.756160000" lon="-73.038480000">
<ele>0</ele>
<time>2026-09-04T06:48:37Z</time>
</trkpt>
<trkpt lat="46.756040000" lon="-73.038270000">
<ele>0</ele>
<time>2026-09-04T06:48:38Z</time>
</trkpt>
<trkpt lat="46.755930000" lon="-73.038020000">
<ele>0</ele>
<time>2026-09-04T06:48:39Z</time>
</trkpt>
<trkpt lat="46.755820000" lon="-73.037610000">
<ele>0</ele>
<time>2026-09-04T06:48:40Z</time>
</trkpt>
<trkpt lat="46.755800000" lon="-73.037180000">
<ele>0</ele>
<time>2026-09-04T06:48:41Z</time>
</trkpt>
<trkpt lat="46.755900000" lon="-73.036500000">
<ele>0</ele>
<time>2026-09-04T06:48:42Z</time>
</trkpt>
<trkpt lat="46.756130000" lon="-73.035820000">
<ele>0</ele>
<time>2026-09-04T06:48:43Z</time>
</trkpt>
<trkpt lat="46.756280000" lon="-73.035340000">
<ele>0</ele>
<time>2026-09-04T06:48:44Z</time>
</trkpt>
<trkpt lat="46.756460000" lon="-73.034610000">
<ele>0</ele>
<time>2026-09-04T06:48:45Z</time>
</trkpt>
<trkpt lat="46.756550000" lon="-73.034100000">
<ele>0</ele>
<time>2026-09-04T06:48:46Z</time>
</trkpt>
<trkpt lat="46.756580000" lon="-73.033840000">
<ele>0</ele>
<time>2026-09-04T06:48:47Z</time>
</trkpt>
<trkpt lat="46.756680000" lon="-73.033340000">
<ele>0</ele>
<time>2026-09-04T06:48:48Z</time>
</trkpt>
<trkpt lat="46.756780000" lon="-73.033000000">
<ele>0</ele>
<time>2026-09-04T06:48:49Z</time>
</trkpt>
<trkpt lat="46.756960000" lon="-73.032680000">
<ele>0</ele>
<time>2026-09-04T06:48:50Z</time>
</trkpt>
<trkpt lat="46.757120000" lon="-73.032490000">
<ele>0</ele>
<time>2026-09-04T06:48:51Z</time>
</trkpt>
<trkpt lat="46.757290000" lon="-73.032320000">
<ele>0</ele>
<time>2026-09-04T06:48:52Z</time>
</trkpt>
<trkpt lat="46.757440000" lon="-73.032240000">
<ele>0</ele>
<time>2026-09-04T06:48:53Z</time>
</trkpt>
<trkpt lat="46.757610000" lon="-73.032180000">
<ele>0</ele>
<time>2026-09-04T06:48:54Z</time>
</trkpt>
<trkpt lat="46.757940000" lon="-73.032120000">
<ele>0</ele>
<time>2026-09-04T06:48:55Z</time>
</trkpt>
<trkpt lat="46.758830000" lon="-73.031940000">
<ele>0</ele>
<time>2026-09-04T06:48:56Z</time>
</trkpt>
<trkpt lat="46.759370000" lon="-73.031830000">
<ele>0</ele>
<time>2026-09-04T06:48:57Z</time>
</trkpt>
<trkpt lat="46.760260000" lon="-73.031690000">
<ele>0</ele>
<time>2026-09-04T06:48:58Z</time>
</trkpt>
<trkpt lat="46.760800000" lon="-73.031600000">
<ele>0</ele>
<time>2026-09-04T06:48:59Z</time>
</trkpt>
<trkpt lat="46.761440000" lon="-73.031490000">
<ele>0</ele>
<time>2026-09-04T06:49:00Z</time>
</trkpt>
<trkpt lat="46.761690000" lon="-73.031510000">
<ele>0</ele>
<time>2026-09-04T06:49:01Z</time>
</trkpt>
<trkpt lat="46.761790000" lon="-73.031520000">
<ele>0</ele>
<time>2026-09-04T06:49:02Z</time>
</trkpt>
<trkpt lat="46.761870000" lon="-73.031560000">
<ele>0</ele>
<time>2026-09-04T06:49:03Z</time>
</trkpt>
<trkpt lat="46.762030000" lon="-73.031670000">
<ele>0</ele>
<time>2026-09-04T06:49:04Z</time>
</trkpt>
<trkpt lat="46.762200000" lon="-73.031770000">
<ele>0</ele>
<time>2026-09-04T06:49:05Z</time>
</trkpt>
<trkpt lat="46.762410000" lon="-73.032010000">
<ele>0</ele>
<time>2026-09-04T06:49:06Z</time>
</trkpt>
<trkpt lat="46.762510000" lon="-73.032150000">
<ele>0</ele>
<time>2026-09-04T06:49:07Z</time>
</trkpt>
<trkpt lat="46.762510000" lon="-73.032150000">
<ele>0</ele>
<time>2026-09-04T06:49:08Z</time>
</trkpt>
<trkpt lat="46.762600000" lon="-73.032300000">
<ele>0</ele>
<time>2026-09-04T06:49:09Z</time>
</trkpt>
<trkpt lat="46.762790000" lon="-73.032730000">
<ele>0</ele>
<time>2026-09-04T06:49:10Z</time>
</trkpt>
<trkpt lat="46.762990000" lon="-73.033350000">
<ele>0</ele>
<time>2026-09-04T06:49:11Z</time>
</trkpt>
<trkpt lat="46.763100000" lon="-73.033690000">
<ele>0</ele>
<time>2026-09-04T06:49:12Z</time>
</trkpt>
<trkpt lat="46.763200000" lon="-73.033900000">
<ele>0</ele>
<time>2026-09-04T06:49:13Z</time>
</trkpt>
<trkpt lat="46.763490000" lon="-73.034210000">
<ele>0</ele>
<time>2026-09-04T06:49:14Z</time>
</trkpt>
<trkpt lat="46.763650000" lon="-73.034330000">
<ele>0</ele>
<time>2026-09-04T06:49:15Z</time>
</trkpt>
<trkpt lat="46.764000000" lon="-73.034460000">
<ele>0</ele>
<time>2026-09-04T06:49:16Z</time>
</trkpt>
<trkpt lat="46.764360000" lon="-73.034440000">
<ele>0</ele>
<time>2026-09-04T06:49:17Z</time>
</trkpt>
<trkpt lat="46.764530000" lon="-73.034390000">
<ele>0</ele>
<time>2026-09-04T06:49:18Z</time>
</trkpt>
<trkpt lat="46.765050000" lon="-73.034180000">
<ele>0</ele>
<time>2026-09-04T06:49:19Z</time>
</trkpt>
<trkpt lat="46.765920000" lon="-73.033840000">
<ele>0</ele>
<time>2026-09-04T06:49:20Z</time>
</trkpt>
<trkpt lat="46.766380000" lon="-73.033690000">
<ele>0</ele>
<time>2026-09-04T06:49:21Z</time>
</trkpt>
<trkpt lat="46.766630000" lon="-73.033630000">
<ele>0</ele>
<time>2026-09-04T06:49:22Z</time>
</trkpt>
<trkpt lat="46.767160000" lon="-73.033500000">
<ele>0</ele>
<time>2026-09-04T06:49:23Z</time>
</trkpt>
<trkpt lat="46.767210000" lon="-73.033490000">
<ele>0</ele>
<time>2026-09-04T06:49:24Z</time>
</trkpt>
<trkpt lat="46.767210000" lon="-73.033490000">
<ele>0</ele>
<time>2026-09-04T06:49:25Z</time>
</trkpt>
<trkpt lat="46.767860000" lon="-73.033330000">
<ele>0</ele>
<time>2026-09-04T06:49:26Z</time>
</trkpt>
<trkpt lat="46.768030000" lon="-73.033220000">
<ele>0</ele>
<time>2026-09-04T06:49:27Z</time>
</trkpt>
<trkpt lat="46.768190000" lon="-73.033090000">
<ele>0</ele>
<time>2026-09-04T06:49:28Z</time>
</trkpt>
<trkpt lat="46.768320000" lon="-73.032920000">
<ele>0</ele>
<time>2026-09-04T06:49:29Z</time>
</trkpt>
<trkpt lat="46.768540000" lon="-73.032540000">
<ele>0</ele>
<time>2026-09-04T06:49:30Z</time>
</trkpt>
<trkpt lat="46.768620000" lon="-73.032320000">
<ele>0</ele>
<time>2026-09-04T06:49:31Z</time>
</trkpt>
<trkpt lat="46.768700000" lon="-73.032030000">
<ele>0</ele>
<time>2026-09-04T06:49:32Z</time>
</trkpt>
<trkpt lat="46.768720000" lon="-73.031770000">
<ele>0</ele>
<time>2026-09-04T06:49:33Z</time>
</trkpt>
<trkpt lat="46.768720000" lon="-73.031250000">
<ele>0</ele>
<time>2026-09-04T06:49:34Z</time>
</trkpt>
<trkpt lat="46.768690000" lon="-73.031010000">
<ele>0</ele>
<time>2026-09-04T06:49:35Z</time>
</trkpt>
<trkpt lat="46.768600000" lon="-73.030770000">
<ele>0</ele>
<time>2026-09-04T06:49:36Z</time>
</trkpt>
<trkpt lat="46.768520000" lon="-73.030520000">
<ele>0</ele>
<time>2026-09-04T06:49:37Z</time>
</trkpt>
<trkpt lat="46.768460000" lon="-73.030280000">
<ele>0</ele>
<time>2026-09-04T06:49:38Z</time>
</trkpt>
<trkpt lat="46.768390000" lon="-73.029760000">
<ele>0</ele>
<time>2026-09-04T06:49:39Z</time>
</trkpt>
<trkpt lat="46.768400000" lon="-73.029500000">
<ele>0</ele>
<time>2026-09-04T06:49:40Z</time>
</trkpt>
<trkpt lat="46.768480000" lon="-73.029270000">
<ele>0</ele>
<time>2026-09-04T06:49:41Z</time>
</trkpt>
<trkpt lat="46.768580000" lon="-73.029040000">
<ele>0</ele>
<time>2026-09-04T06:49:42Z</time>
</trkpt>
<trkpt lat="46.768810000" lon="-73.028640000">
<ele>0</ele>
<time>2026-09-04T06:49:43Z</time>
</trkpt>
<trkpt lat="46.769050000" lon="-73.028180000">
<ele>0</ele>
<time>2026-09-04T06:49:44Z</time>
</trkpt>
<trkpt lat="46.769140000" lon="-73.027890000">
<ele>0</ele>
<time>2026-09-04T06:49:45Z</time>
</trkpt>
<trkpt lat="46.769160000" lon="-73.027660000">
<ele>0</ele>
<time>2026-09-04T06:49:46Z</time>
</trkpt>
<trkpt lat="46.769140000" lon="-73.027300000">
<ele>0</ele>
<time>2026-09-04T06:49:47Z</time>
</trkpt>
<trkpt lat="46.769040000" lon="-73.026990000">
<ele>0</ele>
<time>2026-09-04T06:49:48Z</time>
</trkpt>
<trkpt lat="46.768950000" lon="-73.026770000">
<ele>0</ele>
<time>2026-09-04T06:49:49Z</time>
</trkpt>
<trkpt lat="46.768810000" lon="-73.026640000">
<ele>0</ele>
<time>2026-09-04T06:49:50Z</time>
</trkpt>
<trkpt lat="46.768520000" lon="-73.026460000">
<ele>0</ele>
<time>2026-09-04T06:49:51Z</time>
</trkpt>
<trkpt lat="46.768350000" lon="-73.026450000">
<ele>0</ele>
<time>2026-09-04T06:49:52Z</time>
</trkpt>
<trkpt lat="46.768100000" lon="-73.026470000">
<ele>0</ele>
<time>2026-09-04T06:49:53Z</time>
</trkpt>
<trkpt lat="46.767750000" lon="-73.026560000">
<ele>0</ele>
<time>2026-09-04T06:49:54Z</time>
</trkpt>
<trkpt lat="46.767540000" lon="-73.026610000">
<ele>0</ele>
<time>2026-09-04T06:49:55Z</time>
</trkpt>
<trkpt lat="46.767390000" lon="-73.026620000">
<ele>0</ele>
<time>2026-09-04T06:49:56Z</time>
</trkpt>
<trkpt lat="46.767110000" lon="-73.026520000">
<ele>0</ele>
<time>2026-09-04T06:49:57Z</time>
</trkpt>
<trkpt lat="46.766730000" lon="-73.026210000">
<ele>0</ele>
<time>2026-09-04T06:49:58Z</time>
</trkpt>
<trkpt lat="46.766590000" lon="-73.026070000">
<ele>0</ele>
<time>2026-09-04T06:49:59Z</time>
</trkpt>
<trkpt lat="46.766320000" lon="-73.025760000">
<ele>0</ele>
<time>2026-09-04T06:50:00Z</time>
</trkpt>
<trkpt lat="46.766000000" lon="-73.025450000">
<ele>0</ele>
<time>2026-09-04T06:50:01Z</time>
</trkpt>
<trkpt lat="46.765850000" lon="-73.025320000">
<ele>0</ele>
<time>2026-09-04T06:50:02Z</time>
</trkpt>
<trkpt lat="46.765770000" lon="-73.025280000">
<ele>0</ele>
<time>2026-09-04T06:50:03Z</time>
</trkpt>
<trkpt lat="46.765650000" lon="-73.025260000">
<ele>0</ele>
<time>2026-09-04T06:50:04Z</time>
</trkpt>
<trkpt lat="46.765500000" lon="-73.025230000">
<ele>0</ele>
<time>2026-09-04T06:50:05Z</time>
</trkpt>
<trkpt lat="46.765280000" lon="-73.025220000">
<ele>0</ele>
<time>2026-09-04T06:50:06Z</time>
</trkpt>
<trkpt lat="46.765070000" lon="-73.025250000">
<ele>0</ele>
<time>2026-09-04T06:50:07Z</time>
</trkpt>
<trkpt lat="46.764790000" lon="-73.025370000">
<ele>0</ele>
<time>2026-09-04T06:50:08Z</time>
</trkpt>
<trkpt lat="46.764550000" lon="-73.025480000">
<ele>0</ele>
<time>2026-09-04T06:50:09Z</time>
</trkpt>
<trkpt lat="46.764140000" lon="-73.025810000">
<ele>0</ele>
<time>2026-09-04T06:50:10Z</time>
</trkpt>
<trkpt lat="46.763880000" lon="-73.025990000">
<ele>0</ele>
<time>2026-09-04T06:50:11Z</time>
</trkpt>
<trkpt lat="46.763880000" lon="-73.025990000">
<ele>0</ele>
<time>2026-09-04T06:50:12Z</time>
</trkpt>
<trkpt lat="46.763660000" lon="-73.026150000">
<ele>0</ele>
<time>2026-09-04T06:50:13Z</time>
</trkpt>
<trkpt lat="46.763360000" lon="-73.026310000">
<ele>0</ele>
<time>2026-09-04T06:50:14Z</time>
</trkpt>
<trkpt lat="46.763140000" lon="-73.026360000">
<ele>0</ele>
<time>2026-09-04T06:50:15Z</time>
</trkpt>
<trkpt lat="46.763070000" lon="-73.026380000">
<ele>0</ele>
<time>2026-09-04T06:50:16Z</time>
</trkpt>
<trkpt lat="46.762780000" lon="-73.026350000">
<ele>0</ele>
<time>2026-09-04T06:50:17Z</time>
</trkpt>
<trkpt lat="46.762460000" lon="-73.026260000">
<ele>0</ele>
<time>2026-09-04T06:50:18Z</time>
</trkpt>
<trkpt lat="46.762270000" lon="-73.026120000">
<ele>0</ele>
<time>2026-09-04T06:50:19Z</time>
</trkpt>
<trkpt lat="46.761960000" lon="-73.025830000">
<ele>0</ele>
<time>2026-09-04T06:50:20Z</time>
</trkpt>
<trkpt lat="46.761720000" lon="-73.025440000">
<ele>0</ele>
<time>2026-09-04T06:50:21Z</time>
</trkpt>
<trkpt lat="46.761580000" lon="-73.025160000">
<ele>0</ele>
<time>2026-09-04T06:50:22Z</time>
</trkpt>
<trkpt lat="46.761490000" lon="-73.024830000">
<ele>0</ele>
<time>2026-09-04T06:50:23Z</time>
</trkpt>
<trkpt lat="46.761450000" lon="-73.024550000">
<ele>0</ele>
<time>2026-09-04T06:50:24Z</time>
</trkpt>
<trkpt lat="46.761410000" lon="-73.024270000">
<ele>0</ele>
<time>2026-09-04T06:50:25Z</time>
</trkpt>
<trkpt lat="46.761410000" lon="-73.023900000">
<ele>0</ele>
<time>2026-09-04T06:50:26Z</time>
</trkpt>
<trkpt lat="46.761520000" lon="-73.023270000">
<ele>0</ele>
<time>2026-09-04T06:50:27Z</time>
</trkpt>
<trkpt lat="46.761590000" lon="-73.023020000">
<ele>0</ele>
<time>2026-09-04T06:50:28Z</time>
</trkpt>
<trkpt lat="46.761710000" lon="-73.022710000">
<ele>0</ele>
<time>2026-09-04T06:50:29Z</time>
</trkpt>
<trkpt lat="46.761810000" lon="-73.022540000">
<ele>0</ele>
<time>2026-09-04T06:50:30Z</time>
</trkpt>
<trkpt lat="46.761930000" lon="-73.022340000">
<ele>0</ele>
<time>2026-09-04T06:50:31Z</time>
</trkpt>
<trkpt lat="46.762140000" lon="-73.022010000">
<ele>0</ele>
<time>2026-09-04T06:50:32Z</time>
</trkpt>
<trkpt lat="46.762270000" lon="-73.021740000">
<ele>0</ele>
<time>2026-09-04T06:50:33Z</time>
</trkpt>
<trkpt lat="46.762380000" lon="-73.021530000">
<ele>0</ele>
<time>2026-09-04T06:50:34Z</time>
</trkpt>
<trkpt lat="46.762440000" lon="-73.021280000">
<ele>0</ele>
<time>2026-09-04T06:50:35Z</time>
</trkpt>
<trkpt lat="46.762500000" lon="-73.021030000">
<ele>0</ele>
<time>2026-09-04T06:50:36Z</time>
</trkpt>
<trkpt lat="46.762570000" lon="-73.020700000">
<ele>0</ele>
<time>2026-09-04T06:50:37Z</time>
</trkpt>
<trkpt lat="46.762610000" lon="-73.020330000">
<ele>0</ele>
<time>2026-09-04T06:50:38Z</time>
</trkpt>
<trkpt lat="46.762620000" lon="-73.020000000">
<ele>0</ele>
<time>2026-09-04T06:50:39Z</time>
</trkpt>
<trkpt lat="46.762620000" lon="-73.019740000">
<ele>0</ele>
<time>2026-09-04T06:50:40Z</time>
</trkpt>
<trkpt lat="46.762570000" lon="-73.019220000">
<ele>0</ele>
<time>2026-09-04T06:50:41Z</time>
</trkpt>
<trkpt lat="46.762530000" lon="-73.018970000">
<ele>0</ele>
<time>2026-09-04T06:50:42Z</time>
</trkpt>
<trkpt lat="46.762460000" lon="-73.018720000">
<ele>0</ele>
<time>2026-09-04T06:50:43Z</time>
</trkpt>
<trkpt lat="46.762230000" lon="-73.018080000">
<ele>0</ele>
<time>2026-09-04T06:50:44Z</time>
</trkpt>
<trkpt lat="46.761970000" lon="-73.017620000">
<ele>0</ele>
<time>2026-09-04T06:50:45Z</time>
</trkpt>
<trkpt lat="46.761650000" lon="-73.017270000">
<ele>0</ele>
<time>2026-09-04T06:50:46Z</time>
</trkpt>
<trkpt lat="46.761650000" lon="-73.017270000">
<ele>0</ele>
<time>2026-09-04T06:50:47Z</time>
</trkpt>
<trkpt lat="46.761460000" lon="-73.017060000">
<ele>0</ele>
<time>2026-09-04T06:50:48Z</time>
</trkpt>
<trkpt lat="46.761050000" lon="-73.016850000">
<ele>0</ele>
<time>2026-09-04T06:50:49Z</time>
</trkpt>
<trkpt lat="46.760550000" lon="-73.016580000">
<ele>0</ele>
<time>2026-09-04T06:50:50Z</time>
</trkpt>
<trkpt lat="46.760300000" lon="-73.016390000">
<ele>0</ele>
<time>2026-09-04T06:50:51Z</time>
</trkpt>
<trkpt lat="46.760100000" lon="-73.016140000">
<ele>0</ele>
<time>2026-09-04T06:50:52Z</time>
</trkpt>
<trkpt lat="46.759990000" lon="-73.015940000">
<ele>0</ele>
<time>2026-09-04T06:50:53Z</time>
</trkpt>
<trkpt lat="46.759880000" lon="-73.015700000">
<ele>0</ele>
<time>2026-09-04T06:50:54Z</time>
</trkpt>
<trkpt lat="46.759700000" lon="-73.014960000">
<ele>0</ele>
<time>2026-09-04T06:50:55Z</time>
</trkpt>
<trkpt lat="46.759680000" lon="-73.014460000">
<ele>0</ele>
<time>2026-09-04T06:50:56Z</time>
</trkpt>
<trkpt lat="46.759700000" lon="-73.014200000">
<ele>0</ele>
<time>2026-09-04T06:50:57Z</time>
</trkpt>
<trkpt lat="46.759720000" lon="-73.013940000">
<ele>0</ele>
<time>2026-09-04T06:50:58Z</time>
</trkpt>
<trkpt lat="46.759780000" lon="-73.013690000">
<ele>0</ele>
<time>2026-09-04T06:50:59Z</time>
</trkpt>
<trkpt lat="46.760030000" lon="-73.013000000">
<ele>0</ele>
<time>2026-09-04T06:51:00Z</time>
</trkpt>
<trkpt lat="46.760490000" lon="-73.011840000">
<ele>0</ele>
<time>2026-09-04T06:51:01Z</time>
</trkpt>
<trkpt lat="46.760740000" lon="-73.011170000">
<ele>0</ele>
<time>2026-09-04T06:51:02Z</time>
</trkpt>
<trkpt lat="46.760800000" lon="-73.011000000">
<ele>0</ele>
<time>2026-09-04T06:51:03Z</time>
</trkpt>
<trkpt lat="46.761150000" lon="-73.010320000">
<ele>0</ele>
<time>2026-09-04T06:51:04Z</time>
</trkpt>
<trkpt lat="46.761530000" lon="-73.009580000">
<ele>0</ele>
<time>2026-09-04T06:51:05Z</time>
</trkpt>
<trkpt lat="46.761780000" lon="-73.009110000">
<ele>0</ele>
<time>2026-09-04T06:51:06Z</time>
</trkpt>
<trkpt lat="46.761970000" lon="-73.008590000">
<ele>0</ele>
<time>2026-09-04T06:51:07Z</time>
</trkpt>
<trkpt lat="46.762030000" lon="-73.008350000">
<ele>0</ele>
<time>2026-09-04T06:51:08Z</time>
</trkpt>
<trkpt lat="46.762150000" lon="-73.007580000">
<ele>0</ele>
<time>2026-09-04T06:51:09Z</time>
</trkpt>
<trkpt lat="46.762200000" lon="-73.006930000">
<ele>0</ele>
<time>2026-09-04T06:51:10Z</time>
</trkpt>
<trkpt lat="46.762150000" lon="-73.004690000">
<ele>0</ele>
<time>2026-09-04T06:51:11Z</time>
</trkpt>
<trkpt lat="46.762140000" lon="-73.003910000">
<ele>0</ele>
<time>2026-09-04T06:51:12Z</time>
</trkpt>
<trkpt lat="46.762140000" lon="-73.003090000">
<ele>0</ele>
<time>2026-09-04T06:51:13Z</time>
</trkpt>
<trkpt lat="46.762140000" lon="-73.003090000">
<ele>0</ele>
<time>2026-09-04T06:51:14Z</time>
</trkpt>
<trkpt lat="46.762150000" lon="-73.002860000">
<ele>0</ele>
<time>2026-09-04T06:51:15Z</time>
</trkpt>
<trkpt lat="46.762260000" lon="-73.002360000">
<ele>0</ele>
<time>2026-09-04T06:51:16Z</time>
</trkpt>
<trkpt lat="46.762430000" lon="-73.001820000">
<ele>0</ele>
<time>2026-09-04T06:51:17Z</time>
</trkpt>
<trkpt lat="46.762510000" lon="-73.001620000">
<ele>0</ele>
<time>2026-09-04T06:51:18Z</time>
</trkpt>
<trkpt lat="46.762750000" lon="-73.001280000">
<ele>0</ele>
<time>2026-09-04T06:51:19Z</time>
</trkpt>
<trkpt lat="46.762950000" lon="-73.001040000">
<ele>0</ele>
<time>2026-09-04T06:51:20Z</time>
</trkpt>
<trkpt lat="46.763190000" lon="-73.000830000">
<ele>0</ele>
<time>2026-09-04T06:51:21Z</time>
</trkpt>
<trkpt lat="46.763440000" lon="-73.000610000">
<ele>0</ele>
<time>2026-09-04T06:51:22Z</time>
</trkpt>
<trkpt lat="46.763640000" lon="-73.000390000">
<ele>0</ele>
<time>2026-09-04T06:51:23Z</time>
</trkpt>
<trkpt lat="46.763890000" lon="-73.000140000">
<ele>0</ele>
<time>2026-09-04T06:51:24Z</time>
</trkpt>
<trkpt lat="46.764010000" lon="-72.999930000">
<ele>0</ele>
<time>2026-09-04T06:51:25Z</time>
</trkpt>
<trkpt lat="46.764190000" lon="-72.999640000">
<ele>0</ele>
<time>2026-09-04T06:51:26Z</time>
</trkpt>
<trkpt lat="46.764320000" lon="-72.999250000">
<ele>0</ele>
<time>2026-09-04T06:51:27Z</time>
</trkpt>
<trkpt lat="46.764400000" lon="-72.998980000">
<ele>0</ele>
<time>2026-09-04T06:51:28Z</time>
</trkpt>
<trkpt lat="46.764550000" lon="-72.998320000">
<ele>0</ele>
<time>2026-09-04T06:51:29Z</time>
</trkpt>
<trkpt lat="46.764580000" lon="-72.997830000">
<ele>0</ele>
<time>2026-09-04T06:51:30Z</time>
</trkpt>
<trkpt lat="46.764470000" lon="-72.996940000">
<ele>0</ele>
<time>2026-09-04T06:51:31Z</time>
</trkpt>
<trkpt lat="46.764050000" lon="-72.994730000">
<ele>0</ele>
<time>2026-09-04T06:51:32Z</time>
</trkpt>
<trkpt lat="46.763830000" lon="-72.993590000">
<ele>0</ele>
<time>2026-09-04T06:51:33Z</time>
</trkpt>
<trkpt lat="46.763570000" lon="-72.992670000">
<ele>0</ele>
<time>2026-09-04T06:51:34Z</time>
</trkpt>
<trkpt lat="46.763100000" lon="-72.991310000">
<ele>0</ele>
<time>2026-09-04T06:51:35Z</time>
</trkpt>
<trkpt lat="46.762060000" lon="-72.988950000">
<ele>0</ele>
<time>2026-09-04T06:51:36Z</time>
</trkpt>
<trkpt lat="46.762060000" lon="-72.988950000">
<ele>0</ele>
<time>2026-09-04T06:51:37Z</time>
</trkpt>
<trkpt lat="46.761950000" lon="-72.988670000">
<ele>0</ele>
<time>2026-09-04T06:51:38Z</time>
</trkpt>
<trkpt lat="46.761740000" lon="-72.988040000">
<ele>0</ele>
<time>2026-09-04T06:51:39Z</time>
</trkpt>
<trkpt lat="46.761610000" lon="-72.987480000">
<ele>0</ele>
<time>2026-09-04T06:51:40Z</time>
</trkpt>
<trkpt lat="46.761520000" lon="-72.986890000">
<ele>0</ele>
<time>2026-09-04T06:51:41Z</time>
</trkpt>
<trkpt lat="46.761490000" lon="-72.986360000">
<ele>0</ele>
<time>2026-09-04T06:51:42Z</time>
</trkpt>
<trkpt lat="46.761470000" lon="-72.985830000">
<ele>0</ele>
<time>2026-09-04T06:51:43Z</time>
</trkpt>
<trkpt lat="46.761490000" lon="-72.985320000">
<ele>0</ele>
<time>2026-09-04T06:51:44Z</time>
</trkpt>
<trkpt lat="46.761580000" lon="-72.984870000">
<ele>0</ele>
<time>2026-09-04T06:51:45Z</time>
</trkpt>
<trkpt lat="46.761630000" lon="-72.984600000">
<ele>0</ele>
<time>2026-09-04T06:51:46Z</time>
</trkpt>
<trkpt lat="46.761710000" lon="-72.984110000">
<ele>0</ele>
<time>2026-09-04T06:51:47Z</time>
</trkpt>
<trkpt lat="46.761730000" lon="-72.983610000">
<ele>0</ele>
<time>2026-09-04T06:51:48Z</time>
</trkpt>
<trkpt lat="46.761680000" lon="-72.983220000">
<ele>0</ele>
<time>2026-09-04T06:51:49Z</time>
</trkpt>
<trkpt lat="46.761530000" lon="-72.982780000">
<ele>0</ele>
<time>2026-09-04T06:51:50Z</time>
</trkpt>
<trkpt lat="46.761420000" lon="-72.982530000">
<ele>0</ele>
<time>2026-09-04T06:51:51Z</time>
</trkpt>
<trkpt lat="46.761310000" lon="-72.982370000">
<ele>0</ele>
<time>2026-09-04T06:51:52Z</time>
</trkpt>
<trkpt lat="46.761200000" lon="-72.982210000">
<ele>0</ele>
<time>2026-09-04T06:51:53Z</time>
</trkpt>
<trkpt lat="46.761070000" lon="-72.982090000">
<ele>0</ele>
<time>2026-09-04T06:51:54Z</time>
</trkpt>
<trkpt lat="46.760890000" lon="-72.981950000">
<ele>0</ele>
<time>2026-09-04T06:51:55Z</time>
</trkpt>
<trkpt lat="46.760680000" lon="-72.981870000">
<ele>0</ele>
<time>2026-09-04T06:51:56Z</time>
</trkpt>
<trkpt lat="46.760320000" lon="-72.981880000">
<ele>0</ele>
<time>2026-09-04T06:51:57Z</time>
</trkpt>
<trkpt lat="46.760160000" lon="-72.981920000">
<ele>0</ele>
<time>2026-09-04T06:51:58Z</time>
</trkpt>
<trkpt lat="46.759980000" lon="-72.981990000">
<ele>0</ele>
<time>2026-09-04T06:51:59Z</time>
</trkpt>
<trkpt lat="46.759820000" lon="-72.982090000">
<ele>0</ele>
<time>2026-09-04T06:52:00Z</time>
</trkpt>
<trkpt lat="46.759670000" lon="-72.982240000">
<ele>0</ele>
<time>2026-09-04T06:52:01Z</time>
</trkpt>
<trkpt lat="46.759430000" lon="-72.982520000">
<ele>0</ele>
<time>2026-09-04T06:52:02Z</time>
</trkpt>
<trkpt lat="46.759310000" lon="-72.982780000">
<ele>0</ele>
<time>2026-09-04T06:52:03Z</time>
</trkpt>
<trkpt lat="46.759170000" lon="-72.983150000">
<ele>0</ele>
<time>2026-09-04T06:52:04Z</time>
</trkpt>
<trkpt lat="46.758800000" lon="-72.984080000">
<ele>0</ele>
<time>2026-09-04T06:52:05Z</time>
</trkpt>
<trkpt lat="46.758460000" lon="-72.984530000">
<ele>0</ele>
<time>2026-09-04T06:52:06Z</time>
</trkpt>
<trkpt lat="46.758330000" lon="-72.984630000">
<ele>0</ele>
<time>2026-09-04T06:52:07Z</time>
</trkpt>
<trkpt lat="46.758150000" lon="-72.984760000">
<ele>0</ele>
<time>2026-09-04T06:52:08Z</time>
</trkpt>
<trkpt lat="46.758040000" lon="-72.984800000">
<ele>0</ele>
<time>2026-09-04T06:52:09Z</time>
</trkpt>
<trkpt lat="46.757900000" lon="-72.984840000">
<ele>0</ele>
<time>2026-09-04T06:52:10Z</time>
</trkpt>
<trkpt lat="46.757420000" lon="-72.984840000">
<ele>0</ele>
<time>2026-09-04T06:52:11Z</time>
</trkpt>
<trkpt lat="46.757150000" lon="-72.984750000">
<ele>0</ele>
<time>2026-09-04T06:52:12Z</time>
</trkpt>
<trkpt lat="46.756930000" lon="-72.984640000">
<ele>0</ele>
<time>2026-09-04T06:52:13Z</time>
</trkpt>
<trkpt lat="46.756780000" lon="-72.984510000">
<ele>0</ele>
<time>2026-09-04T06:52:14Z</time>
</trkpt>
<trkpt lat="46.756640000" lon="-72.984350000">
<ele>0</ele>
<time>2026-09-04T06:52:15Z</time>
</trkpt>
<trkpt lat="46.756420000" lon="-72.984030000">
<ele>0</ele>
<time>2026-09-04T06:52:16Z</time>
</trkpt>
<trkpt lat="46.756290000" lon="-72.983750000">
<ele>0</ele>
<time>2026-09-04T06:52:17Z</time>
</trkpt>
<trkpt lat="46.756180000" lon="-72.983320000">
<ele>0</ele>
<time>2026-09-04T06:52:18Z</time>
</trkpt>
<trkpt lat="46.756180000" lon="-72.983320000">
<ele>0</ele>
<time>2026-09-04T06:52:19Z</time>
</trkpt>
<trkpt lat="46.756080000" lon="-72.982830000">
<ele>0</ele>
<time>2026-09-04T06:52:20Z</time>
</trkpt>
<trkpt lat="46.756010000" lon="-72.982310000">
<ele>0</ele>
<time>2026-09-04T06:52:21Z</time>
</trkpt>
<trkpt lat="46.755950000" lon="-72.981730000">
<ele>0</ele>
<time>2026-09-04T06:52:22Z</time>
</trkpt>
<trkpt lat="46.755880000" lon="-72.981180000">
<ele>0</ele>
<time>2026-09-04T06:52:23Z</time>
</trkpt>
<trkpt lat="46.755710000" lon="-72.980470000">
<ele>0</ele>
<time>2026-09-04T06:52:24Z</time>
</trkpt>
<trkpt lat="46.755630000" lon="-72.980190000">
<ele>0</ele>
<time>2026-09-04T06:52:25Z</time>
</trkpt>
<trkpt lat="46.755450000" lon="-72.979780000">
<ele>0</ele>
<time>2026-09-04T06:52:26Z</time>
</trkpt>
<trkpt lat="46.755350000" lon="-72.979570000">
<ele>0</ele>
<time>2026-09-04T06:52:27Z</time>
</trkpt>
<trkpt lat="46.755110000" lon="-72.979180000">
<ele>0</ele>
<time>2026-09-04T06:52:28Z</time>
</trkpt>
<trkpt lat="46.754810000" lon="-72.978790000">
<ele>0</ele>
<time>2026-09-04T06:52:29Z</time>
</trkpt>
<trkpt lat="46.754390000" lon="-72.978400000">
<ele>0</ele>
<time>2026-09-04T06:52:30Z</time>
</trkpt>
<trkpt lat="46.754230000" lon="-72.978270000">
<ele>0</ele>
<time>2026-09-04T06:52:31Z</time>
</trkpt>
<trkpt lat="46.754070000" lon="-72.978160000">
<ele>0</ele>
<time>2026-09-04T06:52:32Z</time>
</trkpt>
<trkpt lat="46.753570000" lon="-72.977850000">
<ele>0</ele>
<time>2026-09-04T06:52:33Z</time>
</trkpt>
<trkpt lat="46.753410000" lon="-72.977690000">
<ele>0</ele>
<time>2026-09-04T06:52:34Z</time>
</trkpt>
<trkpt lat="46.753270000" lon="-72.977460000">
<ele>0</ele>
<time>2026-09-04T06:52:35Z</time>
</trkpt>
<trkpt lat="46.753060000" lon="-72.976990000">
<ele>0</ele>
<time>2026-09-04T06:52:36Z</time>
</trkpt>
<trkpt lat="46.752990000" lon="-72.976640000">
<ele>0</ele>
<time>2026-09-04T06:52:37Z</time>
</trkpt>
<trkpt lat="46.752960000" lon="-72.976330000">
<ele>0</ele>
<time>2026-09-04T06:52:38Z</time>
</trkpt>
<trkpt lat="46.752950000" lon="-72.976070000">
<ele>0</ele>
<time>2026-09-04T06:52:39Z</time>
</trkpt>
<trkpt lat="46.752970000" lon="-72.975810000">
<ele>0</ele>
<time>2026-09-04T06:52:40Z</time>
</trkpt>
<trkpt lat="46.753010000" lon="-72.975490000">
<ele>0</ele>
<time>2026-09-04T06:52:41Z</time>
</trkpt>
<trkpt lat="46.753130000" lon="-72.975060000">
<ele>0</ele>
<time>2026-09-04T06:52:42Z</time>
</trkpt>
<trkpt lat="46.753280000" lon="-72.974300000">
<ele>0</ele>
<time>2026-09-04T06:52:43Z</time>
</trkpt>
<trkpt lat="46.753310000" lon="-72.974020000">
<ele>0</ele>
<time>2026-09-04T06:52:44Z</time>
</trkpt>
<trkpt lat="46.753310000" lon="-72.973670000">
<ele>0</ele>
<time>2026-09-04T06:52:45Z</time>
</trkpt>
<trkpt lat="46.753370000" lon="-72.973100000">
<ele>0</ele>
<time>2026-09-04T06:52:46Z</time>
</trkpt>
<trkpt lat="46.753590000" lon="-72.972560000">
<ele>0</ele>
<time>2026-09-04T06:52:47Z</time>
</trkpt>
<trkpt lat="46.753690000" lon="-72.972350000">
<ele>0</ele>
<time>2026-09-04T06:52:48Z</time>
</trkpt>
<trkpt lat="46.753820000" lon="-72.972150000">
<ele>0</ele>
<time>2026-09-04T06:52:49Z</time>
</trkpt>
<trkpt lat="46.754010000" lon="-72.971980000">
<ele>0</ele>
<time>2026-09-04T06:52:50Z</time>
</trkpt>
<trkpt lat="46.754460000" lon="-72.971720000">
<ele>0</ele>
<time>2026-09-04T06:52:51Z</time>
</trkpt>
<trkpt lat="46.755050000" lon="-72.971540000">
<ele>0</ele>
<time>2026-09-04T06:52:52Z</time>
</trkpt>
<trkpt lat="46.755340000" lon="-72.971420000">
<ele>0</ele>
<time>2026-09-04T06:52:53Z</time>
</trkpt>
<trkpt lat="46.755580000" lon="-72.971300000">
<ele>0</ele>
<time>2026-09-04T06:52:54Z</time>
</trkpt>
<trkpt lat="46.755810000" lon="-72.971060000">
<ele>0</ele>
<time>2026-09-04T06:52:55Z</time>
</trkpt>
<trkpt lat="46.755940000" lon="-72.970880000">
<ele>0</ele>
<time>2026-09-04T06:52:56Z</time>
</trkpt>
<trkpt lat="46.755980000" lon="-72.970830000">
<ele>0</ele>
<time>2026-09-04T06:52:57Z</time>
</trkpt>
<trkpt lat="46.755980000" lon="-72.970830000">
<ele>0</ele>
<time>2026-09-04T06:52:58Z</time>
</trkpt>
<trkpt lat="46.756180000" lon="-72.970490000">
<ele>0</ele>
<time>2026-09-04T06:52:59Z</time>
</trkpt>
<trkpt lat="46.756300000" lon="-72.970250000">
<ele>0</ele>
<time>2026-09-04T06:53:00Z</time>
</trkpt>
<trkpt lat="46.756470000" lon="-72.969540000">
<ele>0</ele>
<time>2026-09-04T06:53:01Z</time>
</trkpt>
<trkpt lat="46.756680000" lon="-72.967990000">
<ele>0</ele>
<time>2026-09-04T06:53:02Z</time>
</trkpt>
<trkpt lat="46.756790000" lon="-72.967100000">
<ele>0</ele>
<time>2026-09-04T06:53:03Z</time>
</trkpt>
<trkpt lat="46.756870000" lon="-72.966700000">
<ele>0</ele>
<time>2026-09-04T06:53:04Z</time>
</trkpt>
<trkpt lat="46.757090000" lon="-72.966140000">
<ele>0</ele>
<time>2026-09-04T06:53:05Z</time>
</trkpt>
<trkpt lat="46.757210000" lon="-72.965930000">
<ele>0</ele>
<time>2026-09-04T06:53:06Z</time>
</trkpt>
<trkpt lat="46.757400000" lon="-72.965640000">
<ele>0</ele>
<time>2026-09-04T06:53:07Z</time>
</trkpt>
<trkpt lat="46.757690000" lon="-72.965360000">
<ele>0</ele>
<time>2026-09-04T06:53:08Z</time>
</trkpt>
<trkpt lat="46.757840000" lon="-72.965230000">
<ele>0</ele>
<time>2026-09-04T06:53:09Z</time>
</trkpt>
<trkpt lat="46.758180000" lon="-72.965050000">
<ele>0</ele>
<time>2026-09-04T06:53:10Z</time>
</trkpt>
<trkpt lat="46.758540000" lon="-72.964960000">
<ele>0</ele>
<time>2026-09-04T06:53:11Z</time>
</trkpt>
<trkpt lat="46.759080000" lon="-72.964880000">
<ele>0</ele>
<time>2026-09-04T06:53:12Z</time>
</trkpt>
<trkpt lat="46.759430000" lon="-72.964810000">
<ele>0</ele>
<time>2026-09-04T06:53:13Z</time>
</trkpt>
<trkpt lat="46.759600000" lon="-72.964760000">
<ele>0</ele>
<time>2026-09-04T06:53:14Z</time>
</trkpt>
<trkpt lat="46.759910000" lon="-72.964640000">
<ele>0</ele>
<time>2026-09-04T06:53:15Z</time>
</trkpt>
<trkpt lat="46.760190000" lon="-72.964410000">
<ele>0</ele>
<time>2026-09-04T06:53:16Z</time>
</trkpt>
<trkpt lat="46.760530000" lon="-72.964120000">
<ele>0</ele>
<time>2026-09-04T06:53:17Z</time>
</trkpt>
<trkpt lat="46.760720000" lon="-72.963930000">
<ele>0</ele>
<time>2026-09-04T06:53:18Z</time>
</trkpt>
<trkpt lat="46.760980000" lon="-72.963560000">
<ele>0</ele>
<time>2026-09-04T06:53:19Z</time>
</trkpt>
<trkpt lat="46.761100000" lon="-72.963380000">
<ele>0</ele>
<time>2026-09-04T06:53:20Z</time>
</trkpt>
<trkpt lat="46.761310000" lon="-72.962970000">
<ele>0</ele>
<time>2026-09-04T06:53:21Z</time>
</trkpt>
<trkpt lat="46.761510000" lon="-72.962450000">
<ele>0</ele>
<time>2026-09-04T06:53:22Z</time>
</trkpt>
<trkpt lat="46.761690000" lon="-72.961770000">
<ele>0</ele>
<time>2026-09-04T06:53:23Z</time>
</trkpt>
<trkpt lat="46.761840000" lon="-72.961010000">
<ele>0</ele>
<time>2026-09-04T06:53:24Z</time>
</trkpt>
<trkpt lat="46.762000000" lon="-72.960260000">
<ele>0</ele>
<time>2026-09-04T06:53:25Z</time>
</trkpt>
<trkpt lat="46.762200000" lon="-72.959670000">
<ele>0</ele>
<time>2026-09-04T06:53:26Z</time>
</trkpt>
<trkpt lat="46.762350000" lon="-72.959380000">
<ele>0</ele>
<time>2026-09-04T06:53:27Z</time>
</trkpt>
<trkpt lat="46.762560000" lon="-72.959030000">
<ele>0</ele>
<time>2026-09-04T06:53:28Z</time>
</trkpt>
<trkpt lat="46.762620000" lon="-72.958940000">
<ele>0</ele>
<time>2026-09-04T06:53:29Z</time>
</trkpt>
<trkpt lat="46.762620000" lon="-72.958940000">
<ele>0</ele>
<time>2026-09-04T06:53:30Z</time>
</trkpt>
<trkpt lat="46.762770000" lon="-72.958710000">
<ele>0</ele>
<time>2026-09-04T06:53:31Z</time>
</trkpt>
<trkpt lat="46.763050000" lon="-72.958170000">
<ele>0</ele>
<time>2026-09-04T06:53:32Z</time>
</trkpt>
<trkpt lat="46.763330000" lon="-72.957470000">
<ele>0</ele>
<time>2026-09-04T06:53:33Z</time>
</trkpt>
<trkpt lat="46.763430000" lon="-72.957260000">
<ele>0</ele>
<time>2026-09-04T06:53:34Z</time>
</trkpt>
<trkpt lat="46.763670000" lon="-72.956870000">
<ele>0</ele>
<time>2026-09-04T06:53:35Z</time>
</trkpt>
<trkpt lat="46.763980000" lon="-72.956330000">
<ele>0</ele>
<time>2026-09-04T06:53:36Z</time>
</trkpt>
<trkpt lat="46.764210000" lon="-72.956110000">
<ele>0</ele>
<time>2026-09-04T06:53:37Z</time>
</trkpt>
<trkpt lat="46.764660000" lon="-72.955710000">
<ele>0</ele>
<time>2026-09-04T06:53:38Z</time>
</trkpt>
<trkpt lat="46.765110000" lon="-72.955440000">
<ele>0</ele>
<time>2026-09-04T06:53:39Z</time>
</trkpt>
<trkpt lat="46.765630000" lon="-72.955220000">
<ele>0</ele>
<time>2026-09-04T06:53:40Z</time>
</trkpt>
<trkpt lat="46.766190000" lon="-72.954950000">
<ele>0</ele>
<time>2026-09-04T06:53:41Z</time>
</trkpt>
<trkpt lat="46.766690000" lon="-72.954570000">
<ele>0</ele>
<time>2026-09-04T06:53:42Z</time>
</trkpt>
<trkpt lat="46.767080000" lon="-72.954200000">
<ele>0</ele>
<time>2026-09-04T06:53:43Z</time>
</trkpt>
<trkpt lat="46.767320000" lon="-72.953970000">
<ele>0</ele>
<time>2026-09-04T06:53:44Z</time>
</trkpt>
<trkpt lat="46.767760000" lon="-72.953340000">
<ele>0</ele>
<time>2026-09-04T06:53:45Z</time>
</trkpt>
<trkpt lat="46.767880000" lon="-72.953150000">
<ele>0</ele>
<time>2026-09-04T06:53:46Z</time>
</trkpt>
<trkpt lat="46.768130000" lon="-72.952770000">
<ele>0</ele>
<time>2026-09-04T06:53:47Z</time>
</trkpt>
<trkpt lat="46.768620000" lon="-72.952010000">
<ele>0</ele>
<time>2026-09-04T06:53:48Z</time>
</trkpt>
<trkpt lat="46.769120000" lon="-72.951320000">
<ele>0</ele>
<time>2026-09-04T06:53:49Z</time>
</trkpt>
<trkpt lat="46.769120000" lon="-72.951320000">
<ele>0</ele>
<time>2026-09-04T06:53:50Z</time>
</trkpt>
<trkpt lat="46.770080000" lon="-72.950050000">
<ele>0</ele>
<time>2026-09-04T06:53:51Z</time>
</trkpt>
<trkpt lat="46.770900000" lon="-72.949030000">
<ele>0</ele>
<time>2026-09-04T06:53:52Z</time>
</trkpt>
<trkpt lat="46.771450000" lon="-72.948350000">
<ele>0</ele>
<time>2026-09-04T06:53:53Z</time>
</trkpt>
<trkpt lat="46.771720000" lon="-72.948010000">
<ele>0</ele>
<time>2026-09-04T06:53:54Z</time>
</trkpt>
<trkpt lat="46.771870000" lon="-72.947840000">
<ele>0</ele>
<time>2026-09-04T06:53:55Z</time>
</trkpt>
<trkpt lat="46.772170000" lon="-72.947570000">
<ele>0</ele>
<time>2026-09-04T06:53:56Z</time>
</trkpt>
<trkpt lat="46.772480000" lon="-72.947300000">
<ele>0</ele>
<time>2026-09-04T06:53:57Z</time>
</trkpt>
<trkpt lat="46.772630000" lon="-72.947170000">
<ele>0</ele>
<time>2026-09-04T06:53:58Z</time>
</trkpt>
<trkpt lat="46.772960000" lon="-72.946950000">
<ele>0</ele>
<time>2026-09-04T06:53:59Z</time>
</trkpt>
<trkpt lat="46.773110000" lon="-72.946810000">
<ele>0</ele>
<time>2026-09-04T06:54:00Z</time>
</trkpt>
<trkpt lat="46.773240000" lon="-72.946630000">
<ele>0</ele>
<time>2026-09-04T06:54:01Z</time>
</trkpt>
<trkpt lat="46.773330000" lon="-72.946410000">
<ele>0</ele>
<time>2026-09-04T06:54:02Z</time>
</trkpt>
<trkpt lat="46.773400000" lon="-72.946160000">
<ele>0</ele>
<time>2026-09-04T06:54:03Z</time>
</trkpt>
<trkpt lat="46.773420000" lon="-72.945900000">
<ele>0</ele>
<time>2026-09-04T06:54:04Z</time>
</trkpt>
<trkpt lat="46.773400000" lon="-72.945640000">
<ele>0</ele>
<time>2026-09-04T06:54:05Z</time>
</trkpt>
<trkpt lat="46.773350000" lon="-72.945430000">
<ele>0</ele>
<time>2026-09-04T06:54:06Z</time>
</trkpt>
<trkpt lat="46.773190000" lon="-72.945160000">
<ele>0</ele>
<time>2026-09-04T06:54:07Z</time>
</trkpt>
<trkpt lat="46.772680000" lon="-72.944500000">
<ele>0</ele>
<time>2026-09-04T06:54:08Z</time>
</trkpt>
<trkpt lat="46.772510000" lon="-72.944270000">
<ele>0</ele>
<time>2026-09-04T06:54:09Z</time>
</trkpt>
<trkpt lat="46.772310000" lon="-72.943930000">
<ele>0</ele>
<time>2026-09-04T06:54:10Z</time>
</trkpt>
<trkpt lat="46.771990000" lon="-72.943300000">
<ele>0</ele>
<time>2026-09-04T06:54:11Z</time>
</trkpt>
<trkpt lat="46.771380000" lon="-72.942030000">
<ele>0</ele>
<time>2026-09-04T06:54:12Z</time>
</trkpt>
<trkpt lat="46.771070000" lon="-72.941500000">
<ele>0</ele>
<time>2026-09-04T06:54:13Z</time>
</trkpt>
<trkpt lat="46.770830000" lon="-72.941090000">
<ele>0</ele>
<time>2026-09-04T06:54:14Z</time>
</trkpt>
<trkpt lat="46.770700000" lon="-72.940770000">
<ele>0</ele>
<time>2026-09-04T06:54:15Z</time>
</trkpt>
<trkpt lat="46.770480000" lon="-72.940140000">
<ele>0</ele>
<time>2026-09-04T06:54:16Z</time>
</trkpt>
<trkpt lat="46.770310000" lon="-72.939310000">
<ele>0</ele>
<time>2026-09-04T06:54:17Z</time>
</trkpt>
<trkpt lat="46.770040000" lon="-72.938060000">
<ele>0</ele>
<time>2026-09-04T06:54:18Z</time>
</trkpt>
<trkpt lat="46.769920000" lon="-72.937460000">
<ele>0</ele>
<time>2026-09-04T06:54:19Z</time>
</trkpt>
<trkpt lat="46.769870000" lon="-72.937040000">
<ele>0</ele>
<time>2026-09-04T06:54:20Z</time>
</trkpt>
<trkpt lat="46.769890000" lon="-72.936640000">
<ele>0</ele>
<time>2026-09-04T06:54:21Z</time>
</trkpt>
<trkpt lat="46.769960000" lon="-72.936000000">
<ele>0</ele>
<time>2026-09-04T06:54:22Z</time>
</trkpt>
<trkpt lat="46.770110000" lon="-72.934970000">
<ele>0</ele>
<time>2026-09-04T06:54:23Z</time>
</trkpt>
<trkpt lat="46.770210000" lon="-72.934200000">
<ele>0</ele>
<time>2026-09-04T06:54:24Z</time>
</trkpt>
<trkpt lat="46.770220000" lon="-72.933410000">
<ele>0</ele>
<time>2026-09-04T06:54:25Z</time>
</trkpt>
<trkpt lat="46.770200000" lon="-72.932630000">
<ele>0</ele>
<time>2026-09-04T06:54:26Z</time>
</trkpt>
<trkpt lat="46.770210000" lon="-72.932370000">
<ele>0</ele>
<time>2026-09-04T06:54:27Z</time>
</trkpt>
<trkpt lat="46.770230000" lon="-72.932110000">
<ele>0</ele>
<time>2026-09-04T06:54:28Z</time>
</trkpt>
<trkpt lat="46.770270000" lon="-72.931840000">
<ele>0</ele>
<time>2026-09-04T06:54:29Z</time>
</trkpt>
<trkpt lat="46.770390000" lon="-72.931350000">
<ele>0</ele>
<time>2026-09-04T06:54:30Z</time>
</trkpt>
<trkpt lat="46.770450000" lon="-72.931150000">
<ele>0</ele>
<time>2026-09-04T06:54:31Z</time>
</trkpt>
<trkpt lat="46.770450000" lon="-72.931150000">
<ele>0</ele>
<time>2026-09-04T06:54:32Z</time>
</trkpt>
<trkpt lat="46.770660000" lon="-72.930680000">
<ele>0</ele>
<time>2026-09-04T06:54:33Z</time>
</trkpt>
<trkpt lat="46.771070000" lon="-72.929810000">
<ele>0</ele>
<time>2026-09-04T06:54:34Z</time>
</trkpt>
<trkpt lat="46.771260000" lon="-72.929410000">
<ele>0</ele>
<time>2026-09-04T06:54:35Z</time>
</trkpt>
<trkpt lat="46.771400000" lon="-72.929190000">
<ele>0</ele>
<time>2026-09-04T06:54:36Z</time>
</trkpt>
<trkpt lat="46.771520000" lon="-72.929000000">
<ele>0</ele>
<time>2026-09-04T06:54:37Z</time>
</trkpt>
<trkpt lat="46.771780000" lon="-72.928770000">
<ele>0</ele>
<time>2026-09-04T06:54:38Z</time>
</trkpt>
<trkpt lat="46.772250000" lon="-72.928550000">
<ele>0</ele>
<time>2026-09-04T06:54:39Z</time>
</trkpt>
<trkpt lat="46.772520000" lon="-72.928420000">
<ele>0</ele>
<time>2026-09-04T06:54:40Z</time>
</trkpt>
<trkpt lat="46.772690000" lon="-72.928330000">
<ele>0</ele>
<time>2026-09-04T06:54:41Z</time>
</trkpt>
<trkpt lat="46.772900000" lon="-72.928170000">
<ele>0</ele>
<time>2026-09-04T06:54:42Z</time>
</trkpt>
<trkpt lat="46.773070000" lon="-72.927970000">
<ele>0</ele>
<time>2026-09-04T06:54:43Z</time>
</trkpt>
<trkpt lat="46.773310000" lon="-72.927500000">
<ele>0</ele>
<time>2026-09-04T06:54:44Z</time>
</trkpt>
<trkpt lat="46.773420000" lon="-72.927120000">
<ele>0</ele>
<time>2026-09-04T06:54:45Z</time>
</trkpt>
<trkpt lat="46.773470000" lon="-72.926430000">
<ele>0</ele>
<time>2026-09-04T06:54:46Z</time>
</trkpt>
<trkpt lat="46.773500000" lon="-72.924850000">
<ele>0</ele>
<time>2026-09-04T06:54:47Z</time>
</trkpt>
<trkpt lat="46.773500000" lon="-72.924330000">
<ele>0</ele>
<time>2026-09-04T06:54:48Z</time>
</trkpt>
<trkpt lat="46.773480000" lon="-72.924070000">
<ele>0</ele>
<time>2026-09-04T06:54:49Z</time>
</trkpt>
<trkpt lat="46.773380000" lon="-72.923610000">
<ele>0</ele>
<time>2026-09-04T06:54:50Z</time>
</trkpt>
<trkpt lat="46.773290000" lon="-72.923330000">
<ele>0</ele>
<time>2026-09-04T06:54:51Z</time>
</trkpt>
<trkpt lat="46.773060000" lon="-72.922750000">
<ele>0</ele>
<time>2026-09-04T06:54:52Z</time>
</trkpt>
<trkpt lat="46.772890000" lon="-72.922480000">
<ele>0</ele>
<time>2026-09-04T06:54:53Z</time>
</trkpt>
<trkpt lat="46.772700000" lon="-72.922070000">
<ele>0</ele>
<time>2026-09-04T06:54:54Z</time>
</trkpt>
<trkpt lat="46.772470000" lon="-72.921520000">
<ele>0</ele>
<time>2026-09-04T06:54:55Z</time>
</trkpt>
<trkpt lat="46.772400000" lon="-72.921210000">
<ele>0</ele>
<time>2026-09-04T06:54:56Z</time>
</trkpt>
<trkpt lat="46.772370000" lon="-72.920870000">
<ele>0</ele>
<time>2026-09-04T06:54:57Z</time>
</trkpt>
<trkpt lat="46.772370000" lon="-72.920500000">
<ele>0</ele>
<time>2026-09-04T06:54:58Z</time>
</trkpt>
<trkpt lat="46.772380000" lon="-72.920190000">
<ele>0</ele>
<time>2026-09-04T06:54:59Z</time>
</trkpt>
<trkpt lat="46.772440000" lon="-72.919820000">
<ele>0</ele>
<time>2026-09-04T06:55:00Z</time>
</trkpt>
<trkpt lat="46.772520000" lon="-72.919310000">
<ele>0</ele>
<time>2026-09-04T06:55:01Z</time>
</trkpt>
<trkpt lat="46.772270000" lon="-72.919230000">
<ele>0</ele>
<time>2026-09-04T06:55:02Z</time>
</trkpt>
<trkpt lat="46.772270000" lon="-72.919230000">
<ele>0</ele>
<time>2026-09-04T06:55:03Z</time>
</trkpt>
<trkpt lat="46.772190000" lon="-72.919210000">
<ele>0</ele>
<time>2026-09-04T06:55:04Z</time>
</trkpt>
<trkpt lat="46.772030000" lon="-72.919110000">
<ele>0</ele>
<time>2026-09-04T06:55:05Z</time>
</trkpt>
<trkpt lat="46.771900000" lon="-72.918920000">
<ele>0</ele>
<time>2026-09-04T06:55:06Z</time>
</trkpt>
<trkpt lat="46.771800000" lon="-72.918720000">
<ele>0</ele>
<time>2026-09-04T06:55:07Z</time>
</trkpt>
<trkpt lat="46.771750000" lon="-72.918540000">
<ele>0</ele>
<time>2026-09-04T06:55:08Z</time>
</trkpt>
<trkpt lat="46.771660000" lon="-72.918350000">
<ele>0</ele>
<time>2026-09-04T06:55:09Z</time>
</trkpt>
<trkpt lat="46.771530000" lon="-72.918210000">
<ele>0</ele>
<time>2026-09-04T06:55:10Z</time>
</trkpt>
<trkpt lat="46.771420000" lon="-72.918120000">
<ele>0</ele>
<time>2026-09-04T06:55:11Z</time>
</trkpt>
<trkpt lat="46.771140000" lon="-72.918090000">
<ele>0</ele>
<time>2026-09-04T06:55:12Z</time>
</trkpt>
<trkpt lat="46.771080000" lon="-72.918100000">
<ele>0</ele>
<time>2026-09-04T06:55:13Z</time>
</trkpt>
<trkpt lat="46.770980000" lon="-72.918130000">
<ele>0</ele>
<time>2026-09-04T06:55:14Z</time>
</trkpt>
<trkpt lat="46.770920000" lon="-72.918180000">
<ele>0</ele>
<time>2026-09-04T06:55:15Z</time>
</trkpt>
<trkpt lat="46.770790000" lon="-72.918350000">
<ele>0</ele>
<time>2026-09-04T06:55:16Z</time>
</trkpt>
<trkpt lat="46.770490000" lon="-72.918800000">
<ele>0</ele>
<time>2026-09-04T06:55:17Z</time>
</trkpt>
<trkpt lat="46.770360000" lon="-72.918900000">
<ele>0</ele>
<time>2026-09-04T06:55:18Z</time>
</trkpt>
<trkpt lat="46.770220000" lon="-72.918930000">
<ele>0</ele>
<time>2026-09-04T06:55:19Z</time>
</trkpt>
<trkpt lat="46.770050000" lon="-72.918940000">
<ele>0</ele>
<time>2026-09-04T06:55:20Z</time>
</trkpt>
<trkpt lat="46.769870000" lon="-72.918850000">
<ele>0</ele>
<time>2026-09-04T06:55:21Z</time>
</trkpt>
<trkpt lat="46.769770000" lon="-72.918770000">
<ele>0</ele>
<time>2026-09-04T06:55:22Z</time>
</trkpt>
<trkpt lat="46.769720000" lon="-72.918700000">
<ele>0</ele>
<time>2026-09-04T06:55:23Z</time>
</trkpt>
<trkpt lat="46.769590000" lon="-72.918520000">
<ele>0</ele>
<time>2026-09-04T06:55:24Z</time>
</trkpt>
<trkpt lat="46.769440000" lon="-72.918380000">
<ele>0</ele>
<time>2026-09-04T06:55:25Z</time>
</trkpt>
<trkpt lat="46.769290000" lon="-72.918280000">
<ele>0</ele>
<time>2026-09-04T06:55:26Z</time>
</trkpt>
<trkpt lat="46.769030000" lon="-72.918330000">
<ele>0</ele>
<time>2026-09-04T06:55:27Z</time>
</trkpt>
<trkpt lat="46.768760000" lon="-72.918490000">
<ele>0</ele>
<time>2026-09-04T06:55:28Z</time>
</trkpt>
<trkpt lat="46.768360000" lon="-72.918760000">
<ele>0</ele>
<time>2026-09-04T06:55:29Z</time>
</trkpt>
<trkpt lat="46.768040000" lon="-72.918930000">
<ele>0</ele>
<time>2026-09-04T06:55:30Z</time>
</trkpt>
<trkpt lat="46.767620000" lon="-72.919060000">
<ele>0</ele>
<time>2026-09-04T06:55:31Z</time>
</trkpt>
<trkpt lat="46.767220000" lon="-72.919150000">
<ele>0</ele>
<time>2026-09-04T06:55:32Z</time>
</trkpt>
<trkpt lat="46.766990000" lon="-72.919160000">
<ele>0</ele>
<time>2026-09-04T06:55:33Z</time>
</trkpt>
<trkpt lat="46.766880000" lon="-72.919160000">
<ele>0</ele>
<time>2026-09-04T06:55:34Z</time>
</trkpt>
<trkpt lat="46.766790000" lon="-72.919220000">
<ele>0</ele>
<time>2026-09-04T06:55:35Z</time>
</trkpt>
<trkpt lat="46.766750000" lon="-72.919240000">
<ele>0</ele>
<time>2026-09-04T06:55:36Z</time>
</trkpt>
<trkpt lat="46.766690000" lon="-72.919360000">
<ele>0</ele>
<time>2026-09-04T06:55:37Z</time>
</trkpt>
<trkpt lat="46.766620000" lon="-72.919510000">
<ele>0</ele>
<time>2026-09-04T06:55:38Z</time>
</trkpt>
<trkpt lat="46.766560000" lon="-72.919820000">
<ele>0</ele>
<time>2026-09-04T06:55:39Z</time>
</trkpt>
<trkpt lat="46.766540000" lon="-72.920280000">
<ele>0</ele>
<time>2026-09-04T06:55:40Z</time>
</trkpt>
<trkpt lat="46.766540000" lon="-72.920280000">
<ele>0</ele>
<time>2026-09-04T06:55:41Z</time>
</trkpt>
<trkpt lat="46.766560000" lon="-72.919920000">
<ele>0</ele>
<time>2026-09-04T06:55:42Z</time>
</trkpt>
<trkpt lat="46.766590000" lon="-72.919610000">
<ele>0</ele>
<time>2026-09-04T06:55:43Z</time>
</trkpt>
<trkpt lat="46.766690000" lon="-72.919360000">
<ele>0</ele>
<time>2026-09-04T06:55:44Z</time>
</trkpt>
<trkpt lat="46.766750000" lon="-72.919240000">
<ele>0</ele>
<time>2026-09-04T06:55:45Z</time>
</trkpt>
<trkpt lat="46.766790000" lon="-72.919220000">
<ele>0</ele>
<time>2026-09-04T06:55:46Z</time>
</trkpt>
<trkpt lat="46.766880000" lon="-72.919160000">
<ele>0</ele>
<time>2026-09-04T06:55:47Z</time>
</trkpt>
<trkpt lat="46.766990000" lon="-72.919160000">
<ele>0</ele>
<time>2026-09-04T06:55:48Z</time>
</trkpt>
<trkpt lat="46.767220000" lon="-72.919150000">
<ele>0</ele>
<time>2026-09-04T06:55:49Z</time>
</trkpt>
<trkpt lat="46.767620000" lon="-72.919060000">
<ele>0</ele>
<time>2026-09-04T06:55:50Z</time>
</trkpt>
<trkpt lat="46.768040000" lon="-72.918930000">
<ele>0</ele>
<time>2026-09-04T06:55:51Z</time>
</trkpt>
<trkpt lat="46.768230000" lon="-72.918840000">
<ele>0</ele>
<time>2026-09-04T06:55:52Z</time>
</trkpt>
<trkpt lat="46.768600000" lon="-72.918600000">
<ele>0</ele>
<time>2026-09-04T06:55:53Z</time>
</trkpt>
<trkpt lat="46.769030000" lon="-72.918330000">
<ele>0</ele>
<time>2026-09-04T06:55:54Z</time>
</trkpt>
<trkpt lat="46.769290000" lon="-72.918280000">
<ele>0</ele>
<time>2026-09-04T06:55:55Z</time>
</trkpt>
<trkpt lat="46.769440000" lon="-72.918380000">
<ele>0</ele>
<time>2026-09-04T06:55:56Z</time>
</trkpt>
<trkpt lat="46.769590000" lon="-72.918520000">
<ele>0</ele>
<time>2026-09-04T06:55:57Z</time>
</trkpt>
<trkpt lat="46.769720000" lon="-72.918700000">
<ele>0</ele>
<time>2026-09-04T06:55:58Z</time>
</trkpt>
<trkpt lat="46.769770000" lon="-72.918770000">
<ele>0</ele>
<time>2026-09-04T06:55:59Z</time>
</trkpt>
<trkpt lat="46.769870000" lon="-72.918850000">
<ele>0</ele>
<time>2026-09-04T06:56:00Z</time>
</trkpt>
<trkpt lat="46.769970000" lon="-72.918910000">
<ele>0</ele>
<time>2026-09-04T06:56:01Z</time>
</trkpt>
<trkpt lat="46.770050000" lon="-72.918940000">
<ele>0</ele>
<time>2026-09-04T06:56:02Z</time>
</trkpt>
<trkpt lat="46.770220000" lon="-72.918930000">
<ele>0</ele>
<time>2026-09-04T06:56:03Z</time>
</trkpt>
<trkpt lat="46.770360000" lon="-72.918900000">
<ele>0</ele>
<time>2026-09-04T06:56:04Z</time>
</trkpt>
<trkpt lat="46.770490000" lon="-72.918800000">
<ele>0</ele>
<time>2026-09-04T06:56:05Z</time>
</trkpt>
<trkpt lat="46.770660000" lon="-72.918540000">
<ele>0</ele>
<time>2026-09-04T06:56:06Z</time>
</trkpt>
<trkpt lat="46.770790000" lon="-72.918350000">
<ele>0</ele>
<time>2026-09-04T06:56:07Z</time>
</trkpt>
<trkpt lat="46.770920000" lon="-72.918180000">
<ele>0</ele>
<time>2026-09-04T06:56:08Z</time>
</trkpt>
<trkpt lat="46.770980000" lon="-72.918130000">
<ele>0</ele>
<time>2026-09-04T06:56:09Z</time>
</trkpt>
<trkpt lat="46.771080000" lon="-72.918100000">
<ele>0</ele>
<time>2026-09-04T06:56:10Z</time>
</trkpt>
<trkpt lat="46.771140000" lon="-72.918090000">
<ele>0</ele>
<time>2026-09-04T06:56:11Z</time>
</trkpt>
<trkpt lat="46.771420000" lon="-72.918120000">
<ele>0</ele>
<time>2026-09-04T06:56:12Z</time>
</trkpt>
<trkpt lat="46.771530000" lon="-72.918210000">
<ele>0</ele>
<time>2026-09-04T06:56:13Z</time>
</trkpt>
<trkpt lat="46.771660000" lon="-72.918350000">
<ele>0</ele>
<time>2026-09-04T06:56:14Z</time>
</trkpt>
<trkpt lat="46.771750000" lon="-72.918540000">
<ele>0</ele>
<time>2026-09-04T06:56:15Z</time>
</trkpt>
<trkpt lat="46.771800000" lon="-72.918720000">
<ele>0</ele>
<time>2026-09-04T06:56:16Z</time>
</trkpt>
<trkpt lat="46.771900000" lon="-72.918920000">
<ele>0</ele>
<time>2026-09-04T06:56:17Z</time>
</trkpt>
<trkpt lat="46.772030000" lon="-72.919110000">
<ele>0</ele>
<time>2026-09-04T06:56:18Z</time>
</trkpt>
<trkpt lat="46.772190000" lon="-72.919210000">
<ele>0</ele>
<time>2026-09-04T06:56:19Z</time>
</trkpt>
<trkpt lat="46.772520000" lon="-72.919310000">
<ele>0</ele>
<time>2026-09-04T06:56:20Z</time>
</trkpt>
<trkpt lat="46.772600000" lon="-72.918840000">
<ele>0</ele>
<time>2026-09-04T06:56:21Z</time>
</trkpt>
<trkpt lat="46.772650000" lon="-72.918440000">
<ele>0</ele>
<time>2026-09-04T06:56:22Z</time>
</trkpt>
<trkpt lat="46.772670000" lon="-72.918090000">
<ele>0</ele>
<time>2026-09-04T06:56:23Z</time>
</trkpt>
<trkpt lat="46.772670000" lon="-72.917950000">
<ele>0</ele>
<time>2026-09-04T06:56:24Z</time>
</trkpt>
<trkpt lat="46.772670000" lon="-72.917950000">
<ele>0</ele>
<time>2026-09-04T06:56:25Z</time>
</trkpt>
<trkpt lat="46.772660000" lon="-72.917680000">
<ele>0</ele>
<time>2026-09-04T06:56:26Z</time>
</trkpt>
<trkpt lat="46.772630000" lon="-72.917550000">
<ele>0</ele>
<time>2026-09-04T06:56:27Z</time>
</trkpt>
<trkpt lat="46.772580000" lon="-72.917300000">
<ele>0</ele>
<time>2026-09-04T06:56:28Z</time>
</trkpt>
<trkpt lat="46.772490000" lon="-72.917070000">
<ele>0</ele>
<time>2026-09-04T06:56:29Z</time>
</trkpt>
<trkpt lat="46.772380000" lon="-72.916860000">
<ele>0</ele>
<time>2026-09-04T06:56:30Z</time>
</trkpt>
<trkpt lat="46.772270000" lon="-72.916660000">
<ele>0</ele>
<time>2026-09-04T06:56:31Z</time>
</trkpt>
<trkpt lat="46.771980000" lon="-72.916350000">
<ele>0</ele>
<time>2026-09-04T06:56:32Z</time>
</trkpt>
<trkpt lat="46.771590000" lon="-72.915940000">
<ele>0</ele>
<time>2026-09-04T06:56:33Z</time>
</trkpt>
<trkpt lat="46.771310000" lon="-72.915490000">
<ele>0</ele>
<time>2026-09-04T06:56:34Z</time>
</trkpt>
<trkpt lat="46.771160000" lon="-72.915240000">
<ele>0</ele>
<time>2026-09-04T06:56:35Z</time>
</trkpt>
<trkpt lat="46.771110000" lon="-72.915060000">
<ele>0</ele>
<time>2026-09-04T06:56:36Z</time>
</trkpt>
<trkpt lat="46.770970000" lon="-72.914530000">
<ele>0</ele>
<time>2026-09-04T06:56:37Z</time>
</trkpt>
<trkpt lat="46.770930000" lon="-72.913780000">
<ele>0</ele>
<time>2026-09-04T06:56:38Z</time>
</trkpt>
<trkpt lat="46.770950000" lon="-72.913160000">
<ele>0</ele>
<time>2026-09-04T06:56:39Z</time>
</trkpt>
<trkpt lat="46.771010000" lon="-72.912880000">
<ele>0</ele>
<time>2026-09-04T06:56:40Z</time>
</trkpt>
<trkpt lat="46.771140000" lon="-72.912540000">
<ele>0</ele>
<time>2026-09-04T06:56:41Z</time>
</trkpt>
<trkpt lat="46.771460000" lon="-72.911900000">
<ele>0</ele>
<time>2026-09-04T06:56:42Z</time>
</trkpt>
<trkpt lat="46.771680000" lon="-72.911490000">
<ele>0</ele>
<time>2026-09-04T06:56:43Z</time>
</trkpt>
<trkpt lat="46.771780000" lon="-72.911260000">
<ele>0</ele>
<time>2026-09-04T06:56:44Z</time>
</trkpt>
<trkpt lat="46.772020000" lon="-72.910560000">
<ele>0</ele>
<time>2026-09-04T06:56:45Z</time>
</trkpt>
<trkpt lat="46.772230000" lon="-72.909840000">
<ele>0</ele>
<time>2026-09-04T06:56:46Z</time>
</trkpt>
<trkpt lat="46.772390000" lon="-72.909370000">
<ele>0</ele>
<time>2026-09-04T06:56:47Z</time>
</trkpt>
<trkpt lat="46.772590000" lon="-72.908960000">
<ele>0</ele>
<time>2026-09-04T06:56:48Z</time>
</trkpt>
<trkpt lat="46.772840000" lon="-72.908550000">
<ele>0</ele>
<time>2026-09-04T06:56:49Z</time>
</trkpt>
<trkpt lat="46.773080000" lon="-72.908160000">
<ele>0</ele>
<time>2026-09-04T06:56:50Z</time>
</trkpt>
<trkpt lat="46.773160000" lon="-72.908010000">
<ele>0</ele>
<time>2026-09-04T06:56:51Z</time>
</trkpt>
<trkpt lat="46.773260000" lon="-72.907710000">
<ele>0</ele>
<time>2026-09-04T06:56:52Z</time>
</trkpt>
<trkpt lat="46.773320000" lon="-72.907460000">
<ele>0</ele>
<time>2026-09-04T06:56:53Z</time>
</trkpt>
<trkpt lat="46.773350000" lon="-72.907200000">
<ele>0</ele>
<time>2026-09-04T06:56:54Z</time>
</trkpt>
<trkpt lat="46.773350000" lon="-72.906940000">
<ele>0</ele>
<time>2026-09-04T06:56:55Z</time>
</trkpt>
<trkpt lat="46.773320000" lon="-72.906680000">
<ele>0</ele>
<time>2026-09-04T06:56:56Z</time>
</trkpt>
<trkpt lat="46.773200000" lon="-72.906180000">
<ele>0</ele>
<time>2026-09-04T06:56:57Z</time>
</trkpt>
<trkpt lat="46.773150000" lon="-72.905930000">
<ele>0</ele>
<time>2026-09-04T06:56:58Z</time>
</trkpt>
<trkpt lat="46.772920000" lon="-72.905220000">
<ele>0</ele>
<time>2026-09-04T06:56:59Z</time>
</trkpt>
<trkpt lat="46.772700000" lon="-72.904500000">
<ele>0</ele>
<time>2026-09-04T06:57:00Z</time>
</trkpt>
<trkpt lat="46.772650000" lon="-72.904180000">
<ele>0</ele>
<time>2026-09-04T06:57:01Z</time>
</trkpt>
<trkpt lat="46.772650000" lon="-72.904180000">
<ele>0</ele>
<time>2026-09-04T06:57:02Z</time>
</trkpt>
<trkpt lat="46.772480000" lon="-72.902690000">
<ele>0</ele>
<time>2026-09-04T06:57:03Z</time>
</trkpt>
<trkpt lat="46.772260000" lon="-72.901690000">
<ele>0</ele>
<time>2026-09-04T06:57:04Z</time>
</trkpt>
<trkpt lat="46.772160000" lon="-72.900820000">
<ele>0</ele>
<time>2026-09-04T06:57:05Z</time>
</trkpt>
<trkpt lat="46.772200000" lon="-72.900130000">
<ele>0</ele>
<time>2026-09-04T06:57:06Z</time>
</trkpt>
<trkpt lat="46.772230000" lon="-72.899870000">
<ele>0</ele>
<time>2026-09-04T06:57:07Z</time>
</trkpt>
<trkpt lat="46.772330000" lon="-72.899360000">
<ele>0</ele>
<time>2026-09-04T06:57:08Z</time>
</trkpt>
<trkpt lat="46.772480000" lon="-72.898900000">
<ele>0</ele>
<time>2026-09-04T06:57:09Z</time>
</trkpt>
<trkpt lat="46.772670000" lon="-72.898440000">
<ele>0</ele>
<time>2026-09-04T06:57:10Z</time>
</trkpt>
<trkpt lat="46.773000000" lon="-72.897910000">
<ele>0</ele>
<time>2026-09-04T06:57:11Z</time>
</trkpt>
<trkpt lat="46.773440000" lon="-72.897330000">
<ele>0</ele>
<time>2026-09-04T06:57:12Z</time>
</trkpt>
<trkpt lat="46.773960000" lon="-72.896610000">
<ele>0</ele>
<time>2026-09-04T06:57:13Z</time>
</trkpt>
<trkpt lat="46.774200000" lon="-72.896230000">
<ele>0</ele>
<time>2026-09-04T06:57:14Z</time>
</trkpt>
<trkpt lat="46.774350000" lon="-72.896000000">
<ele>0</ele>
<time>2026-09-04T06:57:15Z</time>
</trkpt>
<trkpt lat="46.774420000" lon="-72.895820000">
<ele>0</ele>
<time>2026-09-04T06:57:16Z</time>
</trkpt>
<trkpt lat="46.774590000" lon="-72.895440000">
<ele>0</ele>
<time>2026-09-04T06:57:17Z</time>
</trkpt>
<trkpt lat="46.774680000" lon="-72.895130000">
<ele>0</ele>
<time>2026-09-04T06:57:18Z</time>
</trkpt>
<trkpt lat="46.774850000" lon="-72.894380000">
<ele>0</ele>
<time>2026-09-04T06:57:19Z</time>
</trkpt>
<trkpt lat="46.775170000" lon="-72.892600000">
<ele>0</ele>
<time>2026-09-04T06:57:20Z</time>
</trkpt>
<trkpt lat="46.775300000" lon="-72.892110000">
<ele>0</ele>
<time>2026-09-04T06:57:21Z</time>
</trkpt>
<trkpt lat="46.775390000" lon="-72.891810000">
<ele>0</ele>
<time>2026-09-04T06:57:22Z</time>
</trkpt>
<trkpt lat="46.775620000" lon="-72.891170000">
<ele>0</ele>
<time>2026-09-04T06:57:23Z</time>
</trkpt>
<trkpt lat="46.775720000" lon="-72.890780000">
<ele>0</ele>
<time>2026-09-04T06:57:24Z</time>
</trkpt>
<trkpt lat="46.775770000" lon="-72.890420000">
<ele>0</ele>
<time>2026-09-04T06:57:25Z</time>
</trkpt>
<trkpt lat="46.775780000" lon="-72.890160000">
<ele>0</ele>
<time>2026-09-04T06:57:26Z</time>
</trkpt>
<trkpt lat="46.775780000" lon="-72.889880000">
<ele>0</ele>
<time>2026-09-04T06:57:27Z</time>
</trkpt>
<trkpt lat="46.775760000" lon="-72.889540000">
<ele>0</ele>
<time>2026-09-04T06:57:28Z</time>
</trkpt>
<trkpt lat="46.775680000" lon="-72.889120000">
<ele>0</ele>
<time>2026-09-04T06:57:29Z</time>
</trkpt>
<trkpt lat="46.775510000" lon="-72.888660000">
<ele>0</ele>
<time>2026-09-04T06:57:30Z</time>
</trkpt>
<trkpt lat="46.775150000" lon="-72.888070000">
<ele>0</ele>
<time>2026-09-04T06:57:31Z</time>
</trkpt>
<trkpt lat="46.775150000" lon="-72.888070000">
<ele>0</ele>
<time>2026-09-04T06:57:32Z</time>
</trkpt>
<trkpt lat="46.774780000" lon="-72.887600000">
<ele>0</ele>
<time>2026-09-04T06:57:33Z</time>
</trkpt>
<trkpt lat="46.774510000" lon="-72.887240000">
<ele>0</ele>
<time>2026-09-04T06:57:34Z</time>
</trkpt>
<trkpt lat="46.774380000" lon="-72.886940000">
<ele>0</ele>
<time>2026-09-04T06:57:35Z</time>
</trkpt>
<trkpt lat="46.774270000" lon="-72.886600000">
<ele>0</ele>
<time>2026-09-04T06:57:36Z</time>
</trkpt>
<trkpt lat="46.774200000" lon="-72.886200000">
<ele>0</ele>
<time>2026-09-04T06:57:37Z</time>
</trkpt>
<trkpt lat="46.774190000" lon="-72.885940000">
<ele>0</ele>
<time>2026-09-04T06:57:38Z</time>
</trkpt>
<trkpt lat="46.774190000" lon="-72.885410000">
<ele>0</ele>
<time>2026-09-04T06:57:39Z</time>
</trkpt>
<trkpt lat="46.774200000" lon="-72.884630000">
<ele>0</ele>
<time>2026-09-04T06:57:40Z</time>
</trkpt>
<trkpt lat="46.774220000" lon="-72.883840000">
<ele>0</ele>
<time>2026-09-04T06:57:41Z</time>
</trkpt>
<trkpt lat="46.774260000" lon="-72.882820000">
<ele>0</ele>
<time>2026-09-04T06:57:42Z</time>
</trkpt>
<trkpt lat="46.774230000" lon="-72.882270000">
<ele>0</ele>
<time>2026-09-04T06:57:43Z</time>
</trkpt>
<trkpt lat="46.774190000" lon="-72.882010000">
<ele>0</ele>
<time>2026-09-04T06:57:44Z</time>
</trkpt>
<trkpt lat="46.774090000" lon="-72.881760000">
<ele>0</ele>
<time>2026-09-04T06:57:45Z</time>
</trkpt>
<trkpt lat="46.773900000" lon="-72.881390000">
<ele>0</ele>
<time>2026-09-04T06:57:46Z</time>
</trkpt>
<trkpt lat="46.773650000" lon="-72.881110000">
<ele>0</ele>
<time>2026-09-04T06:57:47Z</time>
</trkpt>
<trkpt lat="46.773430000" lon="-72.880950000">
<ele>0</ele>
<time>2026-09-04T06:57:48Z</time>
</trkpt>
<trkpt lat="46.773260000" lon="-72.880880000">
<ele>0</ele>
<time>2026-09-04T06:57:49Z</time>
</trkpt>
<trkpt lat="46.773130000" lon="-72.880850000">
<ele>0</ele>
<time>2026-09-04T06:57:50Z</time>
</trkpt>
<trkpt lat="46.773130000" lon="-72.880850000">
<ele>0</ele>
<time>2026-09-04T06:57:51Z</time>
</trkpt>
<trkpt lat="46.772900000" lon="-72.880840000">
<ele>0</ele>
<time>2026-09-04T06:57:52Z</time>
</trkpt>
<trkpt lat="46.772720000" lon="-72.880860000">
<ele>0</ele>
<time>2026-09-04T06:57:53Z</time>
</trkpt>
<trkpt lat="46.772440000" lon="-72.880900000">
<ele>0</ele>
<time>2026-09-04T06:57:54Z</time>
</trkpt>
<trkpt lat="46.772130000" lon="-72.880920000">
<ele>0</ele>
<time>2026-09-04T06:57:55Z</time>
</trkpt>
<trkpt lat="46.772000000" lon="-72.880890000">
<ele>0</ele>
<time>2026-09-04T06:57:56Z</time>
</trkpt>
<trkpt lat="46.771880000" lon="-72.880860000">
<ele>0</ele>
<time>2026-09-04T06:57:57Z</time>
</trkpt>
<trkpt lat="46.771640000" lon="-72.880730000">
<ele>0</ele>
<time>2026-09-04T06:57:58Z</time>
</trkpt>
<trkpt lat="46.771410000" lon="-72.880510000">
<ele>0</ele>
<time>2026-09-04T06:57:59Z</time>
</trkpt>
<trkpt lat="46.771230000" lon="-72.880270000">
<ele>0</ele>
<time>2026-09-04T06:58:00Z</time>
</trkpt>
<trkpt lat="46.771140000" lon="-72.880040000">
<ele>0</ele>
<time>2026-09-04T06:58:01Z</time>
</trkpt>
<trkpt lat="46.771050000" lon="-72.879810000">
<ele>0</ele>
<time>2026-09-04T06:58:02Z</time>
</trkpt>
<trkpt lat="46.771000000" lon="-72.879570000">
<ele>0</ele>
<time>2026-09-04T06:58:03Z</time>
</trkpt>
<trkpt lat="46.770810000" lon="-72.878820000">
<ele>0</ele>
<time>2026-09-04T06:58:04Z</time>
</trkpt>
<trkpt lat="46.770750000" lon="-72.878580000">
<ele>0</ele>
<time>2026-09-04T06:58:05Z</time>
</trkpt>
<trkpt lat="46.770530000" lon="-72.878160000">
<ele>0</ele>
<time>2026-09-04T06:58:06Z</time>
</trkpt>
<trkpt lat="46.770410000" lon="-72.877970000">
<ele>0</ele>
<time>2026-09-04T06:58:07Z</time>
</trkpt>
<trkpt lat="46.770250000" lon="-72.877780000">
<ele>0</ele>
<time>2026-09-04T06:58:08Z</time>
</trkpt>
<trkpt lat="46.769970000" lon="-72.877530000">
<ele>0</ele>
<time>2026-09-04T06:58:09Z</time>
</trkpt>
<trkpt lat="46.769640000" lon="-72.877290000">
<ele>0</ele>
<time>2026-09-04T06:58:10Z</time>
</trkpt>
<trkpt lat="46.769170000" lon="-72.876920000">
<ele>0</ele>
<time>2026-09-04T06:58:11Z</time>
</trkpt>
<trkpt lat="46.769060000" lon="-72.876840000">
<ele>0</ele>
<time>2026-09-04T06:58:12Z</time>
</trkpt>
<trkpt lat="46.768880000" lon="-72.876620000">
<ele>0</ele>
<time>2026-09-04T06:58:13Z</time>
</trkpt>
<trkpt lat="46.768740000" lon="-72.876440000">
<ele>0</ele>
<time>2026-09-04T06:58:14Z</time>
</trkpt>
<trkpt lat="46.768490000" lon="-72.875870000">
<ele>0</ele>
<time>2026-09-04T06:58:15Z</time>
</trkpt>
<trkpt lat="46.768360000" lon="-72.875400000">
<ele>0</ele>
<time>2026-09-04T06:58:16Z</time>
</trkpt>
<trkpt lat="46.768350000" lon="-72.875010000">
<ele>0</ele>
<time>2026-09-04T06:58:17Z</time>
</trkpt>
<trkpt lat="46.768360000" lon="-72.874750000">
<ele>0</ele>
<time>2026-09-04T06:58:18Z</time>
</trkpt>
<trkpt lat="46.768420000" lon="-72.874300000">
<ele>0</ele>
<time>2026-09-04T06:58:19Z</time>
</trkpt>
<trkpt lat="46.768550000" lon="-72.873870000">
<ele>0</ele>
<time>2026-09-04T06:58:20Z</time>
</trkpt>
<trkpt lat="46.768700000" lon="-72.873550000">
<ele>0</ele>
<time>2026-09-04T06:58:21Z</time>
</trkpt>
<trkpt lat="46.768810000" lon="-72.873350000">
<ele>0</ele>
<time>2026-09-04T06:58:22Z</time>
</trkpt>
<trkpt lat="46.768940000" lon="-72.873180000">
<ele>0</ele>
<time>2026-09-04T06:58:23Z</time>
</trkpt>
<trkpt lat="46.769090000" lon="-72.873020000">
<ele>0</ele>
<time>2026-09-04T06:58:24Z</time>
</trkpt>
<trkpt lat="46.769450000" lon="-72.872650000">
<ele>0</ele>
<time>2026-09-04T06:58:25Z</time>
</trkpt>
<trkpt lat="46.769660000" lon="-72.872400000">
<ele>0</ele>
<time>2026-09-04T06:58:26Z</time>
</trkpt>
<trkpt lat="46.769790000" lon="-72.872210000">
<ele>0</ele>
<time>2026-09-04T06:58:27Z</time>
</trkpt>
<trkpt lat="46.770040000" lon="-72.871780000">
<ele>0</ele>
<time>2026-09-04T06:58:28Z</time>
</trkpt>
<trkpt lat="46.770180000" lon="-72.871260000">
<ele>0</ele>
<time>2026-09-04T06:58:29Z</time>
</trkpt>
<trkpt lat="46.770350000" lon="-72.870730000">
<ele>0</ele>
<time>2026-09-04T06:58:30Z</time>
</trkpt>
<trkpt lat="46.770520000" lon="-72.870400000">
<ele>0</ele>
<time>2026-09-04T06:58:31Z</time>
</trkpt>
<trkpt lat="46.770740000" lon="-72.870080000">
<ele>0</ele>
<time>2026-09-04T06:58:32Z</time>
</trkpt>
<trkpt lat="46.771000000" lon="-72.869880000">
<ele>0</ele>
<time>2026-09-04T06:58:33Z</time>
</trkpt>
<trkpt lat="46.771310000" lon="-72.869700000">
<ele>0</ele>
<time>2026-09-04T06:58:34Z</time>
</trkpt>
<trkpt lat="46.771710000" lon="-72.869450000">
<ele>0</ele>
<time>2026-09-04T06:58:35Z</time>
</trkpt>
<trkpt lat="46.771870000" lon="-72.869330000">
<ele>0</ele>
<time>2026-09-04T06:58:36Z</time>
</trkpt>
<trkpt lat="46.772050000" lon="-72.869180000">
<ele>0</ele>
<time>2026-09-04T06:58:37Z</time>
</trkpt>
<trkpt lat="46.772160000" lon="-72.869020000">
<ele>0</ele>
<time>2026-09-04T06:58:38Z</time>
</trkpt>
<trkpt lat="46.772280000" lon="-72.868830000">
<ele>0</ele>
<time>2026-09-04T06:58:39Z</time>
</trkpt>
<trkpt lat="46.772400000" lon="-72.868580000">
<ele>0</ele>
<time>2026-09-04T06:58:40Z</time>
</trkpt>
<trkpt lat="46.772520000" lon="-72.868170000">
<ele>0</ele>
<time>2026-09-04T06:58:41Z</time>
</trkpt>
<trkpt lat="46.772560000" lon="-72.867870000">
<ele>0</ele>
<time>2026-09-04T06:58:42Z</time>
</trkpt>
<trkpt lat="46.772560000" lon="-72.867610000">
<ele>0</ele>
<time>2026-09-04T06:58:43Z</time>
</trkpt>
<trkpt lat="46.772550000" lon="-72.867340000">
<ele>0</ele>
<time>2026-09-04T06:58:44Z</time>
</trkpt>
<trkpt lat="46.772500000" lon="-72.866830000">
<ele>0</ele>
<time>2026-09-04T06:58:45Z</time>
</trkpt>
<trkpt lat="46.772500000" lon="-72.866570000">
<ele>0</ele>
<time>2026-09-04T06:58:46Z</time>
</trkpt>
<trkpt lat="46.772530000" lon="-72.866020000">
<ele>0</ele>
<time>2026-09-04T06:58:47Z</time>
</trkpt>
<trkpt lat="46.772590000" lon="-72.865800000">
<ele>0</ele>
<time>2026-09-04T06:58:48Z</time>
</trkpt>
<trkpt lat="46.772690000" lon="-72.865580000">
<ele>0</ele>
<time>2026-09-04T06:58:49Z</time>
</trkpt>
<trkpt lat="46.772800000" lon="-72.865370000">
<ele>0</ele>
<time>2026-09-04T06:58:50Z</time>
</trkpt>
<trkpt lat="46.772920000" lon="-72.865180000">
<ele>0</ele>
<time>2026-09-04T06:58:51Z</time>
</trkpt>
<trkpt lat="46.773070000" lon="-72.865030000">
<ele>0</ele>
<time>2026-09-04T06:58:52Z</time>
</trkpt>
<trkpt lat="46.773210000" lon="-72.864930000">
<ele>0</ele>
<time>2026-09-04T06:58:53Z</time>
</trkpt>
<trkpt lat="46.773210000" lon="-72.864930000">
<ele>0</ele>
<time>2026-09-04T06:58:54Z</time>
</trkpt>
<trkpt lat="46.773300000" lon="-72.864850000">
<ele>0</ele>
<time>2026-09-04T06:58:55Z</time>
</trkpt>
<trkpt lat="46.773570000" lon="-72.864740000">
<ele>0</ele>
<time>2026-09-04T06:58:56Z</time>
</trkpt>
<trkpt lat="46.773750000" lon="-72.864730000">
<ele>0</ele>
<time>2026-09-04T06:58:57Z</time>
</trkpt>
<trkpt lat="46.774020000" lon="-72.864730000">
<ele>0</ele>
<time>2026-09-04T06:58:58Z</time>
</trkpt>
<trkpt lat="46.774350000" lon="-72.864760000">
<ele>0</ele>
<time>2026-09-04T06:58:59Z</time>
</trkpt>
<trkpt lat="46.774530000" lon="-72.864730000">
<ele>0</ele>
<time>2026-09-04T06:59:00Z</time>
</trkpt>
<trkpt lat="46.774780000" lon="-72.864600000">
<ele>0</ele>
<time>2026-09-04T06:59:01Z</time>
</trkpt>
<trkpt lat="46.774960000" lon="-72.864440000">
<ele>0</ele>
<time>2026-09-04T06:59:02Z</time>
</trkpt>
<trkpt lat="46.775100000" lon="-72.864290000">
<ele>0</ele>
<time>2026-09-04T06:59:03Z</time>
</trkpt>
<trkpt lat="46.775250000" lon="-72.864060000">
<ele>0</ele>
<time>2026-09-04T06:59:04Z</time>
</trkpt>
<trkpt lat="46.775410000" lon="-72.863650000">
<ele>0</ele>
<time>2026-09-04T06:59:05Z</time>
</trkpt>
<trkpt lat="46.775460000" lon="-72.863400000">
<ele>0</ele>
<time>2026-09-04T06:59:06Z</time>
</trkpt>
<trkpt lat="46.775490000" lon="-72.863140000">
<ele>0</ele>
<time>2026-09-04T06:59:07Z</time>
</trkpt>
<trkpt lat="46.775500000" lon="-72.862840000">
<ele>0</ele>
<time>2026-09-04T06:59:08Z</time>
</trkpt>
<trkpt lat="46.775460000" lon="-72.862510000">
<ele>0</ele>
<time>2026-09-04T06:59:09Z</time>
</trkpt>
<trkpt lat="46.775420000" lon="-72.862370000">
<ele>0</ele>
<time>2026-09-04T06:59:10Z</time>
</trkpt>
<trkpt lat="46.775340000" lon="-72.862110000">
<ele>0</ele>
<time>2026-09-04T06:59:11Z</time>
</trkpt>
<trkpt lat="46.775220000" lon="-72.861630000">
<ele>0</ele>
<time>2026-09-04T06:59:12Z</time>
</trkpt>
<trkpt lat="46.775170000" lon="-72.861310000">
<ele>0</ele>
<time>2026-09-04T06:59:13Z</time>
</trkpt>
<trkpt lat="46.775170000" lon="-72.861120000">
<ele>0</ele>
<time>2026-09-04T06:59:14Z</time>
</trkpt>
<trkpt lat="46.775180000" lon="-72.860850000">
<ele>0</ele>
<time>2026-09-04T06:59:15Z</time>
</trkpt>
<trkpt lat="46.775220000" lon="-72.860490000">
<ele>0</ele>
<time>2026-09-04T06:59:16Z</time>
</trkpt>
<trkpt lat="46.775420000" lon="-72.859880000">
<ele>0</ele>
<time>2026-09-04T06:59:17Z</time>
</trkpt>
<trkpt lat="46.775570000" lon="-72.859330000">
<ele>0</ele>
<time>2026-09-04T06:59:18Z</time>
</trkpt>
<trkpt lat="46.775580000" lon="-72.858920000">
<ele>0</ele>
<time>2026-09-04T06:59:19Z</time>
</trkpt>
<trkpt lat="46.775560000" lon="-72.858660000">
<ele>0</ele>
<time>2026-09-04T06:59:20Z</time>
</trkpt>
<trkpt lat="46.775420000" lon="-72.858120000">
<ele>0</ele>
<time>2026-09-04T06:59:21Z</time>
</trkpt>
<trkpt lat="46.775320000" lon="-72.857900000">
<ele>0</ele>
<time>2026-09-04T06:59:22Z</time>
</trkpt>
<trkpt lat="46.775200000" lon="-72.857660000">
<ele>0</ele>
<time>2026-09-04T06:59:23Z</time>
</trkpt>
<trkpt lat="46.774890000" lon="-72.857060000">
<ele>0</ele>
<time>2026-09-04T06:59:24Z</time>
</trkpt>
<trkpt lat="46.774690000" lon="-72.856620000">
<ele>0</ele>
<time>2026-09-04T06:59:25Z</time>
</trkpt>
<trkpt lat="46.774600000" lon="-72.856400000">
<ele>0</ele>
<time>2026-09-04T06:59:26Z</time>
</trkpt>
<trkpt lat="46.774470000" lon="-72.855940000">
<ele>0</ele>
<time>2026-09-04T06:59:27Z</time>
</trkpt>
<trkpt lat="46.774340000" lon="-72.855420000">
<ele>0</ele>
<time>2026-09-04T06:59:28Z</time>
</trkpt>
<trkpt lat="46.774140000" lon="-72.854140000">
<ele>0</ele>
<time>2026-09-04T06:59:29Z</time>
</trkpt>
<trkpt lat="46.774030000" lon="-72.853640000">
<ele>0</ele>
<time>2026-09-04T06:59:30Z</time>
</trkpt>
<trkpt lat="46.773920000" lon="-72.853320000">
<ele>0</ele>
<time>2026-09-04T06:59:31Z</time>
</trkpt>
<trkpt lat="46.773730000" lon="-72.853000000">
<ele>0</ele>
<time>2026-09-04T06:59:32Z</time>
</trkpt>
<trkpt lat="46.773440000" lon="-72.852690000">
<ele>0</ele>
<time>2026-09-04T06:59:33Z</time>
</trkpt>
<trkpt lat="46.772930000" lon="-72.852300000">
<ele>0</ele>
<time>2026-09-04T06:59:34Z</time>
</trkpt>
<trkpt lat="46.772650000" lon="-72.852050000">
<ele>0</ele>
<time>2026-09-04T06:59:35Z</time>
</trkpt>
<trkpt lat="46.772370000" lon="-72.851730000">
<ele>0</ele>
<time>2026-09-04T06:59:36Z</time>
</trkpt>
<trkpt lat="46.772260000" lon="-72.851530000">
<ele>0</ele>
<time>2026-09-04T06:59:37Z</time>
</trkpt>
<trkpt lat="46.772150000" lon="-72.851310000">
<ele>0</ele>
<time>2026-09-04T06:59:38Z</time>
</trkpt>
<trkpt lat="46.772070000" lon="-72.851090000">
<ele>0</ele>
<time>2026-09-04T06:59:39Z</time>
</trkpt>
<trkpt lat="46.772030000" lon="-72.850830000">
<ele>0</ele>
<time>2026-09-04T06:59:40Z</time>
</trkpt>
<trkpt lat="46.772000000" lon="-72.850400000">
<ele>0</ele>
<time>2026-09-04T06:59:41Z</time>
</trkpt>
<trkpt lat="46.772010000" lon="-72.850050000">
<ele>0</ele>
<time>2026-09-04T06:59:42Z</time>
</trkpt>
<trkpt lat="46.772050000" lon="-72.849790000">
<ele>0</ele>
<time>2026-09-04T06:59:43Z</time>
</trkpt>
<trkpt lat="46.772120000" lon="-72.849540000">
<ele>0</ele>
<time>2026-09-04T06:59:44Z</time>
</trkpt>
<trkpt lat="46.772200000" lon="-72.849310000">
<ele>0</ele>
<time>2026-09-04T06:59:45Z</time>
</trkpt>
<trkpt lat="46.772250000" lon="-72.849200000">
<ele>0</ele>
<time>2026-09-04T06:59:46Z</time>
</trkpt>
<trkpt lat="46.772440000" lon="-72.848930000">
<ele>0</ele>
<time>2026-09-04T06:59:47Z</time>
</trkpt>
<trkpt lat="46.772730000" lon="-72.848610000">
<ele>0</ele>
<time>2026-09-04T06:59:48Z</time>
</trkpt>
<trkpt lat="46.772880000" lon="-72.848450000">
<ele>0</ele>
<time>2026-09-04T06:59:49Z</time>
</trkpt>
<trkpt lat="46.773060000" lon="-72.848260000">
<ele>0</ele>
<time>2026-09-04T06:59:50Z</time>
</trkpt>
<trkpt lat="46.773250000" lon="-72.848020000">
<ele>0</ele>
<time>2026-09-04T06:59:51Z</time>
</trkpt>
<trkpt lat="46.773370000" lon="-72.847720000">
<ele>0</ele>
<time>2026-09-04T06:59:52Z</time>
</trkpt>
<trkpt lat="46.773510000" lon="-72.847270000">
<ele>0</ele>
<time>2026-09-04T06:59:53Z</time>
</trkpt>
<trkpt lat="46.773640000" lon="-72.846740000">
<ele>0</ele>
<time>2026-09-04T06:59:54Z</time>
</trkpt>
<trkpt lat="46.773820000" lon="-72.846000000">
<ele>0</ele>
<time>2026-09-04T06:59:55Z</time>
</trkpt>
<trkpt lat="46.774130000" lon="-72.844770000">
<ele>0</ele>
<time>2026-09-04T06:59:56Z</time>
</trkpt>
<trkpt lat="46.774250000" lon="-72.844130000">
<ele>0</ele>
<time>2026-09-04T06:59:57Z</time>
</trkpt>
<trkpt lat="46.774280000" lon="-72.843480000">
<ele>0</ele>
<time>2026-09-04T06:59:58Z</time>
</trkpt>
<trkpt lat="46.774280000" lon="-72.842960000">
<ele>0</ele>
<time>2026-09-04T06:59:59Z</time>
</trkpt>
<trkpt lat="46.774190000" lon="-72.842180000">
<ele>0</ele>
<time>2026-09-04T07:00:00Z</time>
</trkpt>
<trkpt lat="46.773950000" lon="-72.840640000">
<ele>0</ele>
<time>2026-09-04T07:00:01Z</time>
</trkpt>
<trkpt lat="46.773910000" lon="-72.840320000">
<ele>0</ele>
<time>2026-09-04T07:00:02Z</time>
</trkpt>
<trkpt lat="46.773910000" lon="-72.840320000">
<ele>0</ele>
<time>2026-09-04T07:00:03Z</time>
</trkpt>
<trkpt lat="46.773720000" lon="-72.839040000">
<ele>0</ele>
<time>2026-09-04T07:00:04Z</time>
</trkpt>
<trkpt lat="46.773600000" lon="-72.838340000">
<ele>0</ele>
<time>2026-09-04T07:00:05Z</time>
</trkpt>
<trkpt lat="46.773510000" lon="-72.837660000">
<ele>0</ele>
<time>2026-09-04T07:00:06Z</time>
</trkpt>
<trkpt lat="46.773460000" lon="-72.837380000">
<ele>0</ele>
<time>2026-09-04T07:00:07Z</time>
</trkpt>
<trkpt lat="46.773370000" lon="-72.837070000">
<ele>0</ele>
<time>2026-09-04T07:00:08Z</time>
</trkpt>
<trkpt lat="46.773270000" lon="-72.836850000">
<ele>0</ele>
<time>2026-09-04T07:00:09Z</time>
</trkpt>
<trkpt lat="46.773160000" lon="-72.836650000">
<ele>0</ele>
<time>2026-09-04T07:00:10Z</time>
</trkpt>
<trkpt lat="46.773030000" lon="-72.836460000">
<ele>0</ele>
<time>2026-09-04T07:00:11Z</time>
</trkpt>
<trkpt lat="46.772890000" lon="-72.836300000">
<ele>0</ele>
<time>2026-09-04T07:00:12Z</time>
</trkpt>
<trkpt lat="46.772740000" lon="-72.836170000">
<ele>0</ele>
<time>2026-09-04T07:00:13Z</time>
</trkpt>
<trkpt lat="46.772530000" lon="-72.836050000">
<ele>0</ele>
<time>2026-09-04T07:00:14Z</time>
</trkpt>
<trkpt lat="46.772320000" lon="-72.836010000">
<ele>0</ele>
<time>2026-09-04T07:00:15Z</time>
</trkpt>
<trkpt lat="46.772040000" lon="-72.836020000">
<ele>0</ele>
<time>2026-09-04T07:00:16Z</time>
</trkpt>
<trkpt lat="46.771670000" lon="-72.836040000">
<ele>0</ele>
<time>2026-09-04T07:00:17Z</time>
</trkpt>
<trkpt lat="46.771070000" lon="-72.835970000">
<ele>0</ele>
<time>2026-09-04T07:00:18Z</time>
</trkpt>
<trkpt lat="46.770140000" lon="-72.835560000">
<ele>0</ele>
<time>2026-09-04T07:00:19Z</time>
</trkpt>
<trkpt lat="46.769920000" lon="-72.835510000">
<ele>0</ele>
<time>2026-09-04T07:00:20Z</time>
</trkpt>
<trkpt lat="46.769690000" lon="-72.835540000">
<ele>0</ele>
<time>2026-09-04T07:00:21Z</time>
</trkpt>
<trkpt lat="46.769510000" lon="-72.835560000">
<ele>0</ele>
<time>2026-09-04T07:00:22Z</time>
</trkpt>
<trkpt lat="46.769240000" lon="-72.835680000">
<ele>0</ele>
<time>2026-09-04T07:00:23Z</time>
</trkpt>
<trkpt lat="46.768920000" lon="-72.835990000">
<ele>0</ele>
<time>2026-09-04T07:00:24Z</time>
</trkpt>
<trkpt lat="46.768920000" lon="-72.835990000">
<ele>0</ele>
<time>2026-09-04T07:00:25Z</time>
</trkpt>
<trkpt lat="46.768730000" lon="-72.836180000">
<ele>0</ele>
<time>2026-09-04T07:00:26Z</time>
</trkpt>
<trkpt lat="46.768680000" lon="-72.836230000">
<ele>0</ele>
<time>2026-09-04T07:00:27Z</time>
</trkpt>
<trkpt lat="46.768570000" lon="-72.836290000">
<ele>0</ele>
<time>2026-09-04T07:00:28Z</time>
</trkpt>
<trkpt lat="46.768380000" lon="-72.836380000">
<ele>0</ele>
<time>2026-09-04T07:00:29Z</time>
</trkpt>
<trkpt lat="46.768220000" lon="-72.836400000">
<ele>0</ele>
<time>2026-09-04T07:00:30Z</time>
</trkpt>
<trkpt lat="46.768040000" lon="-72.836430000">
<ele>0</ele>
<time>2026-09-04T07:00:31Z</time>
</trkpt>
<trkpt lat="46.767740000" lon="-72.836410000">
<ele>0</ele>
<time>2026-09-04T07:00:32Z</time>
</trkpt>
<trkpt lat="46.767400000" lon="-72.836490000">
<ele>0</ele>
<time>2026-09-04T07:00:33Z</time>
</trkpt>
<trkpt lat="46.767150000" lon="-72.836590000">
<ele>0</ele>
<time>2026-09-04T07:00:34Z</time>
</trkpt>
<trkpt lat="46.766750000" lon="-72.836750000">
<ele>0</ele>
<time>2026-09-04T07:00:35Z</time>
</trkpt>
<trkpt lat="46.766450000" lon="-72.836750000">
<ele>0</ele>
<time>2026-09-04T07:00:36Z</time>
</trkpt>
<trkpt lat="46.766160000" lon="-72.836680000">
<ele>0</ele>
<time>2026-09-04T07:00:37Z</time>
</trkpt>
<trkpt lat="46.765940000" lon="-72.836520000">
<ele>0</ele>
<time>2026-09-04T07:00:38Z</time>
</trkpt>
<trkpt lat="46.765570000" lon="-72.836230000">
<ele>0</ele>
<time>2026-09-04T07:00:39Z</time>
</trkpt>
<trkpt lat="46.765300000" lon="-72.836050000">
<ele>0</ele>
<time>2026-09-04T07:00:40Z</time>
</trkpt>
<trkpt lat="46.765120000" lon="-72.835980000">
<ele>0</ele>
<time>2026-09-04T07:00:41Z</time>
</trkpt>
<trkpt lat="46.764770000" lon="-72.835880000">
<ele>0</ele>
<time>2026-09-04T07:00:42Z</time>
</trkpt>
<trkpt lat="46.764240000" lon="-72.835720000">
<ele>0</ele>
<time>2026-09-04T07:00:43Z</time>
</trkpt>
<trkpt lat="46.764070000" lon="-72.835640000">
<ele>0</ele>
<time>2026-09-04T07:00:44Z</time>
</trkpt>
<trkpt lat="46.763740000" lon="-72.835440000">
<ele>0</ele>
<time>2026-09-04T07:00:45Z</time>
</trkpt>
<trkpt lat="46.763210000" lon="-72.835080000">
<ele>0</ele>
<time>2026-09-04T07:00:46Z</time>
</trkpt>
<trkpt lat="46.763210000" lon="-72.835080000">
<ele>0</ele>
<time>2026-09-04T07:00:47Z</time>
</trkpt>
<trkpt lat="46.763080000" lon="-72.835030000">
<ele>0</ele>
<time>2026-09-04T07:00:48Z</time>
</trkpt>
<trkpt lat="46.762900000" lon="-72.834980000">
<ele>0</ele>
<time>2026-09-04T07:00:49Z</time>
</trkpt>
<trkpt lat="46.762560000" lon="-72.834960000">
<ele>0</ele>
<time>2026-09-04T07:00:50Z</time>
</trkpt>
<trkpt lat="46.762360000" lon="-72.834980000">
<ele>0</ele>
<time>2026-09-04T07:00:51Z</time>
</trkpt>
<trkpt lat="46.762030000" lon="-72.835030000">
<ele>0</ele>
<time>2026-09-04T07:00:52Z</time>
</trkpt>
<trkpt lat="46.761830000" lon="-72.835020000">
<ele>0</ele>
<time>2026-09-04T07:00:53Z</time>
</trkpt>
<trkpt lat="46.761470000" lon="-72.835000000">
<ele>0</ele>
<time>2026-09-04T07:00:54Z</time>
</trkpt>
<trkpt lat="46.761290000" lon="-72.834960000">
<ele>0</ele>
<time>2026-09-04T07:00:55Z</time>
</trkpt>
<trkpt lat="46.760930000" lon="-72.834870000">
<ele>0</ele>
<time>2026-09-04T07:00:56Z</time>
</trkpt>
<trkpt lat="46.760620000" lon="-72.834880000">
<ele>0</ele>
<time>2026-09-04T07:00:57Z</time>
</trkpt>
<trkpt lat="46.760400000" lon="-72.834910000">
<ele>0</ele>
<time>2026-09-04T07:00:58Z</time>
</trkpt>
<trkpt lat="46.760150000" lon="-72.834980000">
<ele>0</ele>
<time>2026-09-04T07:00:59Z</time>
</trkpt>
<trkpt lat="46.759870000" lon="-72.835070000">
<ele>0</ele>
<time>2026-09-04T07:01:00Z</time>
</trkpt>
<trkpt lat="46.759350000" lon="-72.835290000">
<ele>0</ele>
<time>2026-09-04T07:01:01Z</time>
</trkpt>
<trkpt lat="46.758930000" lon="-72.835430000">
<ele>0</ele>
<time>2026-09-04T07:01:02Z</time>
</trkpt>
<trkpt lat="46.758830000" lon="-72.835460000">
<ele>0</ele>
<time>2026-09-04T07:01:03Z</time>
</trkpt>
<trkpt lat="46.758830000" lon="-72.835460000">
<ele>0</ele>
<time>2026-09-04T07:01:04Z</time>
</trkpt>
<trkpt lat="46.758700000" lon="-72.835480000">
<ele>0</ele>
<time>2026-09-04T07:01:05Z</time>
</trkpt>
<trkpt lat="46.758530000" lon="-72.835450000">
<ele>0</ele>
<time>2026-09-04T07:01:06Z</time>
</trkpt>
<trkpt lat="46.758300000" lon="-72.835380000">
<ele>0</ele>
<time>2026-09-04T07:01:07Z</time>
</trkpt>
<trkpt lat="46.758110000" lon="-72.835240000">
<ele>0</ele>
<time>2026-09-04T07:01:08Z</time>
</trkpt>
<trkpt lat="46.757840000" lon="-72.834850000">
<ele>0</ele>
<time>2026-09-04T07:01:09Z</time>
</trkpt>
<trkpt lat="46.757720000" lon="-72.834600000">
<ele>0</ele>
<time>2026-09-04T07:01:10Z</time>
</trkpt>
<trkpt lat="46.757650000" lon="-72.834380000">
<ele>0</ele>
<time>2026-09-04T07:01:11Z</time>
</trkpt>
<trkpt lat="46.757610000" lon="-72.833970000">
<ele>0</ele>
<time>2026-09-04T07:01:12Z</time>
</trkpt>
<trkpt lat="46.757610000" lon="-72.833660000">
<ele>0</ele>
<time>2026-09-04T07:01:13Z</time>
</trkpt>
<trkpt lat="46.757670000" lon="-72.833330000">
<ele>0</ele>
<time>2026-09-04T07:01:14Z</time>
</trkpt>
<trkpt lat="46.757730000" lon="-72.833080000">
<ele>0</ele>
<time>2026-09-04T07:01:15Z</time>
</trkpt>
<trkpt lat="46.757870000" lon="-72.832690000">
<ele>0</ele>
<time>2026-09-04T07:01:16Z</time>
</trkpt>
<trkpt lat="46.758060000" lon="-72.832150000">
<ele>0</ele>
<time>2026-09-04T07:01:17Z</time>
</trkpt>
<trkpt lat="46.758260000" lon="-72.831030000">
<ele>0</ele>
<time>2026-09-04T07:01:18Z</time>
</trkpt>
<trkpt lat="46.758400000" lon="-72.830110000">
<ele>0</ele>
<time>2026-09-04T07:01:19Z</time>
</trkpt>
<trkpt lat="46.758470000" lon="-72.829500000">
<ele>0</ele>
<time>2026-09-04T07:01:20Z</time>
</trkpt>
<trkpt lat="46.758480000" lon="-72.829240000">
<ele>0</ele>
<time>2026-09-04T07:01:21Z</time>
</trkpt>
<trkpt lat="46.758450000" lon="-72.828930000">
<ele>0</ele>
<time>2026-09-04T07:01:22Z</time>
</trkpt>
<trkpt lat="46.758350000" lon="-72.828460000">
<ele>0</ele>
<time>2026-09-04T07:01:23Z</time>
</trkpt>
<trkpt lat="46.758320000" lon="-72.828140000">
<ele>0</ele>
<time>2026-09-04T07:01:24Z</time>
</trkpt>
<trkpt lat="46.758330000" lon="-72.827810000">
<ele>0</ele>
<time>2026-09-04T07:01:25Z</time>
</trkpt>
<trkpt lat="46.758400000" lon="-72.827540000">
<ele>0</ele>
<time>2026-09-04T07:01:26Z</time>
</trkpt>
<trkpt lat="46.758480000" lon="-72.827310000">
<ele>0</ele>
<time>2026-09-04T07:01:27Z</time>
</trkpt>
<trkpt lat="46.758590000" lon="-72.827110000">
<ele>0</ele>
<time>2026-09-04T07:01:28Z</time>
</trkpt>
<trkpt lat="46.758860000" lon="-72.826760000">
<ele>0</ele>
<time>2026-09-04T07:01:29Z</time>
</trkpt>
<trkpt lat="46.759270000" lon="-72.826260000">
<ele>0</ele>
<time>2026-09-04T07:01:30Z</time>
</trkpt>
<trkpt lat="46.759960000" lon="-72.825410000">
<ele>0</ele>
<time>2026-09-04T07:01:31Z</time>
</trkpt>
<trkpt lat="46.760170000" lon="-72.825150000">
<ele>0</ele>
<time>2026-09-04T07:01:32Z</time>
</trkpt>
<trkpt lat="46.760170000" lon="-72.825150000">
<ele>0</ele>
<time>2026-09-04T07:01:33Z</time>
</trkpt>
<trkpt lat="46.760920000" lon="-72.824220000">
<ele>0</ele>
<time>2026-09-04T07:01:34Z</time>
</trkpt>
<trkpt lat="46.761110000" lon="-72.823770000">
<ele>0</ele>
<time>2026-09-04T07:01:35Z</time>
</trkpt>
<trkpt lat="46.761170000" lon="-72.823530000">
<ele>0</ele>
<time>2026-09-04T07:01:36Z</time>
</trkpt>
<trkpt lat="46.761200000" lon="-72.823270000">
<ele>0</ele>
<time>2026-09-04T07:01:37Z</time>
</trkpt>
<trkpt lat="46.761220000" lon="-72.823010000">
<ele>0</ele>
<time>2026-09-04T07:01:38Z</time>
</trkpt>
<trkpt lat="46.761200000" lon="-72.822750000">
<ele>0</ele>
<time>2026-09-04T07:01:39Z</time>
</trkpt>
<trkpt lat="46.761120000" lon="-72.822110000">
<ele>0</ele>
<time>2026-09-04T07:01:40Z</time>
</trkpt>
<trkpt lat="46.761010000" lon="-72.821420000">
<ele>0</ele>
<time>2026-09-04T07:01:41Z</time>
</trkpt>
<trkpt lat="46.760920000" lon="-72.820960000">
<ele>0</ele>
<time>2026-09-04T07:01:42Z</time>
</trkpt>
<trkpt lat="46.760690000" lon="-72.820250000">
<ele>0</ele>
<time>2026-09-04T07:01:43Z</time>
</trkpt>
<trkpt lat="46.760530000" lon="-72.819770000">
<ele>0</ele>
<time>2026-09-04T07:01:44Z</time>
</trkpt>
<trkpt lat="46.760470000" lon="-72.819470000">
<ele>0</ele>
<time>2026-09-04T07:01:45Z</time>
</trkpt>
<trkpt lat="46.760490000" lon="-72.819000000">
<ele>0</ele>
<time>2026-09-04T07:01:46Z</time>
</trkpt>
<trkpt lat="46.760580000" lon="-72.818490000">
<ele>0</ele>
<time>2026-09-04T07:01:47Z</time>
</trkpt>
<trkpt lat="46.760670000" lon="-72.817990000">
<ele>0</ele>
<time>2026-09-04T07:01:48Z</time>
</trkpt>
<trkpt lat="46.760710000" lon="-72.817730000">
<ele>0</ele>
<time>2026-09-04T07:01:49Z</time>
</trkpt>
<trkpt lat="46.760710000" lon="-72.817210000">
<ele>0</ele>
<time>2026-09-04T07:01:50Z</time>
</trkpt>
<trkpt lat="46.760640000" lon="-72.816750000">
<ele>0</ele>
<time>2026-09-04T07:01:51Z</time>
</trkpt>
<trkpt lat="46.760540000" lon="-72.816430000">
<ele>0</ele>
<time>2026-09-04T07:01:52Z</time>
</trkpt>
<trkpt lat="46.760370000" lon="-72.816090000">
<ele>0</ele>
<time>2026-09-04T07:01:53Z</time>
</trkpt>
<trkpt lat="46.760210000" lon="-72.815860000">
<ele>0</ele>
<time>2026-09-04T07:01:54Z</time>
</trkpt>
<trkpt lat="46.759820000" lon="-72.815300000">
<ele>0</ele>
<time>2026-09-04T07:01:55Z</time>
</trkpt>
<trkpt lat="46.759620000" lon="-72.815040000">
<ele>0</ele>
<time>2026-09-04T07:01:56Z</time>
</trkpt>
<trkpt lat="46.759620000" lon="-72.815040000">
<ele>0</ele>
<time>2026-09-04T07:01:57Z</time>
</trkpt>
<trkpt lat="46.759250000" lon="-72.814600000">
<ele>0</ele>
<time>2026-09-04T07:01:58Z</time>
</trkpt>
<trkpt lat="46.758810000" lon="-72.814230000">
<ele>0</ele>
<time>2026-09-04T07:01:59Z</time>
</trkpt>
<trkpt lat="46.758640000" lon="-72.814080000">
<ele>0</ele>
<time>2026-09-04T07:02:00Z</time>
</trkpt>
<trkpt lat="46.758480000" lon="-72.813890000">
<ele>0</ele>
<time>2026-09-04T07:02:01Z</time>
</trkpt>
<trkpt lat="46.758340000" lon="-72.813580000">
<ele>0</ele>
<time>2026-09-04T07:02:02Z</time>
</trkpt>
<trkpt lat="46.758250000" lon="-72.813250000">
<ele>0</ele>
<time>2026-09-04T07:02:03Z</time>
</trkpt>
<trkpt lat="46.758170000" lon="-72.812930000">
<ele>0</ele>
<time>2026-09-04T07:02:04Z</time>
</trkpt>
<trkpt lat="46.758090000" lon="-72.812500000">
<ele>0</ele>
<time>2026-09-04T07:02:05Z</time>
</trkpt>
<trkpt lat="46.758040000" lon="-72.812200000">
<ele>0</ele>
<time>2026-09-04T07:02:06Z</time>
</trkpt>
<trkpt lat="46.757930000" lon="-72.811880000">
<ele>0</ele>
<time>2026-09-04T07:02:07Z</time>
</trkpt>
<trkpt lat="46.757860000" lon="-72.811690000">
<ele>0</ele>
<time>2026-09-04T07:02:08Z</time>
</trkpt>
<trkpt lat="46.757700000" lon="-72.811360000">
<ele>0</ele>
<time>2026-09-04T07:02:09Z</time>
</trkpt>
<trkpt lat="46.757490000" lon="-72.811050000">
<ele>0</ele>
<time>2026-09-04T07:02:10Z</time>
</trkpt>
<trkpt lat="46.757370000" lon="-72.810860000">
<ele>0</ele>
<time>2026-09-04T07:02:11Z</time>
</trkpt>
<trkpt lat="46.757220000" lon="-72.810590000">
<ele>0</ele>
<time>2026-09-04T07:02:12Z</time>
</trkpt>
<trkpt lat="46.757140000" lon="-72.810390000">
<ele>0</ele>
<time>2026-09-04T07:02:13Z</time>
</trkpt>
<trkpt lat="46.756980000" lon="-72.809980000">
<ele>0</ele>
<time>2026-09-04T07:02:14Z</time>
</trkpt>
<trkpt lat="46.756960000" lon="-72.809190000">
<ele>0</ele>
<time>2026-09-04T07:02:15Z</time>
</trkpt>
<trkpt lat="46.757010000" lon="-72.808840000">
<ele>0</ele>
<time>2026-09-04T07:02:16Z</time>
</trkpt>
<trkpt lat="46.757140000" lon="-72.808460000">
<ele>0</ele>
<time>2026-09-04T07:02:17Z</time>
</trkpt>
<trkpt lat="46.757260000" lon="-72.808130000">
<ele>0</ele>
<time>2026-09-04T07:02:18Z</time>
</trkpt>
<trkpt lat="46.757260000" lon="-72.808130000">
<ele>0</ele>
<time>2026-09-04T07:02:19Z</time>
</trkpt>
<trkpt lat="46.757310000" lon="-72.808000000">
<ele>0</ele>
<time>2026-09-04T07:02:20Z</time>
</trkpt>
<trkpt lat="46.757450000" lon="-72.807630000">
<ele>0</ele>
<time>2026-09-04T07:02:21Z</time>
</trkpt>
<trkpt lat="46.757520000" lon="-72.807300000">
<ele>0</ele>
<time>2026-09-04T07:02:22Z</time>
</trkpt>
<trkpt lat="46.757530000" lon="-72.807020000">
<ele>0</ele>
<time>2026-09-04T07:02:23Z</time>
</trkpt>
<trkpt lat="46.757530000" lon="-72.806640000">
<ele>0</ele>
<time>2026-09-04T07:02:24Z</time>
</trkpt>
<trkpt lat="46.757390000" lon="-72.805990000">
<ele>0</ele>
<time>2026-09-04T07:02:25Z</time>
</trkpt>
<trkpt lat="46.757180000" lon="-72.805580000">
<ele>0</ele>
<time>2026-09-04T07:02:26Z</time>
</trkpt>
<trkpt lat="46.757050000" lon="-72.805400000">
<ele>0</ele>
<time>2026-09-04T07:02:27Z</time>
</trkpt>
<trkpt lat="46.756850000" lon="-72.805220000">
<ele>0</ele>
<time>2026-09-04T07:02:28Z</time>
</trkpt>
<trkpt lat="46.756730000" lon="-72.805160000">
<ele>0</ele>
<time>2026-09-04T07:02:29Z</time>
</trkpt>
<trkpt lat="46.756420000" lon="-72.805020000">
<ele>0</ele>
<time>2026-09-04T07:02:30Z</time>
</trkpt>
<trkpt lat="46.756030000" lon="-72.804950000">
<ele>0</ele>
<time>2026-09-04T07:02:31Z</time>
</trkpt>
<trkpt lat="46.755490000" lon="-72.804920000">
<ele>0</ele>
<time>2026-09-04T07:02:32Z</time>
</trkpt>
<trkpt lat="46.755120000" lon="-72.804870000">
<ele>0</ele>
<time>2026-09-04T07:02:33Z</time>
</trkpt>
<trkpt lat="46.754960000" lon="-72.804790000">
<ele>0</ele>
<time>2026-09-04T07:02:34Z</time>
</trkpt>
<trkpt lat="46.754810000" lon="-72.804670000">
<ele>0</ele>
<time>2026-09-04T07:02:35Z</time>
</trkpt>
<trkpt lat="46.754650000" lon="-72.804530000">
<ele>0</ele>
<time>2026-09-04T07:02:36Z</time>
</trkpt>
<trkpt lat="46.754450000" lon="-72.804250000">
<ele>0</ele>
<time>2026-09-04T07:02:37Z</time>
</trkpt>
<trkpt lat="46.754280000" lon="-72.803960000">
<ele>0</ele>
<time>2026-09-04T07:02:38Z</time>
</trkpt>
<trkpt lat="46.754180000" lon="-72.803730000">
<ele>0</ele>
<time>2026-09-04T07:02:39Z</time>
</trkpt>
<trkpt lat="46.754110000" lon="-72.803430000">
<ele>0</ele>
<time>2026-09-04T07:02:40Z</time>
</trkpt>
<trkpt lat="46.754090000" lon="-72.803140000">
<ele>0</ele>
<time>2026-09-04T07:02:41Z</time>
</trkpt>
<trkpt lat="46.754130000" lon="-72.802830000">
<ele>0</ele>
<time>2026-09-04T07:02:42Z</time>
</trkpt>
<trkpt lat="46.754180000" lon="-72.802510000">
<ele>0</ele>
<time>2026-09-04T07:02:43Z</time>
</trkpt>
<trkpt lat="46.754240000" lon="-72.802340000">
<ele>0</ele>
<time>2026-09-04T07:02:44Z</time>
</trkpt>
<trkpt lat="46.754330000" lon="-72.802110000">
<ele>0</ele>
<time>2026-09-04T07:02:45Z</time>
</trkpt>
<trkpt lat="46.754530000" lon="-72.801670000">
<ele>0</ele>
<time>2026-09-04T07:02:46Z</time>
</trkpt>
<trkpt lat="46.754690000" lon="-72.801200000">
<ele>0</ele>
<time>2026-09-04T07:02:47Z</time>
</trkpt>
<trkpt lat="46.754730000" lon="-72.800950000">
<ele>0</ele>
<time>2026-09-04T07:02:48Z</time>
</trkpt>
<trkpt lat="46.754750000" lon="-72.800690000">
<ele>0</ele>
<time>2026-09-04T07:02:49Z</time>
</trkpt>
<trkpt lat="46.754750000" lon="-72.800420000">
<ele>0</ele>
<time>2026-09-04T07:02:50Z</time>
</trkpt>
<trkpt lat="46.754740000" lon="-72.800210000">
<ele>0</ele>
<time>2026-09-04T07:02:51Z</time>
</trkpt>
<trkpt lat="46.754700000" lon="-72.800040000">
<ele>0</ele>
<time>2026-09-04T07:02:52Z</time>
</trkpt>
<trkpt lat="46.754610000" lon="-72.799790000">
<ele>0</ele>
<time>2026-09-04T07:02:53Z</time>
</trkpt>
<trkpt lat="46.754470000" lon="-72.799480000">
<ele>0</ele>
<time>2026-09-04T07:02:54Z</time>
</trkpt>
<trkpt lat="46.754190000" lon="-72.798970000">
<ele>0</ele>
<time>2026-09-04T07:02:55Z</time>
</trkpt>
<trkpt lat="46.754060000" lon="-72.798620000">
<ele>0</ele>
<time>2026-09-04T07:02:56Z</time>
</trkpt>
<trkpt lat="46.754010000" lon="-72.798370000">
<ele>0</ele>
<time>2026-09-04T07:02:57Z</time>
</trkpt>
<trkpt lat="46.753980000" lon="-72.798110000">
<ele>0</ele>
<time>2026-09-04T07:02:58Z</time>
</trkpt>
<trkpt lat="46.753970000" lon="-72.797850000">
<ele>0</ele>
<time>2026-09-04T07:02:59Z</time>
</trkpt>
<trkpt lat="46.754020000" lon="-72.797160000">
<ele>0</ele>
<time>2026-09-04T07:03:00Z</time>
</trkpt>
<trkpt lat="46.754020000" lon="-72.796540000">
<ele>0</ele>
<time>2026-09-04T07:03:01Z</time>
</trkpt>
<trkpt lat="46.753980000" lon="-72.796150000">
<ele>0</ele>
<time>2026-09-04T07:03:02Z</time>
</trkpt>
<trkpt lat="46.753750000" lon="-72.795630000">
<ele>0</ele>
<time>2026-09-04T07:03:03Z</time>
</trkpt>
<trkpt lat="46.753500000" lon="-72.795320000">
<ele>0</ele>
<time>2026-09-04T07:03:04Z</time>
</trkpt>
<trkpt lat="46.753350000" lon="-72.795180000">
<ele>0</ele>
<time>2026-09-04T07:03:05Z</time>
</trkpt>
<trkpt lat="46.753190000" lon="-72.795070000">
<ele>0</ele>
<time>2026-09-04T07:03:06Z</time>
</trkpt>
<trkpt lat="46.753070000" lon="-72.795020000">
<ele>0</ele>
<time>2026-09-04T07:03:07Z</time>
</trkpt>
<trkpt lat="46.752840000" lon="-72.794980000">
<ele>0</ele>
<time>2026-09-04T07:03:08Z</time>
</trkpt>
<trkpt lat="46.752570000" lon="-72.794960000">
<ele>0</ele>
<time>2026-09-04T07:03:09Z</time>
</trkpt>
<trkpt lat="46.752300000" lon="-72.794990000">
<ele>0</ele>
<time>2026-09-04T07:03:10Z</time>
</trkpt>
<trkpt lat="46.751950000" lon="-72.795010000">
<ele>0</ele>
<time>2026-09-04T07:03:11Z</time>
</trkpt>
<trkpt lat="46.751950000" lon="-72.795010000">
<ele>0</ele>
<time>2026-09-04T07:03:12Z</time>
</trkpt>
<trkpt lat="46.751580000" lon="-72.795020000">
<ele>0</ele>
<time>2026-09-04T07:03:13Z</time>
</trkpt>
<trkpt lat="46.751400000" lon="-72.795010000">
<ele>0</ele>
<time>2026-09-04T07:03:14Z</time>
</trkpt>
<trkpt lat="46.751220000" lon="-72.794970000">
<ele>0</ele>
<time>2026-09-04T07:03:15Z</time>
</trkpt>
<trkpt lat="46.750880000" lon="-72.794790000">
<ele>0</ele>
<time>2026-09-04T07:03:16Z</time>
</trkpt>
<trkpt lat="46.750730000" lon="-72.794660000">
<ele>0</ele>
<time>2026-09-04T07:03:17Z</time>
</trkpt>
<trkpt lat="46.750570000" lon="-72.794450000">
<ele>0</ele>
<time>2026-09-04T07:03:18Z</time>
</trkpt>
<trkpt lat="46.750350000" lon="-72.794090000">
<ele>0</ele>
<time>2026-09-04T07:03:19Z</time>
</trkpt>
<trkpt lat="46.750260000" lon="-72.793810000">
<ele>0</ele>
<time>2026-09-04T07:03:20Z</time>
</trkpt>
<trkpt lat="46.750170000" lon="-72.793310000">
<ele>0</ele>
<time>2026-09-04T07:03:21Z</time>
</trkpt>
<trkpt lat="46.750160000" lon="-72.792880000">
<ele>0</ele>
<time>2026-09-04T07:03:22Z</time>
</trkpt>
<trkpt lat="46.750180000" lon="-72.792560000">
<ele>0</ele>
<time>2026-09-04T07:03:23Z</time>
</trkpt>
<trkpt lat="46.750290000" lon="-72.791260000">
<ele>0</ele>
<time>2026-09-04T07:03:24Z</time>
</trkpt>
<trkpt lat="46.750330000" lon="-72.790940000">
<ele>0</ele>
<time>2026-09-04T07:03:25Z</time>
</trkpt>
<trkpt lat="46.750410000" lon="-72.790490000">
<ele>0</ele>
<time>2026-09-04T07:03:26Z</time>
</trkpt>
<trkpt lat="46.750530000" lon="-72.790070000">
<ele>0</ele>
<time>2026-09-04T07:03:27Z</time>
</trkpt>
<trkpt lat="46.750580000" lon="-72.789850000">
<ele>0</ele>
<time>2026-09-04T07:03:28Z</time>
</trkpt>
<trkpt lat="46.750630000" lon="-72.789500000">
<ele>0</ele>
<time>2026-09-04T07:03:29Z</time>
</trkpt>
<trkpt lat="46.750630000" lon="-72.789060000">
<ele>0</ele>
<time>2026-09-04T07:03:30Z</time>
</trkpt>
<trkpt lat="46.750600000" lon="-72.788800000">
<ele>0</ele>
<time>2026-09-04T07:03:31Z</time>
</trkpt>
<trkpt lat="46.750550000" lon="-72.788570000">
<ele>0</ele>
<time>2026-09-04T07:03:32Z</time>
</trkpt>
<trkpt lat="46.750440000" lon="-72.788290000">
<ele>0</ele>
<time>2026-09-04T07:03:33Z</time>
</trkpt>
<trkpt lat="46.750240000" lon="-72.787960000">
<ele>0</ele>
<time>2026-09-04T07:03:34Z</time>
</trkpt>
<trkpt lat="46.749950000" lon="-72.787570000">
<ele>0</ele>
<time>2026-09-04T07:03:35Z</time>
</trkpt>
<trkpt lat="46.749320000" lon="-72.786640000">
<ele>0</ele>
<time>2026-09-04T07:03:36Z</time>
</trkpt>
<trkpt lat="46.749040000" lon="-72.786310000">
<ele>0</ele>
<time>2026-09-04T07:03:37Z</time>
</trkpt>
<trkpt lat="46.747990000" lon="-72.785290000">
<ele>0</ele>
<time>2026-09-04T07:03:38Z</time>
</trkpt>
<trkpt lat="46.747580000" lon="-72.784810000">
<ele>0</ele>
<time>2026-09-04T07:03:39Z</time>
</trkpt>
<trkpt lat="46.747580000" lon="-72.784810000">
<ele>0</ele>
<time>2026-09-04T07:03:40Z</time>
</trkpt>
<trkpt lat="46.746560000" lon="-72.783700000">
<ele>0</ele>
<time>2026-09-04T07:03:41Z</time>
</trkpt>
<trkpt lat="46.745850000" lon="-72.782880000">
<ele>0</ele>
<time>2026-09-04T07:03:42Z</time>
</trkpt>
<trkpt lat="46.744850000" lon="-72.781760000">
<ele>0</ele>
<time>2026-09-04T07:03:43Z</time>
</trkpt>
<trkpt lat="46.744520000" lon="-72.781450000">
<ele>0</ele>
<time>2026-09-04T07:03:44Z</time>
</trkpt>
<trkpt lat="46.743850000" lon="-72.780880000">
<ele>0</ele>
<time>2026-09-04T07:03:45Z</time>
</trkpt>
<trkpt lat="46.743290000" lon="-72.780500000">
<ele>0</ele>
<time>2026-09-04T07:03:46Z</time>
</trkpt>
<trkpt lat="46.741930000" lon="-72.779800000">
<ele>0</ele>
<time>2026-09-04T07:03:47Z</time>
</trkpt>
<trkpt lat="46.741580000" lon="-72.779630000">
<ele>0</ele>
<time>2026-09-04T07:03:48Z</time>
</trkpt>
<trkpt lat="46.741510000" lon="-72.779600000">
<ele>0</ele>
<time>2026-09-04T07:03:49Z</time>
</trkpt>
<trkpt lat="46.741510000" lon="-72.779600000">
<ele>0</ele>
<time>2026-09-04T07:03:50Z</time>
</trkpt>
<trkpt lat="46.741240000" lon="-72.779560000">
<ele>0</ele>
<time>2026-09-04T07:03:51Z</time>
</trkpt>
<trkpt lat="46.741050000" lon="-72.779520000">
<ele>0</ele>
<time>2026-09-04T07:03:52Z</time>
</trkpt>
<trkpt lat="46.740900000" lon="-72.779470000">
<ele>0</ele>
<time>2026-09-04T07:03:53Z</time>
</trkpt>
<trkpt lat="46.740650000" lon="-72.779280000">
<ele>0</ele>
<time>2026-09-04T07:03:54Z</time>
</trkpt>
<trkpt lat="46.740280000" lon="-72.778870000">
<ele>0</ele>
<time>2026-09-04T07:03:55Z</time>
</trkpt>
<trkpt lat="46.739980000" lon="-72.778580000">
<ele>0</ele>
<time>2026-09-04T07:03:56Z</time>
</trkpt>
<trkpt lat="46.739590000" lon="-72.778230000">
<ele>0</ele>
<time>2026-09-04T07:03:57Z</time>
</trkpt>
<trkpt lat="46.739440000" lon="-72.778070000">
<ele>0</ele>
<time>2026-09-04T07:03:58Z</time>
</trkpt>
<trkpt lat="46.739290000" lon="-72.777860000">
<ele>0</ele>
<time>2026-09-04T07:03:59Z</time>
</trkpt>
<trkpt lat="46.739150000" lon="-72.777590000">
<ele>0</ele>
<time>2026-09-04T07:04:00Z</time>
</trkpt>
<trkpt lat="46.738950000" lon="-72.776870000">
<ele>0</ele>
<time>2026-09-04T07:04:01Z</time>
</trkpt>
<trkpt lat="46.738840000" lon="-72.776380000">
<ele>0</ele>
<time>2026-09-04T07:04:02Z</time>
</trkpt>
<trkpt lat="46.738780000" lon="-72.775870000">
<ele>0</ele>
<time>2026-09-04T07:04:03Z</time>
</trkpt>
<trkpt lat="46.738720000" lon="-72.775340000">
<ele>0</ele>
<time>2026-09-04T07:04:04Z</time>
</trkpt>
<trkpt lat="46.738640000" lon="-72.774800000">
<ele>0</ele>
<time>2026-09-04T07:04:05Z</time>
</trkpt>
<trkpt lat="46.738470000" lon="-72.774320000">
<ele>0</ele>
<time>2026-09-04T07:04:06Z</time>
</trkpt>
<trkpt lat="46.738380000" lon="-72.774150000">
<ele>0</ele>
<time>2026-09-04T07:04:07Z</time>
</trkpt>
<trkpt lat="46.738240000" lon="-72.773990000">
<ele>0</ele>
<time>2026-09-04T07:04:08Z</time>
</trkpt>
<trkpt lat="46.737940000" lon="-72.773700000">
<ele>0</ele>
<time>2026-09-04T07:04:09Z</time>
</trkpt>
<trkpt lat="46.736980000" lon="-72.772790000">
<ele>0</ele>
<time>2026-09-04T07:04:10Z</time>
</trkpt>
<trkpt lat="46.736400000" lon="-72.772220000">
<ele>0</ele>
<time>2026-09-04T07:04:11Z</time>
</trkpt>
<trkpt lat="46.736400000" lon="-72.772220000">
<ele>0</ele>
<time>2026-09-04T07:04:12Z</time>
</trkpt>
<trkpt lat="46.736300000" lon="-72.772090000">
<ele>0</ele>
<time>2026-09-04T07:04:13Z</time>
</trkpt>
<trkpt lat="46.736090000" lon="-72.771660000">
<ele>0</ele>
<time>2026-09-04T07:04:14Z</time>
</trkpt>
<trkpt lat="46.735750000" lon="-72.770800000">
<ele>0</ele>
<time>2026-09-04T07:04:15Z</time>
</trkpt>
<trkpt lat="46.735620000" lon="-72.770540000">
<ele>0</ele>
<time>2026-09-04T07:04:16Z</time>
</trkpt>
<trkpt lat="46.735490000" lon="-72.770350000">
<ele>0</ele>
<time>2026-09-04T07:04:17Z</time>
</trkpt>
<trkpt lat="46.735190000" lon="-72.769960000">
<ele>0</ele>
<time>2026-09-04T07:04:18Z</time>
</trkpt>
<trkpt lat="46.734910000" lon="-72.769710000">
<ele>0</ele>
<time>2026-09-04T07:04:19Z</time>
</trkpt>
<trkpt lat="46.734200000" lon="-72.769230000">
<ele>0</ele>
<time>2026-09-04T07:04:20Z</time>
</trkpt>
<trkpt lat="46.733860000" lon="-72.769050000">
<ele>0</ele>
<time>2026-09-04T07:04:21Z</time>
</trkpt>
<trkpt lat="46.733140000" lon="-72.768740000">
<ele>0</ele>
<time>2026-09-04T07:04:22Z</time>
</trkpt>
<trkpt lat="46.732620000" lon="-72.768530000">
<ele>0</ele>
<time>2026-09-04T07:04:23Z</time>
</trkpt>
<trkpt lat="46.730940000" lon="-72.767740000">
<ele>0</ele>
<time>2026-09-04T07:04:24Z</time>
</trkpt>
<trkpt lat="46.730340000" lon="-72.767540000">
<ele>0</ele>
<time>2026-09-04T07:04:25Z</time>
</trkpt>
<trkpt lat="46.729900000" lon="-72.767490000">
<ele>0</ele>
<time>2026-09-04T07:04:26Z</time>
</trkpt>
<trkpt lat="46.729900000" lon="-72.767490000">
<ele>0</ele>
<time>2026-09-04T07:04:27Z</time>
</trkpt>
<trkpt lat="46.729430000" lon="-72.767510000">
<ele>0</ele>
<time>2026-09-04T07:04:28Z</time>
</trkpt>
<trkpt lat="46.728740000" lon="-72.767580000">
<ele>0</ele>
<time>2026-09-04T07:04:29Z</time>
</trkpt>
<trkpt lat="46.728240000" lon="-72.767730000">
<ele>0</ele>
<time>2026-09-04T07:04:30Z</time>
</trkpt>
<trkpt lat="46.727880000" lon="-72.767800000">
<ele>0</ele>
<time>2026-09-04T07:04:31Z</time>
</trkpt>
<trkpt lat="46.727720000" lon="-72.767810000">
<ele>0</ele>
<time>2026-09-04T07:04:32Z</time>
</trkpt>
<trkpt lat="46.727530000" lon="-72.767780000">
<ele>0</ele>
<time>2026-09-04T07:04:33Z</time>
</trkpt>
<trkpt lat="46.727060000" lon="-72.767680000">
<ele>0</ele>
<time>2026-09-04T07:04:34Z</time>
</trkpt>
<trkpt lat="46.726920000" lon="-72.767590000">
<ele>0</ele>
<time>2026-09-04T07:04:35Z</time>
</trkpt>
<trkpt lat="46.726500000" lon="-72.767390000">
<ele>0</ele>
<time>2026-09-04T07:04:36Z</time>
</trkpt>
<trkpt lat="46.726250000" lon="-72.767300000">
<ele>0</ele>
<time>2026-09-04T07:04:37Z</time>
</trkpt>
<trkpt lat="46.725970000" lon="-72.767250000">
<ele>0</ele>
<time>2026-09-04T07:04:38Z</time>
</trkpt>
<trkpt lat="46.725360000" lon="-72.767230000">
<ele>0</ele>
<time>2026-09-04T07:04:39Z</time>
</trkpt>
<trkpt lat="46.725040000" lon="-72.767260000">
<ele>0</ele>
<time>2026-09-04T07:04:40Z</time>
</trkpt>
</trkseg>
</trk>
</gpx>
